<?xml version="1.0" encoding="UTF-8" standalone="no" ?>
<gpx xmlns="http://www.topografix.com/GPX/1/1" xmlns:xsi="http://www.w3.org/2001/XMLSchema-instance" xsi:schemaLocation="http://www.topografix.com/GPX/1/1 http://www.topografix.com/GPX/1/1/gpx.xsd" version="1.1" creator="VisuGPX - https://www.visugpx.com">
  <metadata>
    <name>Sur cou/roche parnal</name>
    <desc><![CDATA[rando a faire quand bcp de neige. Gaffe aux avalanche sous la roche parnal]]></desc>
  </metadata>
  <trk>
    <name><![CDATA[ROCHE PARNAL EN SKI]]></name>
    <trkseg>
      <trkpt lat="46.02153" lon="6.32351">
        <ele>1173.8000488281</ele>
        <time>2013-02-23T08:43:58.000Z</time>
      </trkpt>
      <trkpt lat="46.02154" lon="6.32354">
        <ele>1168</ele>
        <time>2013-02-23T08:44:00.000Z</time>
      </trkpt>
      <trkpt lat="46.02155" lon="6.32356">
        <ele>1164.5999755859</ele>
        <time>2013-02-23T08:44:12.000Z</time>
      </trkpt>
      <trkpt lat="46.02154" lon="6.32353">
        <ele>1168</ele>
        <time>2013-02-23T08:44:25.000Z</time>
      </trkpt>
      <trkpt lat="46.02153" lon="6.32353">
        <ele>1168.5999755859</ele>
        <time>2013-02-23T08:44:33.000Z</time>
      </trkpt>
      <trkpt lat="46.02153" lon="6.32352">
        <ele>1169.4000244141</ele>
        <time>2013-02-23T08:44:41.000Z</time>
      </trkpt>
      <trkpt lat="46.02154" lon="6.3235">
        <ele>1177.1999511719</ele>
        <time>2013-02-23T08:44:51.000Z</time>
      </trkpt>
      <trkpt lat="46.02154" lon="6.3235">
        <ele>1175.8000488281</ele>
        <time>2013-02-23T08:45:07.000Z</time>
      </trkpt>
      <trkpt lat="46.02155" lon="6.3235">
        <ele>1175.8000488281</ele>
        <time>2013-02-23T08:45:25.000Z</time>
      </trkpt>
      <trkpt lat="46.02154" lon="6.32348">
        <ele>1174.1999511719</ele>
        <time>2013-02-23T08:45:31.000Z</time>
      </trkpt>
      <trkpt lat="46.02155" lon="6.32348">
        <ele>1173.8000488281</ele>
        <time>2013-02-23T08:45:37.000Z</time>
      </trkpt>
      <trkpt lat="46.02155" lon="6.32348">
        <ele>1173.8000488281</ele>
        <time>2013-02-23T08:45:45.000Z</time>
      </trkpt>
      <trkpt lat="46.02155" lon="6.32347">
        <ele>1175.8000488281</ele>
        <time>2013-02-23T08:45:58.000Z</time>
      </trkpt>
      <trkpt lat="46.02156" lon="6.32349">
        <ele>1175.8000488281</ele>
        <time>2013-02-23T08:46:05.000Z</time>
      </trkpt>
      <trkpt lat="46.02159" lon="6.32349">
        <ele>1178.5999755859</ele>
        <time>2013-02-23T08:46:16.000Z</time>
      </trkpt>
      <trkpt lat="46.02158" lon="6.32348">
        <ele>1178.1999511719</ele>
        <time>2013-02-23T08:46:24.000Z</time>
      </trkpt>
      <trkpt lat="46.02156" lon="6.3235">
        <ele>1177.5999755859</ele>
        <time>2013-02-23T08:46:30.000Z</time>
      </trkpt>
      <trkpt lat="46.02155" lon="6.3235">
        <ele>1177.5999755859</ele>
        <time>2013-02-23T08:46:36.000Z</time>
      </trkpt>
      <trkpt lat="46.02156" lon="6.3235">
        <ele>1177.5999755859</ele>
        <time>2013-02-23T08:46:47.000Z</time>
      </trkpt>
      <trkpt lat="46.02157" lon="6.32351">
        <ele>1176.5999755859</ele>
        <time>2013-02-23T08:46:52.000Z</time>
      </trkpt>
      <trkpt lat="46.02157" lon="6.32355">
        <ele>1175.8000488281</ele>
        <time>2013-02-23T08:47:27.000Z</time>
      </trkpt>
      <trkpt lat="46.02161" lon="6.32359">
        <ele>1175.1999511719</ele>
        <time>2013-02-23T08:47:33.000Z</time>
      </trkpt>
      <trkpt lat="46.02166" lon="6.3236">
        <ele>1175.1999511719</ele>
        <time>2013-02-23T08:47:38.000Z</time>
      </trkpt>
      <trkpt lat="46.0217" lon="6.32363">
        <ele>1176.1999511719</ele>
        <time>2013-02-23T08:47:44.000Z</time>
      </trkpt>
      <trkpt lat="46.02166" lon="6.32361">
        <ele>1180.5999755859</ele>
        <time>2013-02-23T08:48:05.000Z</time>
      </trkpt>
      <trkpt lat="46.0217" lon="6.32361">
        <ele>1179</ele>
        <time>2013-02-23T08:48:09.000Z</time>
      </trkpt>
      <trkpt lat="46.02173" lon="6.3236">
        <ele>1178.5999755859</ele>
        <time>2013-02-23T08:48:12.000Z</time>
      </trkpt>
      <trkpt lat="46.02177" lon="6.3236">
        <ele>1178.1999511719</ele>
        <time>2013-02-23T08:48:16.000Z</time>
      </trkpt>
      <trkpt lat="46.02183" lon="6.32357">
        <ele>1178.1999511719</ele>
        <time>2013-02-23T08:48:21.000Z</time>
      </trkpt>
      <trkpt lat="46.02188" lon="6.32356">
        <ele>1179</ele>
        <time>2013-02-23T08:48:26.000Z</time>
      </trkpt>
      <trkpt lat="46.02192" lon="6.32356">
        <ele>1179</ele>
        <time>2013-02-23T08:48:30.000Z</time>
      </trkpt>
      <trkpt lat="46.02198" lon="6.32354">
        <ele>1179.5999755859</ele>
        <time>2013-02-23T08:48:34.000Z</time>
      </trkpt>
      <trkpt lat="46.02202" lon="6.32353">
        <ele>1179.5999755859</ele>
        <time>2013-02-23T08:48:38.000Z</time>
      </trkpt>
      <trkpt lat="46.02206" lon="6.32354">
        <ele>1179.5999755859</ele>
        <time>2013-02-23T08:48:42.000Z</time>
      </trkpt>
      <trkpt lat="46.02209" lon="6.32354">
        <ele>1179.5999755859</ele>
        <time>2013-02-23T08:48:45.000Z</time>
      </trkpt>
      <trkpt lat="46.02213" lon="6.32354">
        <ele>1181</ele>
        <time>2013-02-23T08:48:50.000Z</time>
      </trkpt>
      <trkpt lat="46.02215" lon="6.32353">
        <ele>1182.4000244141</ele>
        <time>2013-02-23T08:48:54.000Z</time>
      </trkpt>
      <trkpt lat="46.02219" lon="6.32354">
        <ele>1184.4000244141</ele>
        <time>2013-02-23T08:49:00.000Z</time>
      </trkpt>
      <trkpt lat="46.02221" lon="6.32355">
        <ele>1186.4000244141</ele>
        <time>2013-02-23T08:49:04.000Z</time>
      </trkpt>
      <trkpt lat="46.02224" lon="6.32355">
        <ele>1187.1999511719</ele>
        <time>2013-02-23T08:49:08.000Z</time>
      </trkpt>
      <trkpt lat="46.02228" lon="6.32358">
        <ele>1187.1999511719</ele>
        <time>2013-02-23T08:49:12.000Z</time>
      </trkpt>
      <trkpt lat="46.0223" lon="6.32365">
        <ele>1188.1999511719</ele>
        <time>2013-02-23T08:49:16.000Z</time>
      </trkpt>
      <trkpt lat="46.02235" lon="6.32368">
        <ele>1187.8000488281</ele>
        <time>2013-02-23T08:49:21.000Z</time>
      </trkpt>
      <trkpt lat="46.02238" lon="6.32371">
        <ele>1187.8000488281</ele>
        <time>2013-02-23T08:49:25.000Z</time>
      </trkpt>
      <trkpt lat="46.02241" lon="6.32374">
        <ele>1188.8000488281</ele>
        <time>2013-02-23T08:49:29.000Z</time>
      </trkpt>
      <trkpt lat="46.02244" lon="6.32378">
        <ele>1189.5999755859</ele>
        <time>2013-02-23T08:49:34.000Z</time>
      </trkpt>
      <trkpt lat="46.02246" lon="6.3238">
        <ele>1190.1999511719</ele>
        <time>2013-02-23T08:49:36.000Z</time>
      </trkpt>
      <trkpt lat="46.02251" lon="6.32386">
        <ele>1190.1999511719</ele>
        <time>2013-02-23T08:49:40.000Z</time>
      </trkpt>
      <trkpt lat="46.02254" lon="6.32389">
        <ele>1192</ele>
        <time>2013-02-23T08:49:46.000Z</time>
      </trkpt>
      <trkpt lat="46.02257" lon="6.32392">
        <ele>1193.5999755859</ele>
        <time>2013-02-23T08:49:50.000Z</time>
      </trkpt>
      <trkpt lat="46.02258" lon="6.32395">
        <ele>1195</ele>
        <time>2013-02-23T08:49:53.000Z</time>
      </trkpt>
      <trkpt lat="46.02259" lon="6.32397">
        <ele>1196</ele>
        <time>2013-02-23T08:49:57.000Z</time>
      </trkpt>
      <trkpt lat="46.02261" lon="6.324">
        <ele>1196</ele>
        <time>2013-02-23T08:50:03.000Z</time>
      </trkpt>
      <trkpt lat="46.02263" lon="6.32403">
        <ele>1195</ele>
        <time>2013-02-23T08:50:09.000Z</time>
      </trkpt>
      <trkpt lat="46.02266" lon="6.32406">
        <ele>1195.4000244141</ele>
        <time>2013-02-23T08:50:14.000Z</time>
      </trkpt>
      <trkpt lat="46.02268" lon="6.32408">
        <ele>1196.8000488281</ele>
        <time>2013-02-23T08:50:18.000Z</time>
      </trkpt>
      <trkpt lat="46.02271" lon="6.32411">
        <ele>1196.4000244141</ele>
        <time>2013-02-23T08:50:23.000Z</time>
      </trkpt>
      <trkpt lat="46.02274" lon="6.32414">
        <ele>1196.4000244141</ele>
        <time>2013-02-23T08:50:28.000Z</time>
      </trkpt>
      <trkpt lat="46.02276" lon="6.32416">
        <ele>1196</ele>
        <time>2013-02-23T08:50:33.000Z</time>
      </trkpt>
      <trkpt lat="46.02278" lon="6.3242">
        <ele>1194.4000244141</ele>
        <time>2013-02-23T08:50:37.000Z</time>
      </trkpt>
      <trkpt lat="46.02279" lon="6.32421">
        <ele>1193</ele>
        <time>2013-02-23T08:50:40.000Z</time>
      </trkpt>
      <trkpt lat="46.02282" lon="6.32422">
        <ele>1193.5999755859</ele>
        <time>2013-02-23T08:50:43.000Z</time>
      </trkpt>
      <trkpt lat="46.02285" lon="6.32426">
        <ele>1193.5999755859</ele>
        <time>2013-02-23T08:50:47.000Z</time>
      </trkpt>
      <trkpt lat="46.02288" lon="6.3243">
        <ele>1193.5999755859</ele>
        <time>2013-02-23T08:50:51.000Z</time>
      </trkpt>
      <trkpt lat="46.02291" lon="6.32434">
        <ele>1194.4000244141</ele>
        <time>2013-02-23T08:50:56.000Z</time>
      </trkpt>
      <trkpt lat="46.02294" lon="6.32436">
        <ele>1197.8000488281</ele>
        <time>2013-02-23T08:51:00.000Z</time>
      </trkpt>
      <trkpt lat="46.02296" lon="6.32441">
        <ele>1199.1999511719</ele>
        <time>2013-02-23T08:51:05.000Z</time>
      </trkpt>
      <trkpt lat="46.02298" lon="6.32443">
        <ele>1200.1999511719</ele>
        <time>2013-02-23T08:51:08.000Z</time>
      </trkpt>
      <trkpt lat="46.023" lon="6.32446">
        <ele>1202.1999511719</ele>
        <time>2013-02-23T08:51:13.000Z</time>
      </trkpt>
      <trkpt lat="46.02304" lon="6.3245">
        <ele>1204</ele>
        <time>2013-02-23T08:51:18.000Z</time>
      </trkpt>
      <trkpt lat="46.02307" lon="6.32454">
        <ele>1205</ele>
        <time>2013-02-23T08:51:22.000Z</time>
      </trkpt>
      <trkpt lat="46.02309" lon="6.32459">
        <ele>1205</ele>
        <time>2013-02-23T08:51:27.000Z</time>
      </trkpt>
      <trkpt lat="46.02315" lon="6.32466">
        <ele>1205</ele>
        <time>2013-02-23T08:51:34.000Z</time>
      </trkpt>
      <trkpt lat="46.02319" lon="6.32473">
        <ele>1205.5999755859</ele>
        <time>2013-02-23T08:51:41.000Z</time>
      </trkpt>
      <trkpt lat="46.02323" lon="6.32482">
        <ele>1206</ele>
        <time>2013-02-23T08:51:50.000Z</time>
      </trkpt>
      <trkpt lat="46.02328" lon="6.32488">
        <ele>1207</ele>
        <time>2013-02-23T08:51:57.000Z</time>
      </trkpt>
      <trkpt lat="46.0233" lon="6.32494">
        <ele>1206</ele>
        <time>2013-02-23T08:52:02.000Z</time>
      </trkpt>
      <trkpt lat="46.02332" lon="6.32499">
        <ele>1205.5999755859</ele>
        <time>2013-02-23T08:52:06.000Z</time>
      </trkpt>
      <trkpt lat="46.02333" lon="6.32503">
        <ele>1206</ele>
        <time>2013-02-23T08:52:10.000Z</time>
      </trkpt>
      <trkpt lat="46.02334" lon="6.32508">
        <ele>1206.4000244141</ele>
        <time>2013-02-23T08:52:13.000Z</time>
      </trkpt>
      <trkpt lat="46.02332" lon="6.32511">
        <ele>1206.4000244141</ele>
        <time>2013-02-23T08:52:17.000Z</time>
      </trkpt>
      <trkpt lat="46.02329" lon="6.32511">
        <ele>1208</ele>
        <time>2013-02-23T08:52:21.000Z</time>
      </trkpt>
      <trkpt lat="46.02323" lon="6.3251">
        <ele>1211.1999511719</ele>
        <time>2013-02-23T08:52:30.000Z</time>
      </trkpt>
      <trkpt lat="46.02319" lon="6.32507">
        <ele>1214.1999511719</ele>
        <time>2013-02-23T08:52:35.000Z</time>
      </trkpt>
      <trkpt lat="46.02314" lon="6.32506">
        <ele>1217</ele>
        <time>2013-02-23T08:52:41.000Z</time>
      </trkpt>
      <trkpt lat="46.02308" lon="6.32506">
        <ele>1217.5999755859</ele>
        <time>2013-02-23T08:52:48.000Z</time>
      </trkpt>
      <trkpt lat="46.02304" lon="6.32506">
        <ele>1217.5999755859</ele>
        <time>2013-02-23T08:52:53.000Z</time>
      </trkpt>
      <trkpt lat="46.02299" lon="6.32505">
        <ele>1216.5999755859</ele>
        <time>2013-02-23T08:52:59.000Z</time>
      </trkpt>
      <trkpt lat="46.02295" lon="6.32504">
        <ele>1217</ele>
        <time>2013-02-23T08:53:04.000Z</time>
      </trkpt>
      <trkpt lat="46.02292" lon="6.32503">
        <ele>1217.5999755859</ele>
        <time>2013-02-23T08:53:08.000Z</time>
      </trkpt>
      <trkpt lat="46.02288" lon="6.32502">
        <ele>1217.5999755859</ele>
        <time>2013-02-23T08:53:14.000Z</time>
      </trkpt>
      <trkpt lat="46.02284" lon="6.32504">
        <ele>1218</ele>
        <time>2013-02-23T08:53:18.000Z</time>
      </trkpt>
      <trkpt lat="46.02282" lon="6.32504">
        <ele>1217</ele>
        <time>2013-02-23T08:53:20.000Z</time>
      </trkpt>
      <trkpt lat="46.02277" lon="6.32506">
        <ele>1217</ele>
        <time>2013-02-23T08:53:26.000Z</time>
      </trkpt>
      <trkpt lat="46.02272" lon="6.32507">
        <ele>1218</ele>
        <time>2013-02-23T08:53:32.000Z</time>
      </trkpt>
      <trkpt lat="46.02268" lon="6.32508">
        <ele>1218.5999755859</ele>
        <time>2013-02-23T08:53:36.000Z</time>
      </trkpt>
      <trkpt lat="46.02265" lon="6.32509">
        <ele>1219</ele>
        <time>2013-02-23T08:53:39.000Z</time>
      </trkpt>
      <trkpt lat="46.0226" lon="6.3251">
        <ele>1221.8000488281</ele>
        <time>2013-02-23T08:53:43.000Z</time>
      </trkpt>
      <trkpt lat="46.02256" lon="6.32507">
        <ele>1222.4000244141</ele>
        <time>2013-02-23T08:53:47.000Z</time>
      </trkpt>
      <trkpt lat="46.02254" lon="6.32508">
        <ele>1223.8000488281</ele>
        <time>2013-02-23T08:53:49.000Z</time>
      </trkpt>
      <trkpt lat="46.0225" lon="6.32509">
        <ele>1224.1999511719</ele>
        <time>2013-02-23T08:53:53.000Z</time>
      </trkpt>
      <trkpt lat="46.02249" lon="6.32519">
        <ele>1222.4000244141</ele>
        <time>2013-02-23T08:54:01.000Z</time>
      </trkpt>
      <trkpt lat="46.0225" lon="6.32526">
        <ele>1223.4000244141</ele>
        <time>2013-02-23T08:54:06.000Z</time>
      </trkpt>
      <trkpt lat="46.0225" lon="6.3253">
        <ele>1224.1999511719</ele>
        <time>2013-02-23T08:54:09.000Z</time>
      </trkpt>
      <trkpt lat="46.02251" lon="6.32534">
        <ele>1223.4000244141</ele>
        <time>2013-02-23T08:54:13.000Z</time>
      </trkpt>
      <trkpt lat="46.02252" lon="6.3254">
        <ele>1223.4000244141</ele>
        <time>2013-02-23T08:54:16.000Z</time>
      </trkpt>
      <trkpt lat="46.02251" lon="6.32547">
        <ele>1223.4000244141</ele>
        <time>2013-02-23T08:54:21.000Z</time>
      </trkpt>
      <trkpt lat="46.02251" lon="6.32552">
        <ele>1222.8000488281</ele>
        <time>2013-02-23T08:54:24.000Z</time>
      </trkpt>
      <trkpt lat="46.02252" lon="6.32561">
        <ele>1222.4000244141</ele>
        <time>2013-02-23T08:54:30.000Z</time>
      </trkpt>
      <trkpt lat="46.02251" lon="6.32568">
        <ele>1222.8000488281</ele>
        <time>2013-02-23T08:54:35.000Z</time>
      </trkpt>
      <trkpt lat="46.0225" lon="6.32576">
        <ele>1222.8000488281</ele>
        <time>2013-02-23T08:54:42.000Z</time>
      </trkpt>
      <trkpt lat="46.02249" lon="6.32582">
        <ele>1223.8000488281</ele>
        <time>2013-02-23T08:54:46.000Z</time>
      </trkpt>
      <trkpt lat="46.02249" lon="6.32587">
        <ele>1223.8000488281</ele>
        <time>2013-02-23T08:54:50.000Z</time>
      </trkpt>
      <trkpt lat="46.02247" lon="6.32595">
        <ele>1224.1999511719</ele>
        <time>2013-02-23T08:54:56.000Z</time>
      </trkpt>
      <trkpt lat="46.02246" lon="6.32599">
        <ele>1225.1999511719</ele>
        <time>2013-02-23T08:55:00.000Z</time>
      </trkpt>
      <trkpt lat="46.02244" lon="6.32603">
        <ele>1226.1999511719</ele>
        <time>2013-02-23T08:55:04.000Z</time>
      </trkpt>
      <trkpt lat="46.02243" lon="6.32608">
        <ele>1227.1999511719</ele>
        <time>2013-02-23T08:55:09.000Z</time>
      </trkpt>
      <trkpt lat="46.02241" lon="6.32613">
        <ele>1228.1999511719</ele>
        <time>2013-02-23T08:55:13.000Z</time>
      </trkpt>
      <trkpt lat="46.02241" lon="6.32619">
        <ele>1230</ele>
        <time>2013-02-23T08:55:18.000Z</time>
      </trkpt>
      <trkpt lat="46.0224" lon="6.32623">
        <ele>1230.5999755859</ele>
        <time>2013-02-23T08:55:21.000Z</time>
      </trkpt>
      <trkpt lat="46.0224" lon="6.32629">
        <ele>1232</ele>
        <time>2013-02-23T08:55:26.000Z</time>
      </trkpt>
      <trkpt lat="46.02238" lon="6.32632">
        <ele>1232.4000244141</ele>
        <time>2013-02-23T08:55:29.000Z</time>
      </trkpt>
      <trkpt lat="46.02236" lon="6.32635">
        <ele>1233.4000244141</ele>
        <time>2013-02-23T08:55:32.000Z</time>
      </trkpt>
      <trkpt lat="46.02229" lon="6.32636">
        <ele>1238.1999511719</ele>
        <time>2013-02-23T08:55:38.000Z</time>
      </trkpt>
      <trkpt lat="46.02222" lon="6.32641">
        <ele>1241.5999755859</ele>
        <time>2013-02-23T08:55:46.000Z</time>
      </trkpt>
      <trkpt lat="46.02213" lon="6.32642">
        <ele>1245.4000244141</ele>
        <time>2013-02-23T08:55:57.000Z</time>
      </trkpt>
      <trkpt lat="46.02208" lon="6.32642">
        <ele>1245.4000244141</ele>
        <time>2013-02-23T08:56:02.000Z</time>
      </trkpt>
      <trkpt lat="46.02203" lon="6.3264">
        <ele>1243.5999755859</ele>
        <time>2013-02-23T08:56:09.000Z</time>
      </trkpt>
      <trkpt lat="46.022" lon="6.32639">
        <ele>1243</ele>
        <time>2013-02-23T08:56:13.000Z</time>
      </trkpt>
      <trkpt lat="46.02196" lon="6.32639">
        <ele>1243.5999755859</ele>
        <time>2013-02-23T08:56:17.000Z</time>
      </trkpt>
      <trkpt lat="46.02192" lon="6.32639">
        <ele>1246</ele>
        <time>2013-02-23T08:56:21.000Z</time>
      </trkpt>
      <trkpt lat="46.02189" lon="6.32639">
        <ele>1248.4000244141</ele>
        <time>2013-02-23T08:56:24.000Z</time>
      </trkpt>
      <trkpt lat="46.02182" lon="6.32637">
        <ele>1254</ele>
        <time>2013-02-23T08:56:30.000Z</time>
      </trkpt>
      <trkpt lat="46.02177" lon="6.32638">
        <ele>1255.5999755859</ele>
        <time>2013-02-23T08:56:35.000Z</time>
      </trkpt>
      <trkpt lat="46.02167" lon="6.3264">
        <ele>1255.5999755859</ele>
        <time>2013-02-23T08:56:48.000Z</time>
      </trkpt>
      <trkpt lat="46.02162" lon="6.32636">
        <ele>1256.4000244141</ele>
        <time>2013-02-23T08:56:55.000Z</time>
      </trkpt>
      <trkpt lat="46.02156" lon="6.32632">
        <ele>1250.8000488281</ele>
        <time>2013-02-23T08:57:09.000Z</time>
      </trkpt>
      <trkpt lat="46.02152" lon="6.32634">
        <ele>1246.8000488281</ele>
        <time>2013-02-23T08:57:18.000Z</time>
      </trkpt>
      <trkpt lat="46.02147" lon="6.32635">
        <ele>1246.4000244141</ele>
        <time>2013-02-23T08:57:24.000Z</time>
      </trkpt>
      <trkpt lat="46.02143" lon="6.32636">
        <ele>1245</ele>
        <time>2013-02-23T08:57:31.000Z</time>
      </trkpt>
      <trkpt lat="46.02139" lon="6.32637">
        <ele>1246</ele>
        <time>2013-02-23T08:57:36.000Z</time>
      </trkpt>
      <trkpt lat="46.02131" lon="6.32636">
        <ele>1249.1999511719</ele>
        <time>2013-02-23T08:57:45.000Z</time>
      </trkpt>
      <trkpt lat="46.02128" lon="6.32637">
        <ele>1249.8000488281</ele>
        <time>2013-02-23T08:57:50.000Z</time>
      </trkpt>
      <trkpt lat="46.02122" lon="6.32639">
        <ele>1250.1999511719</ele>
        <time>2013-02-23T08:57:59.000Z</time>
      </trkpt>
      <trkpt lat="46.02111" lon="6.32652">
        <ele>1251.1999511719</ele>
        <time>2013-02-23T08:58:23.000Z</time>
      </trkpt>
      <trkpt lat="46.02106" lon="6.32657">
        <ele>1252.5999755859</ele>
        <time>2013-02-23T08:58:32.000Z</time>
      </trkpt>
      <trkpt lat="46.02103" lon="6.32662">
        <ele>1253.5999755859</ele>
        <time>2013-02-23T08:58:38.000Z</time>
      </trkpt>
      <trkpt lat="46.02102" lon="6.32664">
        <ele>1254.5999755859</ele>
        <time>2013-02-23T08:58:41.000Z</time>
      </trkpt>
      <trkpt lat="46.021" lon="6.32666">
        <ele>1255.5999755859</ele>
        <time>2013-02-23T08:58:44.000Z</time>
      </trkpt>
      <trkpt lat="46.02099" lon="6.32666">
        <ele>1255.5999755859</ele>
        <time>2013-02-23T08:58:51.000Z</time>
      </trkpt>
      <trkpt lat="46.02095" lon="6.32672">
        <ele>1257</ele>
        <time>2013-02-23T08:59:00.000Z</time>
      </trkpt>
      <trkpt lat="46.02093" lon="6.32675">
        <ele>1257</ele>
        <time>2013-02-23T08:59:04.000Z</time>
      </trkpt>
      <trkpt lat="46.0209" lon="6.32679">
        <ele>1257.4000244141</ele>
        <time>2013-02-23T08:59:08.000Z</time>
      </trkpt>
      <trkpt lat="46.02087" lon="6.32683">
        <ele>1258</ele>
        <time>2013-02-23T08:59:12.000Z</time>
      </trkpt>
      <trkpt lat="46.02086" lon="6.32686">
        <ele>1258</ele>
        <time>2013-02-23T08:59:16.000Z</time>
      </trkpt>
      <trkpt lat="46.02082" lon="6.32693">
        <ele>1259.8000488281</ele>
        <time>2013-02-23T08:59:24.000Z</time>
      </trkpt>
      <trkpt lat="46.02081" lon="6.32698">
        <ele>1259.8000488281</ele>
        <time>2013-02-23T08:59:28.000Z</time>
      </trkpt>
      <trkpt lat="46.02078" lon="6.32705">
        <ele>1260.8000488281</ele>
        <time>2013-02-23T08:59:35.000Z</time>
      </trkpt>
      <trkpt lat="46.02075" lon="6.32711">
        <ele>1260.8000488281</ele>
        <time>2013-02-23T08:59:42.000Z</time>
      </trkpt>
      <trkpt lat="46.02074" lon="6.32717">
        <ele>1260.4000244141</ele>
        <time>2013-02-23T08:59:47.000Z</time>
      </trkpt>
      <trkpt lat="46.02072" lon="6.3272">
        <ele>1260.4000244141</ele>
        <time>2013-02-23T08:59:51.000Z</time>
      </trkpt>
      <trkpt lat="46.02071" lon="6.32725">
        <ele>1259.8000488281</ele>
        <time>2013-02-23T08:59:56.000Z</time>
      </trkpt>
      <trkpt lat="46.0207" lon="6.3273">
        <ele>1259.8000488281</ele>
        <time>2013-02-23T09:00:00.000Z</time>
      </trkpt>
      <trkpt lat="46.02069" lon="6.32736">
        <ele>1259.4000244141</ele>
        <time>2013-02-23T09:00:05.000Z</time>
      </trkpt>
      <trkpt lat="46.02066" lon="6.32743">
        <ele>1260.4000244141</ele>
        <time>2013-02-23T09:00:11.000Z</time>
      </trkpt>
      <trkpt lat="46.02066" lon="6.32749">
        <ele>1261.1999511719</ele>
        <time>2013-02-23T09:00:15.000Z</time>
      </trkpt>
      <trkpt lat="46.02068" lon="6.32756">
        <ele>1261.1999511719</ele>
        <time>2013-02-23T09:00:19.000Z</time>
      </trkpt>
      <trkpt lat="46.02067" lon="6.32757">
        <ele>1261.8000488281</ele>
        <time>2013-02-23T09:00:20.000Z</time>
      </trkpt>
      <trkpt lat="46.02066" lon="6.32764">
        <ele>1262.8000488281</ele>
        <time>2013-02-23T09:00:26.000Z</time>
      </trkpt>
      <trkpt lat="46.02065" lon="6.3277">
        <ele>1263.1999511719</ele>
        <time>2013-02-23T09:00:30.000Z</time>
      </trkpt>
      <trkpt lat="46.02065" lon="6.32776">
        <ele>1263.1999511719</ele>
        <time>2013-02-23T09:00:35.000Z</time>
      </trkpt>
      <trkpt lat="46.02064" lon="6.32781">
        <ele>1264.5999755859</ele>
        <time>2013-02-23T09:00:39.000Z</time>
      </trkpt>
      <trkpt lat="46.02064" lon="6.32788">
        <ele>1265.5999755859</ele>
        <time>2013-02-23T09:00:46.000Z</time>
      </trkpt>
      <trkpt lat="46.02063" lon="6.32793">
        <ele>1266</ele>
        <time>2013-02-23T09:00:50.000Z</time>
      </trkpt>
      <trkpt lat="46.02063" lon="6.32798">
        <ele>1266.5999755859</ele>
        <time>2013-02-23T09:00:55.000Z</time>
      </trkpt>
      <trkpt lat="46.02063" lon="6.32802">
        <ele>1267</ele>
        <time>2013-02-23T09:00:59.000Z</time>
      </trkpt>
      <trkpt lat="46.02064" lon="6.32806">
        <ele>1268</ele>
        <time>2013-02-23T09:01:03.000Z</time>
      </trkpt>
      <trkpt lat="46.02065" lon="6.32812">
        <ele>1269</ele>
        <time>2013-02-23T09:01:08.000Z</time>
      </trkpt>
      <trkpt lat="46.02065" lon="6.32819">
        <ele>1270</ele>
        <time>2013-02-23T09:01:13.000Z</time>
      </trkpt>
      <trkpt lat="46.02065" lon="6.32825">
        <ele>1271</ele>
        <time>2013-02-23T09:01:18.000Z</time>
      </trkpt>
      <trkpt lat="46.02065" lon="6.32831">
        <ele>1270.4000244141</ele>
        <time>2013-02-23T09:01:23.000Z</time>
      </trkpt>
      <trkpt lat="46.02066" lon="6.32837">
        <ele>1271.8000488281</ele>
        <time>2013-02-23T09:01:29.000Z</time>
      </trkpt>
      <trkpt lat="46.02067" lon="6.32841">
        <ele>1272.4000244141</ele>
        <time>2013-02-23T09:01:33.000Z</time>
      </trkpt>
      <trkpt lat="46.02071" lon="6.3285">
        <ele>1274.1999511719</ele>
        <time>2013-02-23T09:01:40.000Z</time>
      </trkpt>
      <trkpt lat="46.02072" lon="6.32855">
        <ele>1275.1999511719</ele>
        <time>2013-02-23T09:01:44.000Z</time>
      </trkpt>
      <trkpt lat="46.02074" lon="6.32862">
        <ele>1275.1999511719</ele>
        <time>2013-02-23T09:01:50.000Z</time>
      </trkpt>
      <trkpt lat="46.02077" lon="6.32872">
        <ele>1276.5999755859</ele>
        <time>2013-02-23T09:02:00.000Z</time>
      </trkpt>
      <trkpt lat="46.0208" lon="6.32875">
        <ele>1277.5999755859</ele>
        <time>2013-02-23T09:02:04.000Z</time>
      </trkpt>
      <trkpt lat="46.02082" lon="6.3288">
        <ele>1279</ele>
        <time>2013-02-23T09:02:08.000Z</time>
      </trkpt>
      <trkpt lat="46.02083" lon="6.32885">
        <ele>1279</ele>
        <time>2013-02-23T09:02:12.000Z</time>
      </trkpt>
      <trkpt lat="46.02085" lon="6.32891">
        <ele>1279</ele>
        <time>2013-02-23T09:02:17.000Z</time>
      </trkpt>
      <trkpt lat="46.02087" lon="6.32897">
        <ele>1278.5999755859</ele>
        <time>2013-02-23T09:02:22.000Z</time>
      </trkpt>
      <trkpt lat="46.02087" lon="6.32902">
        <ele>1280</ele>
        <time>2013-02-23T09:02:26.000Z</time>
      </trkpt>
      <trkpt lat="46.02088" lon="6.32908">
        <ele>1279.5999755859</ele>
        <time>2013-02-23T09:02:31.000Z</time>
      </trkpt>
      <trkpt lat="46.0209" lon="6.32914">
        <ele>1280</ele>
        <time>2013-02-23T09:02:36.000Z</time>
      </trkpt>
      <trkpt lat="46.0209" lon="6.32919">
        <ele>1281</ele>
        <time>2013-02-23T09:02:40.000Z</time>
      </trkpt>
      <trkpt lat="46.02092" lon="6.32925">
        <ele>1282.4000244141</ele>
        <time>2013-02-23T09:02:46.000Z</time>
      </trkpt>
      <trkpt lat="46.02093" lon="6.3293">
        <ele>1283.8000488281</ele>
        <time>2013-02-23T09:02:50.000Z</time>
      </trkpt>
      <trkpt lat="46.02094" lon="6.32934">
        <ele>1285.4000244141</ele>
        <time>2013-02-23T09:02:55.000Z</time>
      </trkpt>
      <trkpt lat="46.02095" lon="6.32939">
        <ele>1285.4000244141</ele>
        <time>2013-02-23T09:02:59.000Z</time>
      </trkpt>
      <trkpt lat="46.02095" lon="6.32942">
        <ele>1285.8000488281</ele>
        <time>2013-02-23T09:03:03.000Z</time>
      </trkpt>
      <trkpt lat="46.02098" lon="6.32947">
        <ele>1285.8000488281</ele>
        <time>2013-02-23T09:03:09.000Z</time>
      </trkpt>
      <trkpt lat="46.021" lon="6.32952">
        <ele>1286.1999511719</ele>
        <time>2013-02-23T09:03:13.000Z</time>
      </trkpt>
      <trkpt lat="46.02102" lon="6.32955">
        <ele>1287.8000488281</ele>
        <time>2013-02-23T09:03:19.000Z</time>
      </trkpt>
      <trkpt lat="46.02102" lon="6.32959">
        <ele>1288.1999511719</ele>
        <time>2013-02-23T09:03:23.000Z</time>
      </trkpt>
      <trkpt lat="46.02103" lon="6.32965">
        <ele>1289.5999755859</ele>
        <time>2013-02-23T09:03:29.000Z</time>
      </trkpt>
      <trkpt lat="46.02105" lon="6.32969">
        <ele>1290.5999755859</ele>
        <time>2013-02-23T09:03:33.000Z</time>
      </trkpt>
      <trkpt lat="46.02107" lon="6.32973">
        <ele>1291</ele>
        <time>2013-02-23T09:03:37.000Z</time>
      </trkpt>
      <trkpt lat="46.02108" lon="6.32977">
        <ele>1292.5999755859</ele>
        <time>2013-02-23T09:03:43.000Z</time>
      </trkpt>
      <trkpt lat="46.02111" lon="6.32979">
        <ele>1295</ele>
        <time>2013-02-23T09:03:48.000Z</time>
      </trkpt>
      <trkpt lat="46.02113" lon="6.32982">
        <ele>1296.4000244141</ele>
        <time>2013-02-23T09:03:53.000Z</time>
      </trkpt>
      <trkpt lat="46.02116" lon="6.32986">
        <ele>1297.8000488281</ele>
        <time>2013-02-23T09:03:59.000Z</time>
      </trkpt>
      <trkpt lat="46.02119" lon="6.32991">
        <ele>1299.8000488281</ele>
        <time>2013-02-23T09:04:06.000Z</time>
      </trkpt>
      <trkpt lat="46.02121" lon="6.32996">
        <ele>1299.8000488281</ele>
        <time>2013-02-23T09:04:12.000Z</time>
      </trkpt>
      <trkpt lat="46.02123" lon="6.32999">
        <ele>1300.1999511719</ele>
        <time>2013-02-23T09:04:17.000Z</time>
      </trkpt>
      <trkpt lat="46.02127" lon="6.33005">
        <ele>1299.8000488281</ele>
        <time>2013-02-23T09:04:22.000Z</time>
      </trkpt>
      <trkpt lat="46.02129" lon="6.3301">
        <ele>1300.1999511719</ele>
        <time>2013-02-23T09:04:28.000Z</time>
      </trkpt>
      <trkpt lat="46.02132" lon="6.33014">
        <ele>1300.8000488281</ele>
        <time>2013-02-23T09:04:32.000Z</time>
      </trkpt>
      <trkpt lat="46.02134" lon="6.33019">
        <ele>1300.8000488281</ele>
        <time>2013-02-23T09:04:38.000Z</time>
      </trkpt>
      <trkpt lat="46.02136" lon="6.33023">
        <ele>1302.1999511719</ele>
        <time>2013-02-23T09:04:44.000Z</time>
      </trkpt>
      <trkpt lat="46.02137" lon="6.33027">
        <ele>1302.5999755859</ele>
        <time>2013-02-23T09:04:48.000Z</time>
      </trkpt>
      <trkpt lat="46.02139" lon="6.33032">
        <ele>1303.5999755859</ele>
        <time>2013-02-23T09:04:53.000Z</time>
      </trkpt>
      <trkpt lat="46.02141" lon="6.33037">
        <ele>1305.5999755859</ele>
        <time>2013-02-23T09:04:59.000Z</time>
      </trkpt>
      <trkpt lat="46.02143" lon="6.33041">
        <ele>1306.4000244141</ele>
        <time>2013-02-23T09:05:03.000Z</time>
      </trkpt>
      <trkpt lat="46.02144" lon="6.33045">
        <ele>1306</ele>
        <time>2013-02-23T09:05:06.000Z</time>
      </trkpt>
      <trkpt lat="46.02145" lon="6.3305">
        <ele>1306</ele>
        <time>2013-02-23T09:05:11.000Z</time>
      </trkpt>
      <trkpt lat="46.02145" lon="6.33054">
        <ele>1307</ele>
        <time>2013-02-23T09:05:16.000Z</time>
      </trkpt>
      <trkpt lat="46.02145" lon="6.33057">
        <ele>1307.4000244141</ele>
        <time>2013-02-23T09:05:20.000Z</time>
      </trkpt>
      <trkpt lat="46.02147" lon="6.33062">
        <ele>1308.8000488281</ele>
        <time>2013-02-23T09:05:25.000Z</time>
      </trkpt>
      <trkpt lat="46.02148" lon="6.33066">
        <ele>1308.4000244141</ele>
        <time>2013-02-23T09:05:29.000Z</time>
      </trkpt>
      <trkpt lat="46.02149" lon="6.33072">
        <ele>1309.8000488281</ele>
        <time>2013-02-23T09:05:36.000Z</time>
      </trkpt>
      <trkpt lat="46.02149" lon="6.33076">
        <ele>1310.4000244141</ele>
        <time>2013-02-23T09:05:40.000Z</time>
      </trkpt>
      <trkpt lat="46.02149" lon="6.33081">
        <ele>1310.4000244141</ele>
        <time>2013-02-23T09:05:45.000Z</time>
      </trkpt>
      <trkpt lat="46.02149" lon="6.33087">
        <ele>1311.1999511719</ele>
        <time>2013-02-23T09:05:51.000Z</time>
      </trkpt>
      <trkpt lat="46.02149" lon="6.33091">
        <ele>1312.1999511719</ele>
        <time>2013-02-23T09:05:55.000Z</time>
      </trkpt>
      <trkpt lat="46.02148" lon="6.33095">
        <ele>1312.1999511719</ele>
        <time>2013-02-23T09:05:59.000Z</time>
      </trkpt>
      <trkpt lat="46.02148" lon="6.33102">
        <ele>1313.5999755859</ele>
        <time>2013-02-23T09:06:06.000Z</time>
      </trkpt>
      <trkpt lat="46.02146" lon="6.33108">
        <ele>1313.5999755859</ele>
        <time>2013-02-23T09:06:12.000Z</time>
      </trkpt>
      <trkpt lat="46.02144" lon="6.33114">
        <ele>1314.1999511719</ele>
        <time>2013-02-23T09:06:17.000Z</time>
      </trkpt>
      <trkpt lat="46.02143" lon="6.33121">
        <ele>1313.5999755859</ele>
        <time>2013-02-23T09:06:23.000Z</time>
      </trkpt>
      <trkpt lat="46.02145" lon="6.33131">
        <ele>1314.1999511719</ele>
        <time>2013-02-23T09:06:32.000Z</time>
      </trkpt>
      <trkpt lat="46.02147" lon="6.33134">
        <ele>1317</ele>
        <time>2013-02-23T09:06:37.000Z</time>
      </trkpt>
      <trkpt lat="46.0215" lon="6.33137">
        <ele>1320</ele>
        <time>2013-02-23T09:06:41.000Z</time>
      </trkpt>
      <trkpt lat="46.02154" lon="6.3314">
        <ele>1321.4000244141</ele>
        <time>2013-02-23T09:06:47.000Z</time>
      </trkpt>
      <trkpt lat="46.02158" lon="6.33143">
        <ele>1321.4000244141</ele>
        <time>2013-02-23T09:06:51.000Z</time>
      </trkpt>
      <trkpt lat="46.02161" lon="6.33147">
        <ele>1320.8000488281</ele>
        <time>2013-02-23T09:06:55.000Z</time>
      </trkpt>
      <trkpt lat="46.02165" lon="6.33154">
        <ele>1320</ele>
        <time>2013-02-23T09:06:59.000Z</time>
      </trkpt>
      <trkpt lat="46.02169" lon="6.33164">
        <ele>1319</ele>
        <time>2013-02-23T09:07:05.000Z</time>
      </trkpt>
      <trkpt lat="46.0217" lon="6.3317">
        <ele>1319.4000244141</ele>
        <time>2013-02-23T09:07:11.000Z</time>
      </trkpt>
      <trkpt lat="46.02169" lon="6.33175">
        <ele>1320</ele>
        <time>2013-02-23T09:07:19.000Z</time>
      </trkpt>
      <trkpt lat="46.02171" lon="6.33182">
        <ele>1320</ele>
        <time>2013-02-23T09:07:25.000Z</time>
      </trkpt>
      <trkpt lat="46.02172" lon="6.33188">
        <ele>1320.4000244141</ele>
        <time>2013-02-23T09:07:29.000Z</time>
      </trkpt>
      <trkpt lat="46.02173" lon="6.33193">
        <ele>1321.4000244141</ele>
        <time>2013-02-23T09:07:33.000Z</time>
      </trkpt>
      <trkpt lat="46.02175" lon="6.33199">
        <ele>1322.8000488281</ele>
        <time>2013-02-23T09:07:38.000Z</time>
      </trkpt>
      <trkpt lat="46.02176" lon="6.33202">
        <ele>1323.8000488281</ele>
        <time>2013-02-23T09:07:41.000Z</time>
      </trkpt>
      <trkpt lat="46.02179" lon="6.33206">
        <ele>1325.5999755859</ele>
        <time>2013-02-23T09:07:47.000Z</time>
      </trkpt>
      <trkpt lat="46.0218" lon="6.33209">
        <ele>1325.5999755859</ele>
        <time>2013-02-23T09:07:51.000Z</time>
      </trkpt>
      <trkpt lat="46.02183" lon="6.33212">
        <ele>1326.1999511719</ele>
        <time>2013-02-23T09:07:55.000Z</time>
      </trkpt>
      <trkpt lat="46.02192" lon="6.3322">
        <ele>1329</ele>
        <time>2013-02-23T09:08:07.000Z</time>
      </trkpt>
      <trkpt lat="46.02194" lon="6.33221">
        <ele>1329.5999755859</ele>
        <time>2013-02-23T09:08:11.000Z</time>
      </trkpt>
      <trkpt lat="46.02198" lon="6.33224">
        <ele>1334.4000244141</ele>
        <time>2013-02-23T09:08:18.000Z</time>
      </trkpt>
      <trkpt lat="46.02202" lon="6.33227">
        <ele>1333.8000488281</ele>
        <time>2013-02-23T09:08:22.000Z</time>
      </trkpt>
      <trkpt lat="46.02206" lon="6.33233">
        <ele>1336.1999511719</ele>
        <time>2013-02-23T09:08:27.000Z</time>
      </trkpt>
      <trkpt lat="46.02209" lon="6.33236">
        <ele>1336.1999511719</ele>
        <time>2013-02-23T09:08:31.000Z</time>
      </trkpt>
      <trkpt lat="46.02213" lon="6.33242">
        <ele>1336.8000488281</ele>
        <time>2013-02-23T09:08:36.000Z</time>
      </trkpt>
      <trkpt lat="46.02215" lon="6.33246">
        <ele>1338.5999755859</ele>
        <time>2013-02-23T09:08:41.000Z</time>
      </trkpt>
      <trkpt lat="46.02217" lon="6.33251">
        <ele>1339.1999511719</ele>
        <time>2013-02-23T09:08:46.000Z</time>
      </trkpt>
      <trkpt lat="46.02216" lon="6.33259">
        <ele>1342</ele>
        <time>2013-02-23T09:08:55.000Z</time>
      </trkpt>
      <trkpt lat="46.02217" lon="6.33263">
        <ele>1342</ele>
        <time>2013-02-23T09:09:00.000Z</time>
      </trkpt>
      <trkpt lat="46.02218" lon="6.33266">
        <ele>1344</ele>
        <time>2013-02-23T09:09:04.000Z</time>
      </trkpt>
      <trkpt lat="46.02221" lon="6.33272">
        <ele>1342</ele>
        <time>2013-02-23T09:09:09.000Z</time>
      </trkpt>
      <trkpt lat="46.0222" lon="6.33278">
        <ele>1347.4000244141</ele>
        <time>2013-02-23T09:09:19.000Z</time>
      </trkpt>
      <trkpt lat="46.02221" lon="6.33285">
        <ele>1351.5999755859</ele>
        <time>2013-02-23T09:09:25.000Z</time>
      </trkpt>
      <trkpt lat="46.02223" lon="6.33289">
        <ele>1352.1999511719</ele>
        <time>2013-02-23T09:09:29.000Z</time>
      </trkpt>
      <trkpt lat="46.02224" lon="6.33296">
        <ele>1351.1999511719</ele>
        <time>2013-02-23T09:09:33.000Z</time>
      </trkpt>
      <trkpt lat="46.02225" lon="6.33299">
        <ele>1351.1999511719</ele>
        <time>2013-02-23T09:09:37.000Z</time>
      </trkpt>
      <trkpt lat="46.02225" lon="6.33301">
        <ele>1351.1999511719</ele>
        <time>2013-02-23T09:09:41.000Z</time>
      </trkpt>
      <trkpt lat="46.02224" lon="6.33306">
        <ele>1352.5999755859</ele>
        <time>2013-02-23T09:09:48.000Z</time>
      </trkpt>
      <trkpt lat="46.02224" lon="6.33309">
        <ele>1353.5999755859</ele>
        <time>2013-02-23T09:09:52.000Z</time>
      </trkpt>
      <trkpt lat="46.02223" lon="6.33312">
        <ele>1354.5999755859</ele>
        <time>2013-02-23T09:09:55.000Z</time>
      </trkpt>
      <trkpt lat="46.02224" lon="6.33317">
        <ele>1356.4000244141</ele>
        <time>2013-02-23T09:10:01.000Z</time>
      </trkpt>
      <trkpt lat="46.02226" lon="6.33321">
        <ele>1357.8000488281</ele>
        <time>2013-02-23T09:10:05.000Z</time>
      </trkpt>
      <trkpt lat="46.02226" lon="6.33326">
        <ele>1359.4000244141</ele>
        <time>2013-02-23T09:10:10.000Z</time>
      </trkpt>
      <trkpt lat="46.02226" lon="6.3333">
        <ele>1358.4000244141</ele>
        <time>2013-02-23T09:10:14.000Z</time>
      </trkpt>
      <trkpt lat="46.02226" lon="6.33334">
        <ele>1358.4000244141</ele>
        <time>2013-02-23T09:10:17.000Z</time>
      </trkpt>
      <trkpt lat="46.02225" lon="6.33337">
        <ele>1357.8000488281</ele>
        <time>2013-02-23T09:10:20.000Z</time>
      </trkpt>
      <trkpt lat="46.02222" lon="6.33339">
        <ele>1358.8000488281</ele>
        <time>2013-02-23T09:10:24.000Z</time>
      </trkpt>
      <trkpt lat="46.0222" lon="6.33337">
        <ele>1361.8000488281</ele>
        <time>2013-02-23T09:10:28.000Z</time>
      </trkpt>
      <trkpt lat="46.02219" lon="6.33337">
        <ele>1361.8000488281</ele>
        <time>2013-02-23T09:10:29.000Z</time>
      </trkpt>
      <trkpt lat="46.02214" lon="6.33336">
        <ele>1362.1999511719</ele>
        <time>2013-02-23T09:10:35.000Z</time>
      </trkpt>
      <trkpt lat="46.02211" lon="6.33334">
        <ele>1364.5999755859</ele>
        <time>2013-02-23T09:10:43.000Z</time>
      </trkpt>
      <trkpt lat="46.02205" lon="6.33335">
        <ele>1365.5999755859</ele>
        <time>2013-02-23T09:10:53.000Z</time>
      </trkpt>
      <trkpt lat="46.02203" lon="6.33336">
        <ele>1366.5999755859</ele>
        <time>2013-02-23T09:10:58.000Z</time>
      </trkpt>
      <trkpt lat="46.02201" lon="6.33336">
        <ele>1367.5999755859</ele>
        <time>2013-02-23T09:11:02.000Z</time>
      </trkpt>
      <trkpt lat="46.022" lon="6.33336">
        <ele>1368.4000244141</ele>
        <time>2013-02-23T09:11:08.000Z</time>
      </trkpt>
      <trkpt lat="46.02198" lon="6.33336">
        <ele>1369.4000244141</ele>
        <time>2013-02-23T09:11:13.000Z</time>
      </trkpt>
      <trkpt lat="46.02196" lon="6.33337">
        <ele>1370.8000488281</ele>
        <time>2013-02-23T09:11:20.000Z</time>
      </trkpt>
      <trkpt lat="46.02193" lon="6.33334">
        <ele>1370.8000488281</ele>
        <time>2013-02-23T09:11:24.000Z</time>
      </trkpt>
      <trkpt lat="46.02189" lon="6.33334">
        <ele>1372.4000244141</ele>
        <time>2013-02-23T09:11:33.000Z</time>
      </trkpt>
      <trkpt lat="46.02187" lon="6.33327">
        <ele>1388.5999755859</ele>
        <time>2013-02-23T09:12:08.000Z</time>
      </trkpt>
      <trkpt lat="46.02187" lon="6.33328">
        <ele>1389.1999511719</ele>
        <time>2013-02-23T09:12:19.000Z</time>
      </trkpt>
      <trkpt lat="46.02183" lon="6.33331">
        <ele>1387.1999511719</ele>
        <time>2013-02-23T09:12:29.000Z</time>
      </trkpt>
      <trkpt lat="46.02181" lon="6.33336">
        <ele>1387.1999511719</ele>
        <time>2013-02-23T09:12:35.000Z</time>
      </trkpt>
      <trkpt lat="46.02178" lon="6.33338">
        <ele>1386.1999511719</ele>
        <time>2013-02-23T09:12:40.000Z</time>
      </trkpt>
      <trkpt lat="46.02174" lon="6.33337">
        <ele>1387.8000488281</ele>
        <time>2013-02-23T09:12:45.000Z</time>
      </trkpt>
      <trkpt lat="46.02171" lon="6.33337">
        <ele>1386.8000488281</ele>
        <time>2013-02-23T09:12:51.000Z</time>
      </trkpt>
      <trkpt lat="46.02169" lon="6.33337">
        <ele>1385.8000488281</ele>
        <time>2013-02-23T09:12:55.000Z</time>
      </trkpt>
      <trkpt lat="46.02164" lon="6.33337">
        <ele>1386.1999511719</ele>
        <time>2013-02-23T09:13:03.000Z</time>
      </trkpt>
      <trkpt lat="46.0216" lon="6.33338">
        <ele>1387.1999511719</ele>
        <time>2013-02-23T09:13:07.000Z</time>
      </trkpt>
      <trkpt lat="46.02156" lon="6.33338">
        <ele>1388.5999755859</ele>
        <time>2013-02-23T09:13:11.000Z</time>
      </trkpt>
      <trkpt lat="46.02153" lon="6.33338">
        <ele>1387.8000488281</ele>
        <time>2013-02-23T09:13:15.000Z</time>
      </trkpt>
      <trkpt lat="46.0215" lon="6.3334">
        <ele>1389.1999511719</ele>
        <time>2013-02-23T09:13:19.000Z</time>
      </trkpt>
      <trkpt lat="46.02148" lon="6.33341">
        <ele>1390.5999755859</ele>
        <time>2013-02-23T09:13:23.000Z</time>
      </trkpt>
      <trkpt lat="46.02143" lon="6.3334">
        <ele>1392.5999755859</ele>
        <time>2013-02-23T09:13:29.000Z</time>
      </trkpt>
      <trkpt lat="46.0214" lon="6.3334">
        <ele>1393.4000244141</ele>
        <time>2013-02-23T09:13:33.000Z</time>
      </trkpt>
      <trkpt lat="46.02137" lon="6.33341">
        <ele>1395</ele>
        <time>2013-02-23T09:13:39.000Z</time>
      </trkpt>
      <trkpt lat="46.02135" lon="6.33341">
        <ele>1394.4000244141</ele>
        <time>2013-02-23T09:13:43.000Z</time>
      </trkpt>
      <trkpt lat="46.02133" lon="6.33342">
        <ele>1395</ele>
        <time>2013-02-23T09:13:46.000Z</time>
      </trkpt>
      <trkpt lat="46.0213" lon="6.33342">
        <ele>1395.8000488281</ele>
        <time>2013-02-23T09:13:51.000Z</time>
      </trkpt>
      <trkpt lat="46.02127" lon="6.33343">
        <ele>1396.8000488281</ele>
        <time>2013-02-23T09:13:55.000Z</time>
      </trkpt>
      <trkpt lat="46.02126" lon="6.33346">
        <ele>1398.1999511719</ele>
        <time>2013-02-23T09:14:02.000Z</time>
      </trkpt>
      <trkpt lat="46.02127" lon="6.33352">
        <ele>1399.8000488281</ele>
        <time>2013-02-23T09:14:11.000Z</time>
      </trkpt>
      <trkpt lat="46.02125" lon="6.33357">
        <ele>1400.1999511719</ele>
        <time>2013-02-23T09:14:19.000Z</time>
      </trkpt>
      <trkpt lat="46.02121" lon="6.3336">
        <ele>1400.5999755859</ele>
        <time>2013-02-23T09:14:26.000Z</time>
      </trkpt>
      <trkpt lat="46.02121" lon="6.33364">
        <ele>1400.1999511719</ele>
        <time>2013-02-23T09:14:31.000Z</time>
      </trkpt>
      <trkpt lat="46.02119" lon="6.33367">
        <ele>1398.8000488281</ele>
        <time>2013-02-23T09:14:35.000Z</time>
      </trkpt>
      <trkpt lat="46.02115" lon="6.33372">
        <ele>1399.1999511719</ele>
        <time>2013-02-23T09:14:42.000Z</time>
      </trkpt>
      <trkpt lat="46.02113" lon="6.33376">
        <ele>1400.1999511719</ele>
        <time>2013-02-23T09:14:47.000Z</time>
      </trkpt>
      <trkpt lat="46.02111" lon="6.3338">
        <ele>1399.8000488281</ele>
        <time>2013-02-23T09:14:53.000Z</time>
      </trkpt>
      <trkpt lat="46.02109" lon="6.33383">
        <ele>1399.8000488281</ele>
        <time>2013-02-23T09:14:57.000Z</time>
      </trkpt>
      <trkpt lat="46.02107" lon="6.33384">
        <ele>1400.5999755859</ele>
        <time>2013-02-23T09:15:01.000Z</time>
      </trkpt>
      <trkpt lat="46.02105" lon="6.33385">
        <ele>1402.5999755859</ele>
        <time>2013-02-23T09:15:06.000Z</time>
      </trkpt>
      <trkpt lat="46.02103" lon="6.33389">
        <ele>1402.1999511719</ele>
        <time>2013-02-23T09:15:10.000Z</time>
      </trkpt>
      <trkpt lat="46.02101" lon="6.33391">
        <ele>1402.5999755859</ele>
        <time>2013-02-23T09:15:14.000Z</time>
      </trkpt>
      <trkpt lat="46.02099" lon="6.33393">
        <ele>1404.5999755859</ele>
        <time>2013-02-23T09:15:18.000Z</time>
      </trkpt>
      <trkpt lat="46.02096" lon="6.33395">
        <ele>1406.4000244141</ele>
        <time>2013-02-23T09:15:23.000Z</time>
      </trkpt>
      <trkpt lat="46.02093" lon="6.33399">
        <ele>1407.8000488281</ele>
        <time>2013-02-23T09:15:29.000Z</time>
      </trkpt>
      <trkpt lat="46.0209" lon="6.33401">
        <ele>1410.1999511719</ele>
        <time>2013-02-23T09:15:34.000Z</time>
      </trkpt>
      <trkpt lat="46.02088" lon="6.33404">
        <ele>1411.8000488281</ele>
        <time>2013-02-23T09:15:37.000Z</time>
      </trkpt>
      <trkpt lat="46.02087" lon="6.33406">
        <ele>1411.1999511719</ele>
        <time>2013-02-23T09:15:42.000Z</time>
      </trkpt>
      <trkpt lat="46.02086" lon="6.33411">
        <ele>1411.8000488281</ele>
        <time>2013-02-23T09:15:48.000Z</time>
      </trkpt>
      <trkpt lat="46.02085" lon="6.33414">
        <ele>1412.5999755859</ele>
        <time>2013-02-23T09:15:52.000Z</time>
      </trkpt>
      <trkpt lat="46.02085" lon="6.33417">
        <ele>1415</ele>
        <time>2013-02-23T09:15:57.000Z</time>
      </trkpt>
      <trkpt lat="46.02087" lon="6.33422">
        <ele>1414.1999511719</ele>
        <time>2013-02-23T09:16:01.000Z</time>
      </trkpt>
      <trkpt lat="46.02089" lon="6.33428">
        <ele>1413.1999511719</ele>
        <time>2013-02-23T09:16:07.000Z</time>
      </trkpt>
      <trkpt lat="46.02091" lon="6.33432">
        <ele>1413.5999755859</ele>
        <time>2013-02-23T09:16:13.000Z</time>
      </trkpt>
      <trkpt lat="46.02092" lon="6.33435">
        <ele>1414.1999511719</ele>
        <time>2013-02-23T09:16:17.000Z</time>
      </trkpt>
      <trkpt lat="46.02096" lon="6.33441">
        <ele>1415</ele>
        <time>2013-02-23T09:16:23.000Z</time>
      </trkpt>
      <trkpt lat="46.02097" lon="6.33443">
        <ele>1415</ele>
        <time>2013-02-23T09:16:24.000Z</time>
      </trkpt>
      <trkpt lat="46.02098" lon="6.33448">
        <ele>1416</ele>
        <time>2013-02-23T09:16:29.000Z</time>
      </trkpt>
      <trkpt lat="46.021" lon="6.33452">
        <ele>1417.5999755859</ele>
        <time>2013-02-23T09:16:35.000Z</time>
      </trkpt>
      <trkpt lat="46.02103" lon="6.33458">
        <ele>1418</ele>
        <time>2013-02-23T09:16:42.000Z</time>
      </trkpt>
      <trkpt lat="46.02105" lon="6.33464">
        <ele>1418.4000244141</ele>
        <time>2013-02-23T09:16:47.000Z</time>
      </trkpt>
      <trkpt lat="46.02104" lon="6.3347">
        <ele>1419.4000244141</ele>
        <time>2013-02-23T09:16:54.000Z</time>
      </trkpt>
      <trkpt lat="46.02104" lon="6.33474">
        <ele>1420</ele>
        <time>2013-02-23T09:16:59.000Z</time>
      </trkpt>
      <trkpt lat="46.02102" lon="6.33477">
        <ele>1421.4000244141</ele>
        <time>2013-02-23T09:17:05.000Z</time>
      </trkpt>
      <trkpt lat="46.02101" lon="6.33482">
        <ele>1422.8000488281</ele>
        <time>2013-02-23T09:17:10.000Z</time>
      </trkpt>
      <trkpt lat="46.02101" lon="6.33487">
        <ele>1423.8000488281</ele>
        <time>2013-02-23T09:17:15.000Z</time>
      </trkpt>
      <trkpt lat="46.02102" lon="6.3349">
        <ele>1424.1999511719</ele>
        <time>2013-02-23T09:17:20.000Z</time>
      </trkpt>
      <trkpt lat="46.02104" lon="6.33496">
        <ele>1425.5999755859</ele>
        <time>2013-02-23T09:17:26.000Z</time>
      </trkpt>
      <trkpt lat="46.02106" lon="6.33503">
        <ele>1426.1999511719</ele>
        <time>2013-02-23T09:17:32.000Z</time>
      </trkpt>
      <trkpt lat="46.02105" lon="6.33507">
        <ele>1426.5999755859</ele>
        <time>2013-02-23T09:17:37.000Z</time>
      </trkpt>
      <trkpt lat="46.02105" lon="6.3351">
        <ele>1427.5999755859</ele>
        <time>2013-02-23T09:17:44.000Z</time>
      </trkpt>
      <trkpt lat="46.02104" lon="6.33512">
        <ele>1428</ele>
        <time>2013-02-23T09:17:47.000Z</time>
      </trkpt>
      <trkpt lat="46.02105" lon="6.33516">
        <ele>1428.5999755859</ele>
        <time>2013-02-23T09:17:51.000Z</time>
      </trkpt>
      <trkpt lat="46.02105" lon="6.33519">
        <ele>1428.5999755859</ele>
        <time>2013-02-23T09:17:55.000Z</time>
      </trkpt>
      <trkpt lat="46.02104" lon="6.33522">
        <ele>1429</ele>
        <time>2013-02-23T09:17:59.000Z</time>
      </trkpt>
      <trkpt lat="46.02105" lon="6.33527">
        <ele>1429.5999755859</ele>
        <time>2013-02-23T09:18:04.000Z</time>
      </trkpt>
      <trkpt lat="46.02107" lon="6.33532">
        <ele>1430</ele>
        <time>2013-02-23T09:18:09.000Z</time>
      </trkpt>
      <trkpt lat="46.02107" lon="6.33536">
        <ele>1431.4000244141</ele>
        <time>2013-02-23T09:18:14.000Z</time>
      </trkpt>
      <trkpt lat="46.02108" lon="6.3354">
        <ele>1432.8000488281</ele>
        <time>2013-02-23T09:18:19.000Z</time>
      </trkpt>
      <trkpt lat="46.02108" lon="6.33543">
        <ele>1433.8000488281</ele>
        <time>2013-02-23T09:18:22.000Z</time>
      </trkpt>
      <trkpt lat="46.02108" lon="6.33545">
        <ele>1435.1999511719</ele>
        <time>2013-02-23T09:18:26.000Z</time>
      </trkpt>
      <trkpt lat="46.02109" lon="6.33548">
        <ele>1435.1999511719</ele>
        <time>2013-02-23T09:18:32.000Z</time>
      </trkpt>
      <trkpt lat="46.02109" lon="6.33553">
        <ele>1436.8000488281</ele>
        <time>2013-02-23T09:18:38.000Z</time>
      </trkpt>
      <trkpt lat="46.02107" lon="6.33555">
        <ele>1437.5999755859</ele>
        <time>2013-02-23T09:18:42.000Z</time>
      </trkpt>
      <trkpt lat="46.02104" lon="6.33556">
        <ele>1438.5999755859</ele>
        <time>2013-02-23T09:18:46.000Z</time>
      </trkpt>
      <trkpt lat="46.02102" lon="6.33558">
        <ele>1440.5999755859</ele>
        <time>2013-02-23T09:18:51.000Z</time>
      </trkpt>
      <trkpt lat="46.021" lon="6.33558">
        <ele>1441.5999755859</ele>
        <time>2013-02-23T09:18:55.000Z</time>
      </trkpt>
      <trkpt lat="46.02097" lon="6.33557">
        <ele>1442</ele>
        <time>2013-02-23T09:18:59.000Z</time>
      </trkpt>
      <trkpt lat="46.02095" lon="6.33558">
        <ele>1444</ele>
        <time>2013-02-23T09:19:08.000Z</time>
      </trkpt>
      <trkpt lat="46.02093" lon="6.33557">
        <ele>1444.4000244141</ele>
        <time>2013-02-23T09:19:14.000Z</time>
      </trkpt>
      <trkpt lat="46.0209" lon="6.33556">
        <ele>1445.4000244141</ele>
        <time>2013-02-23T09:19:19.000Z</time>
      </trkpt>
      <trkpt lat="46.02088" lon="6.33555">
        <ele>1446.4000244141</ele>
        <time>2013-02-23T09:19:24.000Z</time>
      </trkpt>
      <trkpt lat="46.02086" lon="6.33555">
        <ele>1447.4000244141</ele>
        <time>2013-02-23T09:19:29.000Z</time>
      </trkpt>
      <trkpt lat="46.02084" lon="6.33554">
        <ele>1447.8000488281</ele>
        <time>2013-02-23T09:19:34.000Z</time>
      </trkpt>
      <trkpt lat="46.02081" lon="6.33553">
        <ele>1448.8000488281</ele>
        <time>2013-02-23T09:19:39.000Z</time>
      </trkpt>
      <trkpt lat="46.02079" lon="6.33551">
        <ele>1449.8000488281</ele>
        <time>2013-02-23T09:19:43.000Z</time>
      </trkpt>
      <trkpt lat="46.02077" lon="6.33551">
        <ele>1451.1999511719</ele>
        <time>2013-02-23T09:19:47.000Z</time>
      </trkpt>
      <trkpt lat="46.02073" lon="6.33548">
        <ele>1452.5999755859</ele>
        <time>2013-02-23T09:19:53.000Z</time>
      </trkpt>
      <trkpt lat="46.02069" lon="6.33545">
        <ele>1453</ele>
        <time>2013-02-23T09:19:57.000Z</time>
      </trkpt>
      <trkpt lat="46.02066" lon="6.33543">
        <ele>1454</ele>
        <time>2013-02-23T09:20:02.000Z</time>
      </trkpt>
      <trkpt lat="46.02062" lon="6.33541">
        <ele>1455</ele>
        <time>2013-02-23T09:20:08.000Z</time>
      </trkpt>
      <trkpt lat="46.02061" lon="6.3354">
        <ele>1457.4000244141</ele>
        <time>2013-02-23T09:20:15.000Z</time>
      </trkpt>
      <trkpt lat="46.02063" lon="6.33545">
        <ele>1457.8000488281</ele>
        <time>2013-02-23T09:20:22.000Z</time>
      </trkpt>
      <trkpt lat="46.02066" lon="6.3355">
        <ele>1458.4000244141</ele>
        <time>2013-02-23T09:20:28.000Z</time>
      </trkpt>
      <trkpt lat="46.02067" lon="6.33554">
        <ele>1458.8000488281</ele>
        <time>2013-02-23T09:20:33.000Z</time>
      </trkpt>
      <trkpt lat="46.02068" lon="6.33557">
        <ele>1459.8000488281</ele>
        <time>2013-02-23T09:20:40.000Z</time>
      </trkpt>
      <trkpt lat="46.02068" lon="6.33556">
        <ele>1460.1999511719</ele>
        <time>2013-02-23T09:20:47.000Z</time>
      </trkpt>
      <trkpt lat="46.02068" lon="6.33555">
        <ele>1461.1999511719</ele>
        <time>2013-02-23T09:21:00.000Z</time>
      </trkpt>
      <trkpt lat="46.02068" lon="6.33554">
        <ele>1461.1999511719</ele>
        <time>2013-02-23T09:21:28.000Z</time>
      </trkpt>
      <trkpt lat="46.02068" lon="6.33555">
        <ele>1460.8000488281</ele>
        <time>2013-02-23T09:21:37.000Z</time>
      </trkpt>
      <trkpt lat="46.02068" lon="6.33555">
        <ele>1459.4000244141</ele>
        <time>2013-02-23T09:21:48.000Z</time>
      </trkpt>
      <trkpt lat="46.02067" lon="6.33556">
        <ele>1458.8000488281</ele>
        <time>2013-02-23T09:22:31.000Z</time>
      </trkpt>
      <trkpt lat="46.02068" lon="6.33557">
        <ele>1459.4000244141</ele>
        <time>2013-02-23T09:22:39.000Z</time>
      </trkpt>
      <trkpt lat="46.02068" lon="6.33557">
        <ele>1458.8000488281</ele>
        <time>2013-02-23T09:22:45.000Z</time>
      </trkpt>
      <trkpt lat="46.02068" lon="6.33556">
        <ele>1460.8000488281</ele>
        <time>2013-02-23T09:22:57.000Z</time>
      </trkpt>
      <trkpt lat="46.02068" lon="6.33555">
        <ele>1460.8000488281</ele>
        <time>2013-02-23T09:23:07.000Z</time>
      </trkpt>
      <trkpt lat="46.02069" lon="6.33555">
        <ele>1459.8000488281</ele>
        <time>2013-02-23T09:23:20.000Z</time>
      </trkpt>
      <trkpt lat="46.02069" lon="6.33556">
        <ele>1457.8000488281</ele>
        <time>2013-02-23T09:23:37.000Z</time>
      </trkpt>
      <trkpt lat="46.0207" lon="6.33556">
        <ele>1459.4000244141</ele>
        <time>2013-02-23T09:23:50.000Z</time>
      </trkpt>
      <trkpt lat="46.02069" lon="6.33557">
        <ele>1459.4000244141</ele>
        <time>2013-02-23T09:24:05.000Z</time>
      </trkpt>
      <trkpt lat="46.02071" lon="6.33556">
        <ele>1460.1999511719</ele>
        <time>2013-02-23T09:24:17.000Z</time>
      </trkpt>
      <trkpt lat="46.02071" lon="6.33557">
        <ele>1460.1999511719</ele>
        <time>2013-02-23T09:24:26.000Z</time>
      </trkpt>
      <trkpt lat="46.02072" lon="6.33561">
        <ele>1460.1999511719</ele>
        <time>2013-02-23T09:24:31.000Z</time>
      </trkpt>
      <trkpt lat="46.02072" lon="6.33564">
        <ele>1460.1999511719</ele>
        <time>2013-02-23T09:24:35.000Z</time>
      </trkpt>
      <trkpt lat="46.02073" lon="6.33569">
        <ele>1461.1999511719</ele>
        <time>2013-02-23T09:24:41.000Z</time>
      </trkpt>
      <trkpt lat="46.02074" lon="6.33575">
        <ele>1462.1999511719</ele>
        <time>2013-02-23T09:24:48.000Z</time>
      </trkpt>
      <trkpt lat="46.02075" lon="6.3358">
        <ele>1462.5999755859</ele>
        <time>2013-02-23T09:24:53.000Z</time>
      </trkpt>
      <trkpt lat="46.02075" lon="6.33583">
        <ele>1463.1999511719</ele>
        <time>2013-02-23T09:24:56.000Z</time>
      </trkpt>
      <trkpt lat="46.02076" lon="6.33587">
        <ele>1463.5999755859</ele>
        <time>2013-02-23T09:25:00.000Z</time>
      </trkpt>
      <trkpt lat="46.02078" lon="6.33591">
        <ele>1464.5999755859</ele>
        <time>2013-02-23T09:25:05.000Z</time>
      </trkpt>
      <trkpt lat="46.02077" lon="6.33594">
        <ele>1466</ele>
        <time>2013-02-23T09:25:11.000Z</time>
      </trkpt>
      <trkpt lat="46.02075" lon="6.33591">
        <ele>1466.5999755859</ele>
        <time>2013-02-23T09:25:17.000Z</time>
      </trkpt>
      <trkpt lat="46.02072" lon="6.33588">
        <ele>1467.4000244141</ele>
        <time>2013-02-23T09:25:21.000Z</time>
      </trkpt>
      <trkpt lat="46.02068" lon="6.33584">
        <ele>1467</ele>
        <time>2013-02-23T09:25:27.000Z</time>
      </trkpt>
      <trkpt lat="46.02064" lon="6.33581">
        <ele>1468</ele>
        <time>2013-02-23T09:25:33.000Z</time>
      </trkpt>
      <trkpt lat="46.0206" lon="6.3358">
        <ele>1469.4000244141</ele>
        <time>2013-02-23T09:25:40.000Z</time>
      </trkpt>
      <trkpt lat="46.02057" lon="6.33578">
        <ele>1469.8000488281</ele>
        <time>2013-02-23T09:25:45.000Z</time>
      </trkpt>
      <trkpt lat="46.02053" lon="6.33574">
        <ele>1471.8000488281</ele>
        <time>2013-02-23T09:25:52.000Z</time>
      </trkpt>
      <trkpt lat="46.02048" lon="6.33572">
        <ele>1472.8000488281</ele>
        <time>2013-02-23T09:26:00.000Z</time>
      </trkpt>
      <trkpt lat="46.02045" lon="6.33571">
        <ele>1473.1999511719</ele>
        <time>2013-02-23T09:26:05.000Z</time>
      </trkpt>
      <trkpt lat="46.0204" lon="6.33569">
        <ele>1474.1999511719</ele>
        <time>2013-02-23T09:26:12.000Z</time>
      </trkpt>
      <trkpt lat="46.02037" lon="6.33567">
        <ele>1475.1999511719</ele>
        <time>2013-02-23T09:26:18.000Z</time>
      </trkpt>
      <trkpt lat="46.02033" lon="6.33564">
        <ele>1475.5999755859</ele>
        <time>2013-02-23T09:26:24.000Z</time>
      </trkpt>
      <trkpt lat="46.02032" lon="6.33564">
        <ele>1478.5999755859</ele>
        <time>2013-02-23T09:26:30.000Z</time>
      </trkpt>
      <trkpt lat="46.02032" lon="6.33566">
        <ele>1479</ele>
        <time>2013-02-23T09:26:36.000Z</time>
      </trkpt>
      <trkpt lat="46.02033" lon="6.33568">
        <ele>1480</ele>
        <time>2013-02-23T09:26:41.000Z</time>
      </trkpt>
      <trkpt lat="46.02034" lon="6.33571">
        <ele>1481</ele>
        <time>2013-02-23T09:26:46.000Z</time>
      </trkpt>
      <trkpt lat="46.02036" lon="6.33577">
        <ele>1482</ele>
        <time>2013-02-23T09:26:52.000Z</time>
      </trkpt>
      <trkpt lat="46.02038" lon="6.33583">
        <ele>1483.8000488281</ele>
        <time>2013-02-23T09:26:59.000Z</time>
      </trkpt>
      <trkpt lat="46.02039" lon="6.33587">
        <ele>1484.4000244141</ele>
        <time>2013-02-23T09:27:05.000Z</time>
      </trkpt>
      <trkpt lat="46.02037" lon="6.33586">
        <ele>1485.1999511719</ele>
        <time>2013-02-23T09:27:09.000Z</time>
      </trkpt>
      <trkpt lat="46.02035" lon="6.33586">
        <ele>1485.8000488281</ele>
        <time>2013-02-23T09:27:15.000Z</time>
      </trkpt>
      <trkpt lat="46.02033" lon="6.33584">
        <ele>1487.5999755859</ele>
        <time>2013-02-23T09:27:21.000Z</time>
      </trkpt>
      <trkpt lat="46.02031" lon="6.33582">
        <ele>1489.1999511719</ele>
        <time>2013-02-23T09:27:26.000Z</time>
      </trkpt>
      <trkpt lat="46.02028" lon="6.3358">
        <ele>1490.5999755859</ele>
        <time>2013-02-23T09:27:32.000Z</time>
      </trkpt>
      <trkpt lat="46.02026" lon="6.33578">
        <ele>1490.5999755859</ele>
        <time>2013-02-23T09:27:36.000Z</time>
      </trkpt>
      <trkpt lat="46.02024" lon="6.33579">
        <ele>1490.5999755859</ele>
        <time>2013-02-23T09:27:40.000Z</time>
      </trkpt>
      <trkpt lat="46.02022" lon="6.3358">
        <ele>1491</ele>
        <time>2013-02-23T09:27:45.000Z</time>
      </trkpt>
      <trkpt lat="46.02021" lon="6.33579">
        <ele>1491</ele>
        <time>2013-02-23T09:27:49.000Z</time>
      </trkpt>
      <trkpt lat="46.02019" lon="6.33578">
        <ele>1492.4000244141</ele>
        <time>2013-02-23T09:27:54.000Z</time>
      </trkpt>
      <trkpt lat="46.02017" lon="6.33577">
        <ele>1492.4000244141</ele>
        <time>2013-02-23T09:27:58.000Z</time>
      </trkpt>
      <trkpt lat="46.02015" lon="6.33577">
        <ele>1494.8000488281</ele>
        <time>2013-02-23T09:28:04.000Z</time>
      </trkpt>
      <trkpt lat="46.02013" lon="6.33577">
        <ele>1495.8000488281</ele>
        <time>2013-02-23T09:28:08.000Z</time>
      </trkpt>
      <trkpt lat="46.0201" lon="6.33575">
        <ele>1496.4000244141</ele>
        <time>2013-02-23T09:28:16.000Z</time>
      </trkpt>
      <trkpt lat="46.02008" lon="6.33573">
        <ele>1497.1999511719</ele>
        <time>2013-02-23T09:28:24.000Z</time>
      </trkpt>
      <trkpt lat="46.02006" lon="6.33571">
        <ele>1499.1999511719</ele>
        <time>2013-02-23T09:28:30.000Z</time>
      </trkpt>
      <trkpt lat="46.02005" lon="6.33571">
        <ele>1499.5999755859</ele>
        <time>2013-02-23T09:28:36.000Z</time>
      </trkpt>
      <trkpt lat="46.02001" lon="6.33571">
        <ele>1500.5999755859</ele>
        <time>2013-02-23T09:28:44.000Z</time>
      </trkpt>
      <trkpt lat="46.01999" lon="6.33571">
        <ele>1500.5999755859</ele>
        <time>2013-02-23T09:28:49.000Z</time>
      </trkpt>
      <trkpt lat="46.01998" lon="6.33569">
        <ele>1504</ele>
        <time>2013-02-23T09:28:53.000Z</time>
      </trkpt>
      <trkpt lat="46.01996" lon="6.33567">
        <ele>1507</ele>
        <time>2013-02-23T09:28:58.000Z</time>
      </trkpt>
      <trkpt lat="46.01995" lon="6.33565">
        <ele>1507.4000244141</ele>
        <time>2013-02-23T09:29:02.000Z</time>
      </trkpt>
      <trkpt lat="46.01993" lon="6.33563">
        <ele>1507.8000488281</ele>
        <time>2013-02-23T09:29:07.000Z</time>
      </trkpt>
      <trkpt lat="46.0199" lon="6.3356">
        <ele>1507</ele>
        <time>2013-02-23T09:29:12.000Z</time>
      </trkpt>
      <trkpt lat="46.01988" lon="6.33558">
        <ele>1506.4000244141</ele>
        <time>2013-02-23T09:29:18.000Z</time>
      </trkpt>
      <trkpt lat="46.01985" lon="6.33554">
        <ele>1507.4000244141</ele>
        <time>2013-02-23T09:29:22.000Z</time>
      </trkpt>
      <trkpt lat="46.01985" lon="6.33557">
        <ele>1507.4000244141</ele>
        <time>2013-02-23T09:29:29.000Z</time>
      </trkpt>
      <trkpt lat="46.01984" lon="6.33561">
        <ele>1507.8000488281</ele>
        <time>2013-02-23T09:29:35.000Z</time>
      </trkpt>
      <trkpt lat="46.01984" lon="6.33564">
        <ele>1507.8000488281</ele>
        <time>2013-02-23T09:29:40.000Z</time>
      </trkpt>
      <trkpt lat="46.01985" lon="6.33568">
        <ele>1508.4000244141</ele>
        <time>2013-02-23T09:29:45.000Z</time>
      </trkpt>
      <trkpt lat="46.01986" lon="6.33573">
        <ele>1509.8000488281</ele>
        <time>2013-02-23T09:29:51.000Z</time>
      </trkpt>
      <trkpt lat="46.01989" lon="6.33578">
        <ele>1511.1999511719</ele>
        <time>2013-02-23T09:29:57.000Z</time>
      </trkpt>
      <trkpt lat="46.01991" lon="6.33583">
        <ele>1513.1999511719</ele>
        <time>2013-02-23T09:30:03.000Z</time>
      </trkpt>
      <trkpt lat="46.01992" lon="6.33586">
        <ele>1514.5999755859</ele>
        <time>2013-02-23T09:30:08.000Z</time>
      </trkpt>
      <trkpt lat="46.01993" lon="6.33588">
        <ele>1515.5999755859</ele>
        <time>2013-02-23T09:30:12.000Z</time>
      </trkpt>
      <trkpt lat="46.01993" lon="6.33591">
        <ele>1516.5999755859</ele>
        <time>2013-02-23T09:30:17.000Z</time>
      </trkpt>
      <trkpt lat="46.01994" lon="6.33595">
        <ele>1516.5999755859</ele>
        <time>2013-02-23T09:30:21.000Z</time>
      </trkpt>
      <trkpt lat="46.01996" lon="6.33598">
        <ele>1516.5999755859</ele>
        <time>2013-02-23T09:30:26.000Z</time>
      </trkpt>
      <trkpt lat="46.01998" lon="6.33603">
        <ele>1518</ele>
        <time>2013-02-23T09:30:35.000Z</time>
      </trkpt>
      <trkpt lat="46.01999" lon="6.33606">
        <ele>1519</ele>
        <time>2013-02-23T09:30:39.000Z</time>
      </trkpt>
      <trkpt lat="46.02" lon="6.3361">
        <ele>1519.8000488281</ele>
        <time>2013-02-23T09:30:45.000Z</time>
      </trkpt>
      <trkpt lat="46.01999" lon="6.3361">
        <ele>1520.8000488281</ele>
        <time>2013-02-23T09:30:49.000Z</time>
      </trkpt>
      <trkpt lat="46.01997" lon="6.3361">
        <ele>1522.1999511719</ele>
        <time>2013-02-23T09:30:55.000Z</time>
      </trkpt>
      <trkpt lat="46.01996" lon="6.33609">
        <ele>1522.8000488281</ele>
        <time>2013-02-23T09:31:00.000Z</time>
      </trkpt>
      <trkpt lat="46.01994" lon="6.33608">
        <ele>1524.1999511719</ele>
        <time>2013-02-23T09:31:06.000Z</time>
      </trkpt>
      <trkpt lat="46.01992" lon="6.33607">
        <ele>1524.1999511719</ele>
        <time>2013-02-23T09:31:11.000Z</time>
      </trkpt>
      <trkpt lat="46.01989" lon="6.33603">
        <ele>1523.8000488281</ele>
        <time>2013-02-23T09:31:18.000Z</time>
      </trkpt>
      <trkpt lat="46.01984" lon="6.33601">
        <ele>1522.1999511719</ele>
        <time>2013-02-23T09:31:25.000Z</time>
      </trkpt>
      <trkpt lat="46.01981" lon="6.33598">
        <ele>1522.1999511719</ele>
        <time>2013-02-23T09:31:31.000Z</time>
      </trkpt>
      <trkpt lat="46.01978" lon="6.33597">
        <ele>1522.1999511719</ele>
        <time>2013-02-23T09:31:36.000Z</time>
      </trkpt>
      <trkpt lat="46.01976" lon="6.33595">
        <ele>1523.1999511719</ele>
        <time>2013-02-23T09:31:41.000Z</time>
      </trkpt>
      <trkpt lat="46.01974" lon="6.33594">
        <ele>1525.5999755859</ele>
        <time>2013-02-23T09:31:50.000Z</time>
      </trkpt>
      <trkpt lat="46.01971" lon="6.33594">
        <ele>1526.5999755859</ele>
        <time>2013-02-23T09:31:57.000Z</time>
      </trkpt>
      <trkpt lat="46.0197" lon="6.33594">
        <ele>1527</ele>
        <time>2013-02-23T09:32:02.000Z</time>
      </trkpt>
      <trkpt lat="46.01968" lon="6.33593">
        <ele>1528</ele>
        <time>2013-02-23T09:32:06.000Z</time>
      </trkpt>
      <trkpt lat="46.01966" lon="6.33592">
        <ele>1530.4000244141</ele>
        <time>2013-02-23T09:32:10.000Z</time>
      </trkpt>
      <trkpt lat="46.01965" lon="6.33592">
        <ele>1531</ele>
        <time>2013-02-23T09:32:16.000Z</time>
      </trkpt>
      <trkpt lat="46.01965" lon="6.33593">
        <ele>1532.4000244141</ele>
        <time>2013-02-23T09:32:29.000Z</time>
      </trkpt>
      <trkpt lat="46.01965" lon="6.33593">
        <ele>1532.4000244141</ele>
        <time>2013-02-23T09:32:36.000Z</time>
      </trkpt>
      <trkpt lat="46.01963" lon="6.33592">
        <ele>1532.4000244141</ele>
        <time>2013-02-23T09:32:40.000Z</time>
      </trkpt>
      <trkpt lat="46.01962" lon="6.33594">
        <ele>1532.4000244141</ele>
        <time>2013-02-23T09:32:48.000Z</time>
      </trkpt>
      <trkpt lat="46.01963" lon="6.33597">
        <ele>1534.4000244141</ele>
        <time>2013-02-23T09:33:01.000Z</time>
      </trkpt>
      <trkpt lat="46.01963" lon="6.33599">
        <ele>1534.8000488281</ele>
        <time>2013-02-23T09:33:08.000Z</time>
      </trkpt>
      <trkpt lat="46.01962" lon="6.33599">
        <ele>1536.1999511719</ele>
        <time>2013-02-23T09:33:16.000Z</time>
      </trkpt>
      <trkpt lat="46.0196" lon="6.33598">
        <ele>1536.8000488281</ele>
        <time>2013-02-23T09:33:23.000Z</time>
      </trkpt>
      <trkpt lat="46.01958" lon="6.33599">
        <ele>1538.5999755859</ele>
        <time>2013-02-23T09:33:39.000Z</time>
      </trkpt>
      <trkpt lat="46.01955" lon="6.33598">
        <ele>1538.5999755859</ele>
        <time>2013-02-23T09:33:44.000Z</time>
      </trkpt>
      <trkpt lat="46.01953" lon="6.33598">
        <ele>1538.5999755859</ele>
        <time>2013-02-23T09:33:50.000Z</time>
      </trkpt>
      <trkpt lat="46.0195" lon="6.33598">
        <ele>1539.1999511719</ele>
        <time>2013-02-23T09:33:55.000Z</time>
      </trkpt>
      <trkpt lat="46.01947" lon="6.33599">
        <ele>1538.5999755859</ele>
        <time>2013-02-23T09:34:00.000Z</time>
      </trkpt>
      <trkpt lat="46.01944" lon="6.33598">
        <ele>1539.5999755859</ele>
        <time>2013-02-23T09:34:06.000Z</time>
      </trkpt>
      <trkpt lat="46.01938" lon="6.33595">
        <ele>1542.4000244141</ele>
        <time>2013-02-23T09:34:14.000Z</time>
      </trkpt>
      <trkpt lat="46.01935" lon="6.33593">
        <ele>1544.8000488281</ele>
        <time>2013-02-23T09:34:20.000Z</time>
      </trkpt>
      <trkpt lat="46.01931" lon="6.33591">
        <ele>1545.4000244141</ele>
        <time>2013-02-23T09:34:25.000Z</time>
      </trkpt>
      <trkpt lat="46.01928" lon="6.33591">
        <ele>1546.4000244141</ele>
        <time>2013-02-23T09:34:30.000Z</time>
      </trkpt>
      <trkpt lat="46.01925" lon="6.33592">
        <ele>1545.4000244141</ele>
        <time>2013-02-23T09:34:33.000Z</time>
      </trkpt>
      <trkpt lat="46.01921" lon="6.33591">
        <ele>1546.4000244141</ele>
        <time>2013-02-23T09:34:39.000Z</time>
      </trkpt>
      <trkpt lat="46.01918" lon="6.33591">
        <ele>1547.8000488281</ele>
        <time>2013-02-23T09:34:43.000Z</time>
      </trkpt>
      <trkpt lat="46.01916" lon="6.33589">
        <ele>1548.8000488281</ele>
        <time>2013-02-23T09:34:46.000Z</time>
      </trkpt>
      <trkpt lat="46.01914" lon="6.33589">
        <ele>1549.1999511719</ele>
        <time>2013-02-23T09:34:50.000Z</time>
      </trkpt>
      <trkpt lat="46.01911" lon="6.33588">
        <ele>1551.5999755859</ele>
        <time>2013-02-23T09:34:56.000Z</time>
      </trkpt>
      <trkpt lat="46.0191" lon="6.33589">
        <ele>1552.5999755859</ele>
        <time>2013-02-23T09:35:01.000Z</time>
      </trkpt>
      <trkpt lat="46.01912" lon="6.33593">
        <ele>1553.5999755859</ele>
        <time>2013-02-23T09:35:06.000Z</time>
      </trkpt>
      <trkpt lat="46.01914" lon="6.33598">
        <ele>1554</ele>
        <time>2013-02-23T09:35:11.000Z</time>
      </trkpt>
      <trkpt lat="46.01916" lon="6.33602">
        <ele>1554</ele>
        <time>2013-02-23T09:35:15.000Z</time>
      </trkpt>
      <trkpt lat="46.01913" lon="6.33601">
        <ele>1555</ele>
        <time>2013-02-23T09:35:20.000Z</time>
      </trkpt>
      <trkpt lat="46.01911" lon="6.33603">
        <ele>1555</ele>
        <time>2013-02-23T09:35:24.000Z</time>
      </trkpt>
      <trkpt lat="46.01908" lon="6.33603">
        <ele>1558.8000488281</ele>
        <time>2013-02-23T09:35:28.000Z</time>
      </trkpt>
      <trkpt lat="46.01906" lon="6.33603">
        <ele>1560.8000488281</ele>
        <time>2013-02-23T09:35:32.000Z</time>
      </trkpt>
      <trkpt lat="46.01903" lon="6.33603">
        <ele>1562.5999755859</ele>
        <time>2013-02-23T09:35:38.000Z</time>
      </trkpt>
      <trkpt lat="46.01902" lon="6.33604">
        <ele>1563.1999511719</ele>
        <time>2013-02-23T09:35:43.000Z</time>
      </trkpt>
      <trkpt lat="46.01899" lon="6.33602">
        <ele>1564.5999755859</ele>
        <time>2013-02-23T09:35:48.000Z</time>
      </trkpt>
      <trkpt lat="46.01898" lon="6.33603">
        <ele>1565.5999755859</ele>
        <time>2013-02-23T09:35:52.000Z</time>
      </trkpt>
      <trkpt lat="46.01896" lon="6.33606">
        <ele>1565</ele>
        <time>2013-02-23T09:35:56.000Z</time>
      </trkpt>
      <trkpt lat="46.01896" lon="6.33606">
        <ele>1566</ele>
        <time>2013-02-23T09:36:03.000Z</time>
      </trkpt>
      <trkpt lat="46.01895" lon="6.33606">
        <ele>1565</ele>
        <time>2013-02-23T09:36:10.000Z</time>
      </trkpt>
      <trkpt lat="46.01894" lon="6.33604">
        <ele>1565.5999755859</ele>
        <time>2013-02-23T09:36:21.000Z</time>
      </trkpt>
      <trkpt lat="46.01894" lon="6.33606">
        <ele>1566</ele>
        <time>2013-02-23T09:36:27.000Z</time>
      </trkpt>
      <trkpt lat="46.01892" lon="6.33607">
        <ele>1567</ele>
        <time>2013-02-23T09:36:31.000Z</time>
      </trkpt>
      <trkpt lat="46.0189" lon="6.33608">
        <ele>1568</ele>
        <time>2013-02-23T09:36:33.000Z</time>
      </trkpt>
      <trkpt lat="46.01888" lon="6.33608">
        <ele>1570.4000244141</ele>
        <time>2013-02-23T09:36:38.000Z</time>
      </trkpt>
      <trkpt lat="46.01888" lon="6.33608">
        <ele>1571.4000244141</ele>
        <time>2013-02-23T09:36:43.000Z</time>
      </trkpt>
      <trkpt lat="46.01887" lon="6.33608">
        <ele>1571.8000488281</ele>
        <time>2013-02-23T09:36:48.000Z</time>
      </trkpt>
      <trkpt lat="46.01886" lon="6.33608">
        <ele>1572.8000488281</ele>
        <time>2013-02-23T09:36:51.000Z</time>
      </trkpt>
      <trkpt lat="46.01884" lon="6.33608">
        <ele>1573.8000488281</ele>
        <time>2013-02-23T09:36:58.000Z</time>
      </trkpt>
      <trkpt lat="46.01884" lon="6.33608">
        <ele>1573.8000488281</ele>
        <time>2013-02-23T09:37:03.000Z</time>
      </trkpt>
      <trkpt lat="46.01885" lon="6.33608">
        <ele>1574.5999755859</ele>
        <time>2013-02-23T09:37:09.000Z</time>
      </trkpt>
      <trkpt lat="46.01884" lon="6.33608">
        <ele>1573.8000488281</ele>
        <time>2013-02-23T09:37:21.000Z</time>
      </trkpt>
      <trkpt lat="46.01884" lon="6.33609">
        <ele>1572.1999511719</ele>
        <time>2013-02-23T09:37:30.000Z</time>
      </trkpt>
      <trkpt lat="46.01883" lon="6.3361">
        <ele>1571.8000488281</ele>
        <time>2013-02-23T09:37:31.000Z</time>
      </trkpt>
      <trkpt lat="46.01879" lon="6.33616">
        <ele>1573.1999511719</ele>
        <time>2013-02-23T09:37:38.000Z</time>
      </trkpt>
      <trkpt lat="46.01877" lon="6.33616">
        <ele>1574.1999511719</ele>
        <time>2013-02-23T09:37:43.000Z</time>
      </trkpt>
      <trkpt lat="46.01876" lon="6.33616">
        <ele>1574.1999511719</ele>
        <time>2013-02-23T09:37:47.000Z</time>
      </trkpt>
      <trkpt lat="46.01875" lon="6.33617">
        <ele>1574.5999755859</ele>
        <time>2013-02-23T09:37:53.000Z</time>
      </trkpt>
      <trkpt lat="46.01874" lon="6.33619">
        <ele>1574.5999755859</ele>
        <time>2013-02-23T09:37:57.000Z</time>
      </trkpt>
      <trkpt lat="46.01876" lon="6.33621">
        <ele>1574.5999755859</ele>
        <time>2013-02-23T09:38:03.000Z</time>
      </trkpt>
      <trkpt lat="46.01876" lon="6.3362">
        <ele>1575.1999511719</ele>
        <time>2013-02-23T09:38:17.000Z</time>
      </trkpt>
      <trkpt lat="46.01876" lon="6.3362">
        <ele>1575.5999755859</ele>
        <time>2013-02-23T09:38:30.000Z</time>
      </trkpt>
      <trkpt lat="46.01876" lon="6.3362">
        <ele>1575.5999755859</ele>
        <time>2013-02-23T09:38:47.000Z</time>
      </trkpt>
      <trkpt lat="46.01877" lon="6.33618">
        <ele>1574.1999511719</ele>
        <time>2013-02-23T09:39:01.000Z</time>
      </trkpt>
      <trkpt lat="46.01881" lon="6.33619">
        <ele>1572.8000488281</ele>
        <time>2013-02-23T09:39:19.000Z</time>
      </trkpt>
      <trkpt lat="46.01885" lon="6.33625">
        <ele>1575.1999511719</ele>
        <time>2013-02-23T09:39:26.000Z</time>
      </trkpt>
      <trkpt lat="46.01889" lon="6.3363">
        <ele>1577.5999755859</ele>
        <time>2013-02-23T09:39:32.000Z</time>
      </trkpt>
      <trkpt lat="46.01891" lon="6.33636">
        <ele>1579</ele>
        <time>2013-02-23T09:39:38.000Z</time>
      </trkpt>
      <trkpt lat="46.01894" lon="6.33641">
        <ele>1579.4000244141</ele>
        <time>2013-02-23T09:39:44.000Z</time>
      </trkpt>
      <trkpt lat="46.01898" lon="6.33645">
        <ele>1579</ele>
        <time>2013-02-23T09:39:51.000Z</time>
      </trkpt>
      <trkpt lat="46.019" lon="6.33649">
        <ele>1580</ele>
        <time>2013-02-23T09:39:58.000Z</time>
      </trkpt>
      <trkpt lat="46.01902" lon="6.33652">
        <ele>1581.4000244141</ele>
        <time>2013-02-23T09:40:03.000Z</time>
      </trkpt>
      <trkpt lat="46.01904" lon="6.33657">
        <ele>1582.8000488281</ele>
        <time>2013-02-23T09:40:10.000Z</time>
      </trkpt>
      <trkpt lat="46.01907" lon="6.33662">
        <ele>1582.8000488281</ele>
        <time>2013-02-23T09:40:17.000Z</time>
      </trkpt>
      <trkpt lat="46.01909" lon="6.33664">
        <ele>1584.1999511719</ele>
        <time>2013-02-23T09:40:23.000Z</time>
      </trkpt>
      <trkpt lat="46.01912" lon="6.33671">
        <ele>1584.8000488281</ele>
        <time>2013-02-23T09:40:29.000Z</time>
      </trkpt>
      <trkpt lat="46.01916" lon="6.33681">
        <ele>1585.8000488281</ele>
        <time>2013-02-23T09:40:37.000Z</time>
      </trkpt>
      <trkpt lat="46.01917" lon="6.33684">
        <ele>1586.1999511719</ele>
        <time>2013-02-23T09:40:40.000Z</time>
      </trkpt>
      <trkpt lat="46.0192" lon="6.33691">
        <ele>1588.1999511719</ele>
        <time>2013-02-23T09:40:47.000Z</time>
      </trkpt>
      <trkpt lat="46.01923" lon="6.33698">
        <ele>1589.5999755859</ele>
        <time>2013-02-23T09:40:54.000Z</time>
      </trkpt>
      <trkpt lat="46.01926" lon="6.33703">
        <ele>1590</ele>
        <time>2013-02-23T09:41:00.000Z</time>
      </trkpt>
      <trkpt lat="46.0193" lon="6.33709">
        <ele>1590</ele>
        <time>2013-02-23T09:41:07.000Z</time>
      </trkpt>
      <trkpt lat="46.01933" lon="6.33714">
        <ele>1590.5999755859</ele>
        <time>2013-02-23T09:41:12.000Z</time>
      </trkpt>
      <trkpt lat="46.01937" lon="6.33718">
        <ele>1591.4000244141</ele>
        <time>2013-02-23T09:41:18.000Z</time>
      </trkpt>
      <trkpt lat="46.01937" lon="6.33719">
        <ele>1591</ele>
        <time>2013-02-23T09:41:20.000Z</time>
      </trkpt>
      <trkpt lat="46.01941" lon="6.33722">
        <ele>1591</ele>
        <time>2013-02-23T09:41:24.000Z</time>
      </trkpt>
      <trkpt lat="46.01944" lon="6.33723">
        <ele>1592</ele>
        <time>2013-02-23T09:41:29.000Z</time>
      </trkpt>
      <trkpt lat="46.01946" lon="6.33724">
        <ele>1592.4000244141</ele>
        <time>2013-02-23T09:41:33.000Z</time>
      </trkpt>
      <trkpt lat="46.01948" lon="6.33728">
        <ele>1593.4000244141</ele>
        <time>2013-02-23T09:41:37.000Z</time>
      </trkpt>
      <trkpt lat="46.01952" lon="6.33737">
        <ele>1594.8000488281</ele>
        <time>2013-02-23T09:41:46.000Z</time>
      </trkpt>
      <trkpt lat="46.01954" lon="6.33743">
        <ele>1595.8000488281</ele>
        <time>2013-02-23T09:41:51.000Z</time>
      </trkpt>
      <trkpt lat="46.01957" lon="6.33752">
        <ele>1596.8000488281</ele>
        <time>2013-02-23T09:41:59.000Z</time>
      </trkpt>
      <trkpt lat="46.01959" lon="6.33758">
        <ele>1597.1999511719</ele>
        <time>2013-02-23T09:42:05.000Z</time>
      </trkpt>
      <trkpt lat="46.01961" lon="6.33763">
        <ele>1599.5999755859</ele>
        <time>2013-02-23T09:42:11.000Z</time>
      </trkpt>
      <trkpt lat="46.01964" lon="6.33769">
        <ele>1600.5999755859</ele>
        <time>2013-02-23T09:42:18.000Z</time>
      </trkpt>
      <trkpt lat="46.01965" lon="6.33772">
        <ele>1601.5999755859</ele>
        <time>2013-02-23T09:42:22.000Z</time>
      </trkpt>
      <trkpt lat="46.01967" lon="6.33776">
        <ele>1602.5999755859</ele>
        <time>2013-02-23T09:42:27.000Z</time>
      </trkpt>
      <trkpt lat="46.01969" lon="6.33783">
        <ele>1603.5999755859</ele>
        <time>2013-02-23T09:42:34.000Z</time>
      </trkpt>
      <trkpt lat="46.01971" lon="6.33787">
        <ele>1604.4000244141</ele>
        <time>2013-02-23T09:42:38.000Z</time>
      </trkpt>
      <trkpt lat="46.01976" lon="6.33794">
        <ele>1605</ele>
        <time>2013-02-23T09:42:45.000Z</time>
      </trkpt>
      <trkpt lat="46.01979" lon="6.33801">
        <ele>1606</ele>
        <time>2013-02-23T09:42:52.000Z</time>
      </trkpt>
      <trkpt lat="46.01981" lon="6.3381">
        <ele>1606.4000244141</ele>
        <time>2013-02-23T09:42:58.000Z</time>
      </trkpt>
      <trkpt lat="46.01983" lon="6.33816">
        <ele>1608.4000244141</ele>
        <time>2013-02-23T09:43:05.000Z</time>
      </trkpt>
      <trkpt lat="46.01986" lon="6.33821">
        <ele>1608.8000488281</ele>
        <time>2013-02-23T09:43:11.000Z</time>
      </trkpt>
      <trkpt lat="46.01988" lon="6.33828">
        <ele>1609.8000488281</ele>
        <time>2013-02-23T09:43:19.000Z</time>
      </trkpt>
      <trkpt lat="46.0199" lon="6.33833">
        <ele>1610.8000488281</ele>
        <time>2013-02-23T09:43:25.000Z</time>
      </trkpt>
      <trkpt lat="46.01991" lon="6.33837">
        <ele>1611.1999511719</ele>
        <time>2013-02-23T09:43:30.000Z</time>
      </trkpt>
      <trkpt lat="46.01993" lon="6.33842">
        <ele>1612.5999755859</ele>
        <time>2013-02-23T09:43:36.000Z</time>
      </trkpt>
      <trkpt lat="46.01994" lon="6.33846">
        <ele>1614</ele>
        <time>2013-02-23T09:43:42.000Z</time>
      </trkpt>
      <trkpt lat="46.01996" lon="6.33853">
        <ele>1615</ele>
        <time>2013-02-23T09:43:48.000Z</time>
      </trkpt>
      <trkpt lat="46.01998" lon="6.33859">
        <ele>1615</ele>
        <time>2013-02-23T09:43:53.000Z</time>
      </trkpt>
      <trkpt lat="46.02" lon="6.33868">
        <ele>1615</ele>
        <time>2013-02-23T09:43:58.000Z</time>
      </trkpt>
      <trkpt lat="46.02001" lon="6.33872">
        <ele>1615.5999755859</ele>
        <time>2013-02-23T09:44:02.000Z</time>
      </trkpt>
      <trkpt lat="46.02004" lon="6.33878">
        <ele>1617.4000244141</ele>
        <time>2013-02-23T09:44:10.000Z</time>
      </trkpt>
      <trkpt lat="46.02006" lon="6.33884">
        <ele>1618.8000488281</ele>
        <time>2013-02-23T09:44:16.000Z</time>
      </trkpt>
      <trkpt lat="46.02009" lon="6.33892">
        <ele>1620.8000488281</ele>
        <time>2013-02-23T09:44:24.000Z</time>
      </trkpt>
      <trkpt lat="46.02012" lon="6.33898">
        <ele>1622.1999511719</ele>
        <time>2013-02-23T09:44:31.000Z</time>
      </trkpt>
      <trkpt lat="46.02014" lon="6.33905">
        <ele>1623.1999511719</ele>
        <time>2013-02-23T09:44:38.000Z</time>
      </trkpt>
      <trkpt lat="46.02017" lon="6.33911">
        <ele>1625.1999511719</ele>
        <time>2013-02-23T09:44:46.000Z</time>
      </trkpt>
      <trkpt lat="46.02018" lon="6.33916">
        <ele>1626.5999755859</ele>
        <time>2013-02-23T09:44:52.000Z</time>
      </trkpt>
      <trkpt lat="46.0202" lon="6.3392">
        <ele>1627.5999755859</ele>
        <time>2013-02-23T09:44:58.000Z</time>
      </trkpt>
      <trkpt lat="46.02021" lon="6.33925">
        <ele>1628</ele>
        <time>2013-02-23T09:45:04.000Z</time>
      </trkpt>
      <trkpt lat="46.02023" lon="6.33933">
        <ele>1628</ele>
        <time>2013-02-23T09:45:11.000Z</time>
      </trkpt>
      <trkpt lat="46.02025" lon="6.3394">
        <ele>1629</ele>
        <time>2013-02-23T09:45:18.000Z</time>
      </trkpt>
      <trkpt lat="46.02027" lon="6.3395">
        <ele>1628.5999755859</ele>
        <time>2013-02-23T09:45:26.000Z</time>
      </trkpt>
      <trkpt lat="46.02028" lon="6.33955">
        <ele>1629</ele>
        <time>2013-02-23T09:45:31.000Z</time>
      </trkpt>
      <trkpt lat="46.02029" lon="6.33962">
        <ele>1628.5999755859</ele>
        <time>2013-02-23T09:45:36.000Z</time>
      </trkpt>
      <trkpt lat="46.0203" lon="6.33969">
        <ele>1628.5999755859</ele>
        <time>2013-02-23T09:45:43.000Z</time>
      </trkpt>
      <trkpt lat="46.02031" lon="6.33975">
        <ele>1629</ele>
        <time>2013-02-23T09:45:48.000Z</time>
      </trkpt>
      <trkpt lat="46.02033" lon="6.3398">
        <ele>1629</ele>
        <time>2013-02-23T09:45:54.000Z</time>
      </trkpt>
      <trkpt lat="46.02034" lon="6.33987">
        <ele>1630.4000244141</ele>
        <time>2013-02-23T09:46:03.000Z</time>
      </trkpt>
      <trkpt lat="46.02035" lon="6.33993">
        <ele>1630.4000244141</ele>
        <time>2013-02-23T09:46:10.000Z</time>
      </trkpt>
      <trkpt lat="46.02037" lon="6.33998">
        <ele>1631.4000244141</ele>
        <time>2013-02-23T09:46:16.000Z</time>
      </trkpt>
      <trkpt lat="46.02038" lon="6.34003">
        <ele>1632.4000244141</ele>
        <time>2013-02-23T09:46:22.000Z</time>
      </trkpt>
      <trkpt lat="46.02039" lon="6.34007">
        <ele>1633.4000244141</ele>
        <time>2013-02-23T09:46:28.000Z</time>
      </trkpt>
      <trkpt lat="46.0204" lon="6.34012">
        <ele>1634.8000488281</ele>
        <time>2013-02-23T09:46:34.000Z</time>
      </trkpt>
      <trkpt lat="46.02041" lon="6.34017">
        <ele>1636.1999511719</ele>
        <time>2013-02-23T09:46:40.000Z</time>
      </trkpt>
      <trkpt lat="46.02042" lon="6.34021">
        <ele>1636.5999755859</ele>
        <time>2013-02-23T09:46:45.000Z</time>
      </trkpt>
      <trkpt lat="46.02043" lon="6.34026">
        <ele>1638.1999511719</ele>
        <time>2013-02-23T09:46:51.000Z</time>
      </trkpt>
      <trkpt lat="46.02045" lon="6.34033">
        <ele>1639.5999755859</ele>
        <time>2013-02-23T09:46:59.000Z</time>
      </trkpt>
      <trkpt lat="46.02046" lon="6.34039">
        <ele>1641</ele>
        <time>2013-02-23T09:47:05.000Z</time>
      </trkpt>
      <trkpt lat="46.02047" lon="6.34047">
        <ele>1642.4000244141</ele>
        <time>2013-02-23T09:47:13.000Z</time>
      </trkpt>
      <trkpt lat="46.02049" lon="6.34053">
        <ele>1644.4000244141</ele>
        <time>2013-02-23T09:47:20.000Z</time>
      </trkpt>
      <trkpt lat="46.0205" lon="6.34059">
        <ele>1644.8000488281</ele>
        <time>2013-02-23T09:47:26.000Z</time>
      </trkpt>
      <trkpt lat="46.0205" lon="6.34064">
        <ele>1645.8000488281</ele>
        <time>2013-02-23T09:47:32.000Z</time>
      </trkpt>
      <trkpt lat="46.0205" lon="6.34069">
        <ele>1645.8000488281</ele>
        <time>2013-02-23T09:47:37.000Z</time>
      </trkpt>
      <trkpt lat="46.02049" lon="6.34075">
        <ele>1646.1999511719</ele>
        <time>2013-02-23T09:47:42.000Z</time>
      </trkpt>
      <trkpt lat="46.02049" lon="6.34081">
        <ele>1647.1999511719</ele>
        <time>2013-02-23T09:47:48.000Z</time>
      </trkpt>
      <trkpt lat="46.02048" lon="6.34085">
        <ele>1647.8000488281</ele>
        <time>2013-02-23T09:47:53.000Z</time>
      </trkpt>
      <trkpt lat="46.02048" lon="6.3409">
        <ele>1648.1999511719</ele>
        <time>2013-02-23T09:47:59.000Z</time>
      </trkpt>
      <trkpt lat="46.02047" lon="6.34096">
        <ele>1649.5999755859</ele>
        <time>2013-02-23T09:48:05.000Z</time>
      </trkpt>
      <trkpt lat="46.02046" lon="6.34101">
        <ele>1650.5999755859</ele>
        <time>2013-02-23T09:48:11.000Z</time>
      </trkpt>
      <trkpt lat="46.02045" lon="6.34105">
        <ele>1651.5999755859</ele>
        <time>2013-02-23T09:48:16.000Z</time>
      </trkpt>
      <trkpt lat="46.02044" lon="6.3411">
        <ele>1652.5999755859</ele>
        <time>2013-02-23T09:48:22.000Z</time>
      </trkpt>
      <trkpt lat="46.02043" lon="6.34113">
        <ele>1653.5999755859</ele>
        <time>2013-02-23T09:48:27.000Z</time>
      </trkpt>
      <trkpt lat="46.02042" lon="6.34117">
        <ele>1655</ele>
        <time>2013-02-23T09:48:32.000Z</time>
      </trkpt>
      <trkpt lat="46.02041" lon="6.34122">
        <ele>1656.4000244141</ele>
        <time>2013-02-23T09:48:39.000Z</time>
      </trkpt>
      <trkpt lat="46.0204" lon="6.34128">
        <ele>1657.4000244141</ele>
        <time>2013-02-23T09:48:45.000Z</time>
      </trkpt>
      <trkpt lat="46.0204" lon="6.34132">
        <ele>1657.8000488281</ele>
        <time>2013-02-23T09:48:50.000Z</time>
      </trkpt>
      <trkpt lat="46.0204" lon="6.34135">
        <ele>1658.4000244141</ele>
        <time>2013-02-23T09:48:55.000Z</time>
      </trkpt>
      <trkpt lat="46.0204" lon="6.34141">
        <ele>1660.1999511719</ele>
        <time>2013-02-23T09:49:02.000Z</time>
      </trkpt>
      <trkpt lat="46.0204" lon="6.34145">
        <ele>1661.1999511719</ele>
        <time>2013-02-23T09:49:07.000Z</time>
      </trkpt>
      <trkpt lat="46.0204" lon="6.34148">
        <ele>1661.5999755859</ele>
        <time>2013-02-23T09:49:11.000Z</time>
      </trkpt>
      <trkpt lat="46.02039" lon="6.3415">
        <ele>1662.1999511719</ele>
        <time>2013-02-23T09:49:15.000Z</time>
      </trkpt>
      <trkpt lat="46.02036" lon="6.34152">
        <ele>1663.1999511719</ele>
        <time>2013-02-23T09:49:20.000Z</time>
      </trkpt>
      <trkpt lat="46.02032" lon="6.34155">
        <ele>1665</ele>
        <time>2013-02-23T09:49:27.000Z</time>
      </trkpt>
      <trkpt lat="46.0203" lon="6.34157">
        <ele>1666</ele>
        <time>2013-02-23T09:49:33.000Z</time>
      </trkpt>
      <trkpt lat="46.02028" lon="6.34159">
        <ele>1666.4000244141</ele>
        <time>2013-02-23T09:49:38.000Z</time>
      </trkpt>
      <trkpt lat="46.02025" lon="6.34162">
        <ele>1667.4000244141</ele>
        <time>2013-02-23T09:49:45.000Z</time>
      </trkpt>
      <trkpt lat="46.02021" lon="6.34165">
        <ele>1668.8000488281</ele>
        <time>2013-02-23T09:49:52.000Z</time>
      </trkpt>
      <trkpt lat="46.02019" lon="6.34165">
        <ele>1668.8000488281</ele>
        <time>2013-02-23T09:49:57.000Z</time>
      </trkpt>
      <trkpt lat="46.02018" lon="6.34167">
        <ele>1669.4000244141</ele>
        <time>2013-02-23T09:50:01.000Z</time>
      </trkpt>
      <trkpt lat="46.02018" lon="6.34168">
        <ele>1669.8000488281</ele>
        <time>2013-02-23T09:50:06.000Z</time>
      </trkpt>
      <trkpt lat="46.02021" lon="6.34171">
        <ele>1670.8000488281</ele>
        <time>2013-02-23T09:50:11.000Z</time>
      </trkpt>
      <trkpt lat="46.02023" lon="6.34173">
        <ele>1672.1999511719</ele>
        <time>2013-02-23T09:50:16.000Z</time>
      </trkpt>
      <trkpt lat="46.02025" lon="6.34175">
        <ele>1673.1999511719</ele>
        <time>2013-02-23T09:50:22.000Z</time>
      </trkpt>
      <trkpt lat="46.02025" lon="6.34179">
        <ele>1673.5999755859</ele>
        <time>2013-02-23T09:50:27.000Z</time>
      </trkpt>
      <trkpt lat="46.02027" lon="6.34183">
        <ele>1677</ele>
        <time>2013-02-23T09:50:33.000Z</time>
      </trkpt>
      <trkpt lat="46.02027" lon="6.34185">
        <ele>1678</ele>
        <time>2013-02-23T09:50:38.000Z</time>
      </trkpt>
      <trkpt lat="46.02025" lon="6.34188">
        <ele>1679</ele>
        <time>2013-02-23T09:50:44.000Z</time>
      </trkpt>
      <trkpt lat="46.02023" lon="6.3419">
        <ele>1680</ele>
        <time>2013-02-23T09:50:50.000Z</time>
      </trkpt>
      <trkpt lat="46.02019" lon="6.3419">
        <ele>1682.8000488281</ele>
        <time>2013-02-23T09:50:55.000Z</time>
      </trkpt>
      <trkpt lat="46.02016" lon="6.34192">
        <ele>1684.1999511719</ele>
        <time>2013-02-23T09:51:01.000Z</time>
      </trkpt>
      <trkpt lat="46.02013" lon="6.34192">
        <ele>1683.8000488281</ele>
        <time>2013-02-23T09:51:06.000Z</time>
      </trkpt>
      <trkpt lat="46.0201" lon="6.34194">
        <ele>1685.8000488281</ele>
        <time>2013-02-23T09:51:12.000Z</time>
      </trkpt>
      <trkpt lat="46.02008" lon="6.34194">
        <ele>1686.1999511719</ele>
        <time>2013-02-23T09:51:19.000Z</time>
      </trkpt>
      <trkpt lat="46.02009" lon="6.34195">
        <ele>1685.8000488281</ele>
        <time>2013-02-23T09:51:25.000Z</time>
      </trkpt>
      <trkpt lat="46.02013" lon="6.34198">
        <ele>1686.5999755859</ele>
        <time>2013-02-23T09:51:32.000Z</time>
      </trkpt>
      <trkpt lat="46.02014" lon="6.342">
        <ele>1687.1999511719</ele>
        <time>2013-02-23T09:51:38.000Z</time>
      </trkpt>
      <trkpt lat="46.02015" lon="6.34202">
        <ele>1688.1999511719</ele>
        <time>2013-02-23T09:51:42.000Z</time>
      </trkpt>
      <trkpt lat="46.02015" lon="6.34202">
        <ele>1687.5999755859</ele>
        <time>2013-02-23T09:51:52.000Z</time>
      </trkpt>
      <trkpt lat="46.02013" lon="6.34205">
        <ele>1688.5999755859</ele>
        <time>2013-02-23T09:51:57.000Z</time>
      </trkpt>
      <trkpt lat="46.02012" lon="6.34207">
        <ele>1689</ele>
        <time>2013-02-23T09:52:02.000Z</time>
      </trkpt>
      <trkpt lat="46.0201" lon="6.34208">
        <ele>1690</ele>
        <time>2013-02-23T09:52:07.000Z</time>
      </trkpt>
      <trkpt lat="46.02007" lon="6.3421">
        <ele>1690.5999755859</ele>
        <time>2013-02-23T09:52:11.000Z</time>
      </trkpt>
      <trkpt lat="46.02005" lon="6.34212">
        <ele>1691.4000244141</ele>
        <time>2013-02-23T09:52:15.000Z</time>
      </trkpt>
      <trkpt lat="46.02003" lon="6.34213">
        <ele>1692</ele>
        <time>2013-02-23T09:52:18.000Z</time>
      </trkpt>
      <trkpt lat="46.02001" lon="6.34216">
        <ele>1693</ele>
        <time>2013-02-23T09:52:23.000Z</time>
      </trkpt>
      <trkpt lat="46.01999" lon="6.34217">
        <ele>1693.8000488281</ele>
        <time>2013-02-23T09:52:27.000Z</time>
      </trkpt>
      <trkpt lat="46.01996" lon="6.34218">
        <ele>1696.8000488281</ele>
        <time>2013-02-23T09:52:34.000Z</time>
      </trkpt>
      <trkpt lat="46.01993" lon="6.34219">
        <ele>1697.8000488281</ele>
        <time>2013-02-23T09:52:39.000Z</time>
      </trkpt>
      <trkpt lat="46.01988" lon="6.34218">
        <ele>1698.1999511719</ele>
        <time>2013-02-23T09:52:47.000Z</time>
      </trkpt>
      <trkpt lat="46.01986" lon="6.34219">
        <ele>1698.5999755859</ele>
        <time>2013-02-23T09:52:53.000Z</time>
      </trkpt>
      <trkpt lat="46.01983" lon="6.34219">
        <ele>1698.5999755859</ele>
        <time>2013-02-23T09:52:58.000Z</time>
      </trkpt>
      <trkpt lat="46.0198" lon="6.34219">
        <ele>1700.1999511719</ele>
        <time>2013-02-23T09:53:04.000Z</time>
      </trkpt>
      <trkpt lat="46.01979" lon="6.3422">
        <ele>1701</ele>
        <time>2013-02-23T09:53:08.000Z</time>
      </trkpt>
      <trkpt lat="46.01976" lon="6.34221">
        <ele>1702</ele>
        <time>2013-02-23T09:53:14.000Z</time>
      </trkpt>
      <trkpt lat="46.01972" lon="6.34221">
        <ele>1703.4000244141</ele>
        <time>2013-02-23T09:53:20.000Z</time>
      </trkpt>
      <trkpt lat="46.0197" lon="6.34222">
        <ele>1705.4000244141</ele>
        <time>2013-02-23T09:53:25.000Z</time>
      </trkpt>
      <trkpt lat="46.01966" lon="6.34223">
        <ele>1707.4000244141</ele>
        <time>2013-02-23T09:53:34.000Z</time>
      </trkpt>
      <trkpt lat="46.01961" lon="6.34224">
        <ele>1707.8000488281</ele>
        <time>2013-02-23T09:53:41.000Z</time>
      </trkpt>
      <trkpt lat="46.01958" lon="6.34225">
        <ele>1708.8000488281</ele>
        <time>2013-02-23T09:53:47.000Z</time>
      </trkpt>
      <trkpt lat="46.01955" lon="6.34226">
        <ele>1709.1999511719</ele>
        <time>2013-02-23T09:53:54.000Z</time>
      </trkpt>
      <trkpt lat="46.0195" lon="6.34227">
        <ele>1709.1999511719</ele>
        <time>2013-02-23T09:54:01.000Z</time>
      </trkpt>
      <trkpt lat="46.01945" lon="6.34228">
        <ele>1710.8000488281</ele>
        <time>2013-02-23T09:54:08.000Z</time>
      </trkpt>
      <trkpt lat="46.01942" lon="6.3423">
        <ele>1711.1999511719</ele>
        <time>2013-02-23T09:54:14.000Z</time>
      </trkpt>
      <trkpt lat="46.01938" lon="6.34232">
        <ele>1711.5999755859</ele>
        <time>2013-02-23T09:54:21.000Z</time>
      </trkpt>
      <trkpt lat="46.01936" lon="6.34234">
        <ele>1711.1999511719</ele>
        <time>2013-02-23T09:54:27.000Z</time>
      </trkpt>
      <trkpt lat="46.01933" lon="6.34237">
        <ele>1711.5999755859</ele>
        <time>2013-02-23T09:54:32.000Z</time>
      </trkpt>
      <trkpt lat="46.01929" lon="6.3424">
        <ele>1712.1999511719</ele>
        <time>2013-02-23T09:54:39.000Z</time>
      </trkpt>
      <trkpt lat="46.01924" lon="6.34242">
        <ele>1712.5999755859</ele>
        <time>2013-02-23T09:54:46.000Z</time>
      </trkpt>
      <trkpt lat="46.01919" lon="6.34245">
        <ele>1713.5999755859</ele>
        <time>2013-02-23T09:54:53.000Z</time>
      </trkpt>
      <trkpt lat="46.01911" lon="6.34245">
        <ele>1715</ele>
        <time>2013-02-23T09:55:01.000Z</time>
      </trkpt>
      <trkpt lat="46.01905" lon="6.34245">
        <ele>1717.4000244141</ele>
        <time>2013-02-23T09:55:08.000Z</time>
      </trkpt>
      <trkpt lat="46.01899" lon="6.34247">
        <ele>1718.4000244141</ele>
        <time>2013-02-23T09:55:14.000Z</time>
      </trkpt>
      <trkpt lat="46.01897" lon="6.34249">
        <ele>1718.4000244141</ele>
        <time>2013-02-23T09:55:17.000Z</time>
      </trkpt>
      <trkpt lat="46.01895" lon="6.34253">
        <ele>1719.4000244141</ele>
        <time>2013-02-23T09:55:23.000Z</time>
      </trkpt>
      <trkpt lat="46.01895" lon="6.34258">
        <ele>1719.8000488281</ele>
        <time>2013-02-23T09:55:28.000Z</time>
      </trkpt>
      <trkpt lat="46.01895" lon="6.34262">
        <ele>1720.4000244141</ele>
        <time>2013-02-23T09:55:32.000Z</time>
      </trkpt>
      <trkpt lat="46.01896" lon="6.34267">
        <ele>1721.1999511719</ele>
        <time>2013-02-23T09:55:38.000Z</time>
      </trkpt>
      <trkpt lat="46.01898" lon="6.34268">
        <ele>1721.8000488281</ele>
        <time>2013-02-23T09:55:43.000Z</time>
      </trkpt>
      <trkpt lat="46.01902" lon="6.3427">
        <ele>1722.8000488281</ele>
        <time>2013-02-23T09:55:49.000Z</time>
      </trkpt>
      <trkpt lat="46.01907" lon="6.34272">
        <ele>1724.1999511719</ele>
        <time>2013-02-23T09:55:57.000Z</time>
      </trkpt>
      <trkpt lat="46.0191" lon="6.34275">
        <ele>1725.5999755859</ele>
        <time>2013-02-23T09:56:02.000Z</time>
      </trkpt>
      <trkpt lat="46.01909" lon="6.34281">
        <ele>1727.5999755859</ele>
        <time>2013-02-23T09:56:09.000Z</time>
      </trkpt>
      <trkpt lat="46.01908" lon="6.34285">
        <ele>1728</ele>
        <time>2013-02-23T09:56:14.000Z</time>
      </trkpt>
      <trkpt lat="46.01908" lon="6.34289">
        <ele>1729</ele>
        <time>2013-02-23T09:56:19.000Z</time>
      </trkpt>
      <trkpt lat="46.01908" lon="6.34295">
        <ele>1730.4000244141</ele>
        <time>2013-02-23T09:56:26.000Z</time>
      </trkpt>
      <trkpt lat="46.01908" lon="6.34301">
        <ele>1730.8000488281</ele>
        <time>2013-02-23T09:56:32.000Z</time>
      </trkpt>
      <trkpt lat="46.01909" lon="6.34304">
        <ele>1731.8000488281</ele>
        <time>2013-02-23T09:56:37.000Z</time>
      </trkpt>
      <trkpt lat="46.01909" lon="6.34307">
        <ele>1732.8000488281</ele>
        <time>2013-02-23T09:56:41.000Z</time>
      </trkpt>
      <trkpt lat="46.01909" lon="6.3431">
        <ele>1733.1999511719</ele>
        <time>2013-02-23T09:56:44.000Z</time>
      </trkpt>
      <trkpt lat="46.01911" lon="6.34315">
        <ele>1734.1999511719</ele>
        <time>2013-02-23T09:56:51.000Z</time>
      </trkpt>
      <trkpt lat="46.01912" lon="6.34318">
        <ele>1735.5999755859</ele>
        <time>2013-02-23T09:56:58.000Z</time>
      </trkpt>
      <trkpt lat="46.01913" lon="6.3432">
        <ele>1736.5999755859</ele>
        <time>2013-02-23T09:57:03.000Z</time>
      </trkpt>
      <trkpt lat="46.01914" lon="6.34323">
        <ele>1738.1999511719</ele>
        <time>2013-02-23T09:57:09.000Z</time>
      </trkpt>
      <trkpt lat="46.01915" lon="6.34324">
        <ele>1739</ele>
        <time>2013-02-23T09:57:17.000Z</time>
      </trkpt>
      <trkpt lat="46.01916" lon="6.34326">
        <ele>1739.5999755859</ele>
        <time>2013-02-23T09:57:21.000Z</time>
      </trkpt>
      <trkpt lat="46.01916" lon="6.34329">
        <ele>1740.5999755859</ele>
        <time>2013-02-23T09:57:26.000Z</time>
      </trkpt>
      <trkpt lat="46.01918" lon="6.34332">
        <ele>1741.4000244141</ele>
        <time>2013-02-23T09:57:31.000Z</time>
      </trkpt>
      <trkpt lat="46.01918" lon="6.34335">
        <ele>1742.4000244141</ele>
        <time>2013-02-23T09:57:36.000Z</time>
      </trkpt>
      <trkpt lat="46.01919" lon="6.34339">
        <ele>1743.4000244141</ele>
        <time>2013-02-23T09:57:41.000Z</time>
      </trkpt>
      <trkpt lat="46.0192" lon="6.34343">
        <ele>1744.8000488281</ele>
        <time>2013-02-23T09:57:46.000Z</time>
      </trkpt>
      <trkpt lat="46.01921" lon="6.34345">
        <ele>1745.8000488281</ele>
        <time>2013-02-23T09:57:50.000Z</time>
      </trkpt>
      <trkpt lat="46.01921" lon="6.34348">
        <ele>1746.1999511719</ele>
        <time>2013-02-23T09:57:54.000Z</time>
      </trkpt>
      <trkpt lat="46.01922" lon="6.34351">
        <ele>1747.8000488281</ele>
        <time>2013-02-23T09:57:59.000Z</time>
      </trkpt>
      <trkpt lat="46.01923" lon="6.34353">
        <ele>1748.1999511719</ele>
        <time>2013-02-23T09:58:03.000Z</time>
      </trkpt>
      <trkpt lat="46.01924" lon="6.34357">
        <ele>1749.1999511719</ele>
        <time>2013-02-23T09:58:08.000Z</time>
      </trkpt>
      <trkpt lat="46.01925" lon="6.34361">
        <ele>1750.1999511719</ele>
        <time>2013-02-23T09:58:13.000Z</time>
      </trkpt>
      <trkpt lat="46.01927" lon="6.34366">
        <ele>1751.5999755859</ele>
        <time>2013-02-23T09:58:20.000Z</time>
      </trkpt>
      <trkpt lat="46.01928" lon="6.34369">
        <ele>1752.5999755859</ele>
        <time>2013-02-23T09:58:25.000Z</time>
      </trkpt>
      <trkpt lat="46.01929" lon="6.34373">
        <ele>1753.4000244141</ele>
        <time>2013-02-23T09:58:31.000Z</time>
      </trkpt>
      <trkpt lat="46.0193" lon="6.3438">
        <ele>1755</ele>
        <time>2013-02-23T09:58:40.000Z</time>
      </trkpt>
      <trkpt lat="46.0193" lon="6.34384">
        <ele>1755.4000244141</ele>
        <time>2013-02-23T09:58:44.000Z</time>
      </trkpt>
      <trkpt lat="46.01931" lon="6.34388">
        <ele>1755.8000488281</ele>
        <time>2013-02-23T09:58:49.000Z</time>
      </trkpt>
      <trkpt lat="46.01932" lon="6.34392">
        <ele>1756.4000244141</ele>
        <time>2013-02-23T09:58:54.000Z</time>
      </trkpt>
      <trkpt lat="46.01932" lon="6.34396">
        <ele>1757.4000244141</ele>
        <time>2013-02-23T09:58:58.000Z</time>
      </trkpt>
      <trkpt lat="46.01933" lon="6.344">
        <ele>1757.4000244141</ele>
        <time>2013-02-23T09:59:04.000Z</time>
      </trkpt>
      <trkpt lat="46.01933" lon="6.34406">
        <ele>1758.8000488281</ele>
        <time>2013-02-23T09:59:10.000Z</time>
      </trkpt>
      <trkpt lat="46.01934" lon="6.34409">
        <ele>1759.1999511719</ele>
        <time>2013-02-23T09:59:14.000Z</time>
      </trkpt>
      <trkpt lat="46.01935" lon="6.34412">
        <ele>1760.1999511719</ele>
        <time>2013-02-23T09:59:21.000Z</time>
      </trkpt>
      <trkpt lat="46.01936" lon="6.34418">
        <ele>1761.1999511719</ele>
        <time>2013-02-23T09:59:27.000Z</time>
      </trkpt>
      <trkpt lat="46.01937" lon="6.34421">
        <ele>1761.5999755859</ele>
        <time>2013-02-23T09:59:31.000Z</time>
      </trkpt>
      <trkpt lat="46.01938" lon="6.34424">
        <ele>1762.5999755859</ele>
        <time>2013-02-23T09:59:36.000Z</time>
      </trkpt>
      <trkpt lat="46.0194" lon="6.34428">
        <ele>1763</ele>
        <time>2013-02-23T09:59:41.000Z</time>
      </trkpt>
      <trkpt lat="46.01941" lon="6.34432">
        <ele>1764</ele>
        <time>2013-02-23T09:59:48.000Z</time>
      </trkpt>
      <trkpt lat="46.01942" lon="6.34437">
        <ele>1765</ele>
        <time>2013-02-23T09:59:54.000Z</time>
      </trkpt>
      <trkpt lat="46.01942" lon="6.3444">
        <ele>1766.4000244141</ele>
        <time>2013-02-23T09:59:59.000Z</time>
      </trkpt>
      <trkpt lat="46.01943" lon="6.34444">
        <ele>1767</ele>
        <time>2013-02-23T10:00:04.000Z</time>
      </trkpt>
      <trkpt lat="46.01944" lon="6.34449">
        <ele>1768.4000244141</ele>
        <time>2013-02-23T10:00:10.000Z</time>
      </trkpt>
      <trkpt lat="46.01944" lon="6.34455">
        <ele>1768.8000488281</ele>
        <time>2013-02-23T10:00:17.000Z</time>
      </trkpt>
      <trkpt lat="46.01945" lon="6.34459">
        <ele>1770.4000244141</ele>
        <time>2013-02-23T10:00:22.000Z</time>
      </trkpt>
      <trkpt lat="46.01945" lon="6.34463">
        <ele>1771.1999511719</ele>
        <time>2013-02-23T10:00:27.000Z</time>
      </trkpt>
      <trkpt lat="46.01946" lon="6.34467">
        <ele>1772.8000488281</ele>
        <time>2013-02-23T10:00:32.000Z</time>
      </trkpt>
      <trkpt lat="46.01946" lon="6.3447">
        <ele>1773.5999755859</ele>
        <time>2013-02-23T10:00:36.000Z</time>
      </trkpt>
      <trkpt lat="46.01946" lon="6.34474">
        <ele>1774.5999755859</ele>
        <time>2013-02-23T10:00:41.000Z</time>
      </trkpt>
      <trkpt lat="46.01946" lon="6.34476">
        <ele>1775.5999755859</ele>
        <time>2013-02-23T10:00:45.000Z</time>
      </trkpt>
      <trkpt lat="46.01946" lon="6.3448">
        <ele>1776.5999755859</ele>
        <time>2013-02-23T10:00:50.000Z</time>
      </trkpt>
      <trkpt lat="46.01946" lon="6.34484">
        <ele>1778</ele>
        <time>2013-02-23T10:00:56.000Z</time>
      </trkpt>
      <trkpt lat="46.01946" lon="6.34488">
        <ele>1778.4000244141</ele>
        <time>2013-02-23T10:01:02.000Z</time>
      </trkpt>
      <trkpt lat="46.01946" lon="6.34491">
        <ele>1779.4000244141</ele>
        <time>2013-02-23T10:01:07.000Z</time>
      </trkpt>
      <trkpt lat="46.01945" lon="6.34494">
        <ele>1780.4000244141</ele>
        <time>2013-02-23T10:01:12.000Z</time>
      </trkpt>
      <trkpt lat="46.01945" lon="6.34498">
        <ele>1780.8000488281</ele>
        <time>2013-02-23T10:01:17.000Z</time>
      </trkpt>
      <trkpt lat="46.01945" lon="6.34502">
        <ele>1781.8000488281</ele>
        <time>2013-02-23T10:01:23.000Z</time>
      </trkpt>
      <trkpt lat="46.01944" lon="6.34506">
        <ele>1783.8000488281</ele>
        <time>2013-02-23T10:01:29.000Z</time>
      </trkpt>
      <trkpt lat="46.01944" lon="6.34511">
        <ele>1783.8000488281</ele>
        <time>2013-02-23T10:01:36.000Z</time>
      </trkpt>
      <trkpt lat="46.01944" lon="6.34517">
        <ele>1785.5999755859</ele>
        <time>2013-02-23T10:01:44.000Z</time>
      </trkpt>
      <trkpt lat="46.01944" lon="6.34522">
        <ele>1786.1999511719</ele>
        <time>2013-02-23T10:01:50.000Z</time>
      </trkpt>
      <trkpt lat="46.01944" lon="6.34527">
        <ele>1787.1999511719</ele>
        <time>2013-02-23T10:01:56.000Z</time>
      </trkpt>
      <trkpt lat="46.01944" lon="6.34533">
        <ele>1788.5999755859</ele>
        <time>2013-02-23T10:02:02.000Z</time>
      </trkpt>
      <trkpt lat="46.01944" lon="6.34537">
        <ele>1789.5999755859</ele>
        <time>2013-02-23T10:02:07.000Z</time>
      </trkpt>
      <trkpt lat="46.01944" lon="6.34542">
        <ele>1791</ele>
        <time>2013-02-23T10:02:12.000Z</time>
      </trkpt>
      <trkpt lat="46.01944" lon="6.34547">
        <ele>1792</ele>
        <time>2013-02-23T10:02:18.000Z</time>
      </trkpt>
      <trkpt lat="46.01944" lon="6.34552">
        <ele>1793.8000488281</ele>
        <time>2013-02-23T10:02:24.000Z</time>
      </trkpt>
      <trkpt lat="46.01944" lon="6.3456">
        <ele>1794.8000488281</ele>
        <time>2013-02-23T10:02:32.000Z</time>
      </trkpt>
      <trkpt lat="46.01945" lon="6.34564">
        <ele>1795.8000488281</ele>
        <time>2013-02-23T10:02:37.000Z</time>
      </trkpt>
      <trkpt lat="46.01946" lon="6.34569">
        <ele>1797.1999511719</ele>
        <time>2013-02-23T10:02:43.000Z</time>
      </trkpt>
      <trkpt lat="46.01948" lon="6.34574">
        <ele>1797.8000488281</ele>
        <time>2013-02-23T10:02:50.000Z</time>
      </trkpt>
      <trkpt lat="46.0195" lon="6.34578">
        <ele>1798.5999755859</ele>
        <time>2013-02-23T10:02:56.000Z</time>
      </trkpt>
      <trkpt lat="46.01952" lon="6.34581">
        <ele>1799.1999511719</ele>
        <time>2013-02-23T10:03:03.000Z</time>
      </trkpt>
      <trkpt lat="46.01953" lon="6.34583">
        <ele>1800.1999511719</ele>
        <time>2013-02-23T10:03:07.000Z</time>
      </trkpt>
      <trkpt lat="46.01955" lon="6.34585">
        <ele>1800.1999511719</ele>
        <time>2013-02-23T10:03:11.000Z</time>
      </trkpt>
      <trkpt lat="46.01957" lon="6.3459">
        <ele>1801.5999755859</ele>
        <time>2013-02-23T10:03:17.000Z</time>
      </trkpt>
      <trkpt lat="46.0196" lon="6.34594">
        <ele>1803</ele>
        <time>2013-02-23T10:03:24.000Z</time>
      </trkpt>
      <trkpt lat="46.01963" lon="6.34598">
        <ele>1804</ele>
        <time>2013-02-23T10:03:30.000Z</time>
      </trkpt>
      <trkpt lat="46.01966" lon="6.34603">
        <ele>1805.4000244141</ele>
        <time>2013-02-23T10:03:37.000Z</time>
      </trkpt>
      <trkpt lat="46.01968" lon="6.34605">
        <ele>1806.8000488281</ele>
        <time>2013-02-23T10:03:42.000Z</time>
      </trkpt>
      <trkpt lat="46.0197" lon="6.34607">
        <ele>1806.8000488281</ele>
        <time>2013-02-23T10:03:46.000Z</time>
      </trkpt>
      <trkpt lat="46.01974" lon="6.34612">
        <ele>1808.1999511719</ele>
        <time>2013-02-23T10:03:53.000Z</time>
      </trkpt>
      <trkpt lat="46.01978" lon="6.34617">
        <ele>1808.1999511719</ele>
        <time>2013-02-23T10:04:00.000Z</time>
      </trkpt>
      <trkpt lat="46.01983" lon="6.34622">
        <ele>1808.8000488281</ele>
        <time>2013-02-23T10:04:07.000Z</time>
      </trkpt>
      <trkpt lat="46.01987" lon="6.34628">
        <ele>1808.8000488281</ele>
        <time>2013-02-23T10:04:14.000Z</time>
      </trkpt>
      <trkpt lat="46.01993" lon="6.34632">
        <ele>1808.8000488281</ele>
        <time>2013-02-23T10:04:21.000Z</time>
      </trkpt>
      <trkpt lat="46.01996" lon="6.34634">
        <ele>1808.8000488281</ele>
        <time>2013-02-23T10:04:27.000Z</time>
      </trkpt>
      <trkpt lat="46.01995" lon="6.34635">
        <ele>1808.8000488281</ele>
        <time>2013-02-23T10:04:32.000Z</time>
      </trkpt>
      <trkpt lat="46.01996" lon="6.34634">
        <ele>1808.8000488281</ele>
        <time>2013-02-23T10:04:51.000Z</time>
      </trkpt>
      <trkpt lat="46.01996" lon="6.34635">
        <ele>1809.8000488281</ele>
        <time>2013-02-23T10:05:09.000Z</time>
      </trkpt>
      <trkpt lat="46.01997" lon="6.34634">
        <ele>1809.8000488281</ele>
        <time>2013-02-23T10:05:27.000Z</time>
      </trkpt>
      <trkpt lat="46.01998" lon="6.34633">
        <ele>1808.8000488281</ele>
        <time>2013-02-23T10:05:35.000Z</time>
      </trkpt>
      <trkpt lat="46.01998" lon="6.34633">
        <ele>1808.1999511719</ele>
        <time>2013-02-23T10:05:46.000Z</time>
      </trkpt>
      <trkpt lat="46.01998" lon="6.34633">
        <ele>1808.1999511719</ele>
        <time>2013-02-23T10:05:53.000Z</time>
      </trkpt>
      <trkpt lat="46.01998" lon="6.34637">
        <ele>1808.1999511719</ele>
        <time>2013-02-23T10:06:05.000Z</time>
      </trkpt>
      <trkpt lat="46.01997" lon="6.34636">
        <ele>1808.1999511719</ele>
        <time>2013-02-23T10:06:09.000Z</time>
      </trkpt>
      <trkpt lat="46.01997" lon="6.34635">
        <ele>1808.1999511719</ele>
        <time>2013-02-23T10:06:16.000Z</time>
      </trkpt>
      <trkpt lat="46.01997" lon="6.34635">
        <ele>1808.8000488281</ele>
        <time>2013-02-23T10:06:22.000Z</time>
      </trkpt>
      <trkpt lat="46.01997" lon="6.34634">
        <ele>1808.8000488281</ele>
        <time>2013-02-23T10:06:41.000Z</time>
      </trkpt>
      <trkpt lat="46.01997" lon="6.34634">
        <ele>1808.8000488281</ele>
        <time>2013-02-23T10:06:49.000Z</time>
      </trkpt>
      <trkpt lat="46.01999" lon="6.34634">
        <ele>1808.8000488281</ele>
        <time>2013-02-23T10:06:56.000Z</time>
      </trkpt>
      <trkpt lat="46.02003" lon="6.34632">
        <ele>1808.1999511719</ele>
        <time>2013-02-23T10:07:01.000Z</time>
      </trkpt>
      <trkpt lat="46.02004" lon="6.34632">
        <ele>1808.1999511719</ele>
        <time>2013-02-23T10:07:06.000Z</time>
      </trkpt>
      <trkpt lat="46.02004" lon="6.34632">
        <ele>1808.1999511719</ele>
        <time>2013-02-23T10:07:11.000Z</time>
      </trkpt>
      <trkpt lat="46.02003" lon="6.34632">
        <ele>1808.8000488281</ele>
        <time>2013-02-23T10:07:19.000Z</time>
      </trkpt>
      <trkpt lat="46.02003" lon="6.34633">
        <ele>1809.8000488281</ele>
        <time>2013-02-23T10:07:24.000Z</time>
      </trkpt>
      <trkpt lat="46.02003" lon="6.34634">
        <ele>1809.8000488281</ele>
        <time>2013-02-23T10:07:31.000Z</time>
      </trkpt>
      <trkpt lat="46.02002" lon="6.34634">
        <ele>1810.1999511719</ele>
        <time>2013-02-23T10:07:38.000Z</time>
      </trkpt>
      <trkpt lat="46.02001" lon="6.34634">
        <ele>1809.1999511719</ele>
        <time>2013-02-23T10:07:44.000Z</time>
      </trkpt>
      <trkpt lat="46.02002" lon="6.34634">
        <ele>1808.8000488281</ele>
        <time>2013-02-23T10:07:53.000Z</time>
      </trkpt>
      <trkpt lat="46.02002" lon="6.34634">
        <ele>1808.1999511719</ele>
        <time>2013-02-23T10:08:13.000Z</time>
      </trkpt>
      <trkpt lat="46.02001" lon="6.34634">
        <ele>1807.8000488281</ele>
        <time>2013-02-23T10:08:27.000Z</time>
      </trkpt>
      <trkpt lat="46.02001" lon="6.34633">
        <ele>1808.8000488281</ele>
        <time>2013-02-23T10:08:39.000Z</time>
      </trkpt>
      <trkpt lat="46.02002" lon="6.34635">
        <ele>1808.1999511719</ele>
        <time>2013-02-23T10:08:45.000Z</time>
      </trkpt>
      <trkpt lat="46.02" lon="6.34637">
        <ele>1809.1999511719</ele>
        <time>2013-02-23T10:08:50.000Z</time>
      </trkpt>
      <trkpt lat="46.02" lon="6.34636">
        <ele>1809.1999511719</ele>
        <time>2013-02-23T10:08:55.000Z</time>
      </trkpt>
      <trkpt lat="46.02004" lon="6.34637">
        <ele>1807.8000488281</ele>
        <time>2013-02-23T10:09:02.000Z</time>
      </trkpt>
      <trkpt lat="46.02005" lon="6.34637">
        <ele>1806.8000488281</ele>
        <time>2013-02-23T10:09:10.000Z</time>
      </trkpt>
      <trkpt lat="46.02003" lon="6.34639">
        <ele>1808.1999511719</ele>
        <time>2013-02-23T10:09:23.000Z</time>
      </trkpt>
      <trkpt lat="46.02" lon="6.34637">
        <ele>1809.1999511719</ele>
        <time>2013-02-23T10:09:30.000Z</time>
      </trkpt>
      <trkpt lat="46.01999" lon="6.34636">
        <ele>1809.1999511719</ele>
        <time>2013-02-23T10:09:35.000Z</time>
      </trkpt>
      <trkpt lat="46.01997" lon="6.34634">
        <ele>1807.4000244141</ele>
        <time>2013-02-23T10:09:53.000Z</time>
      </trkpt>
      <trkpt lat="46.01997" lon="6.34634">
        <ele>1807.4000244141</ele>
        <time>2013-02-23T10:10:00.000Z</time>
      </trkpt>
      <trkpt lat="46.01997" lon="6.34634">
        <ele>1807.4000244141</ele>
        <time>2013-02-23T10:10:11.000Z</time>
      </trkpt>
      <trkpt lat="46.01997" lon="6.34634">
        <ele>1807.4000244141</ele>
        <time>2013-02-23T10:10:26.000Z</time>
      </trkpt>
      <trkpt lat="46.01996" lon="6.34633">
        <ele>1806.8000488281</ele>
        <time>2013-02-23T10:10:57.000Z</time>
      </trkpt>
      <trkpt lat="46.01996" lon="6.34634">
        <ele>1806.8000488281</ele>
        <time>2013-02-23T10:11:08.000Z</time>
      </trkpt>
      <trkpt lat="46.01997" lon="6.34634">
        <ele>1806.8000488281</ele>
        <time>2013-02-23T10:11:21.000Z</time>
      </trkpt>
      <trkpt lat="46.01997" lon="6.34633">
        <ele>1806.8000488281</ele>
        <time>2013-02-23T10:11:35.000Z</time>
      </trkpt>
      <trkpt lat="46.01997" lon="6.34634">
        <ele>1806.8000488281</ele>
        <time>2013-02-23T10:11:45.000Z</time>
      </trkpt>
      <trkpt lat="46.01997" lon="6.34632">
        <ele>1806.4000244141</ele>
        <time>2013-02-23T10:12:02.000Z</time>
      </trkpt>
      <trkpt lat="46.01996" lon="6.34633">
        <ele>1806.8000488281</ele>
        <time>2013-02-23T10:12:13.000Z</time>
      </trkpt>
      <trkpt lat="46.01995" lon="6.34633">
        <ele>1814.5999755859</ele>
        <time>2013-02-23T10:12:32.000Z</time>
      </trkpt>
      <trkpt lat="46.01995" lon="6.34634">
        <ele>1817.4000244141</ele>
        <time>2013-02-23T10:12:54.000Z</time>
      </trkpt>
      <trkpt lat="46.01996" lon="6.34634">
        <ele>1816.4000244141</ele>
        <time>2013-02-23T10:13:04.000Z</time>
      </trkpt>
      <trkpt lat="46.01996" lon="6.34634">
        <ele>1815</ele>
        <time>2013-02-23T10:13:28.000Z</time>
      </trkpt>
      <trkpt lat="46.01996" lon="6.34633">
        <ele>1815</ele>
        <time>2013-02-23T10:13:33.000Z</time>
      </trkpt>
      <trkpt lat="46.01996" lon="6.34633">
        <ele>1814.5999755859</ele>
        <time>2013-02-23T10:13:41.000Z</time>
      </trkpt>
      <trkpt lat="46.01996" lon="6.34633">
        <ele>1814.5999755859</ele>
        <time>2013-02-23T10:13:49.000Z</time>
      </trkpt>
      <trkpt lat="46.01997" lon="6.34634">
        <ele>1814.5999755859</ele>
        <time>2013-02-23T10:14:00.000Z</time>
      </trkpt>
      <trkpt lat="46.01997" lon="6.34633">
        <ele>1814</ele>
        <time>2013-02-23T10:14:12.000Z</time>
      </trkpt>
      <trkpt lat="46.01997" lon="6.34633">
        <ele>1814</ele>
        <time>2013-02-23T10:14:18.000Z</time>
      </trkpt>
      <trkpt lat="46.01997" lon="6.34633">
        <ele>1814</ele>
        <time>2013-02-23T10:14:24.000Z</time>
      </trkpt>
      <trkpt lat="46.01997" lon="6.34633">
        <ele>1814</ele>
        <time>2013-02-23T10:14:30.000Z</time>
      </trkpt>
      <trkpt lat="46.01997" lon="6.34633">
        <ele>1813.5999755859</ele>
        <time>2013-02-23T10:14:37.000Z</time>
      </trkpt>
      <trkpt lat="46.01997" lon="6.34633">
        <ele>1812.5999755859</ele>
        <time>2013-02-23T10:14:44.000Z</time>
      </trkpt>
      <trkpt lat="46.01997" lon="6.34633">
        <ele>1813.5999755859</ele>
        <time>2013-02-23T10:14:51.000Z</time>
      </trkpt>
      <trkpt lat="46.01997" lon="6.34633">
        <ele>1812.5999755859</ele>
        <time>2013-02-23T10:14:57.000Z</time>
      </trkpt>
      <trkpt lat="46.01997" lon="6.34633">
        <ele>1813</ele>
        <time>2013-02-23T10:15:11.000Z</time>
      </trkpt>
      <trkpt lat="46.01997" lon="6.34633">
        <ele>1813.5999755859</ele>
        <time>2013-02-23T10:15:26.000Z</time>
      </trkpt>
      <trkpt lat="46.01998" lon="6.34633">
        <ele>1813.5999755859</ele>
        <time>2013-02-23T10:15:36.000Z</time>
      </trkpt>
      <trkpt lat="46.01997" lon="6.34634">
        <ele>1813.5999755859</ele>
        <time>2013-02-23T10:15:41.000Z</time>
      </trkpt>
      <trkpt lat="46.01997" lon="6.34634">
        <ele>1813.5999755859</ele>
        <time>2013-02-23T10:15:47.000Z</time>
      </trkpt>
      <trkpt lat="46.01996" lon="6.34633">
        <ele>1813</ele>
        <time>2013-02-23T10:15:53.000Z</time>
      </trkpt>
      <trkpt lat="46.01996" lon="6.34633">
        <ele>1812.1999511719</ele>
        <time>2013-02-23T10:16:05.000Z</time>
      </trkpt>
      <trkpt lat="46.01997" lon="6.34633">
        <ele>1811.5999755859</ele>
        <time>2013-02-23T10:16:11.000Z</time>
      </trkpt>
      <trkpt lat="46.01997" lon="6.34633">
        <ele>1811.1999511719</ele>
        <time>2013-02-23T10:16:16.000Z</time>
      </trkpt>
      <trkpt lat="46.01997" lon="6.34633">
        <ele>1811.1999511719</ele>
        <time>2013-02-23T10:16:25.000Z</time>
      </trkpt>
      <trkpt lat="46.01997" lon="6.34631">
        <ele>1811.1999511719</ele>
        <time>2013-02-23T10:16:33.000Z</time>
      </trkpt>
      <trkpt lat="46.01996" lon="6.34631">
        <ele>1810.5999755859</ele>
        <time>2013-02-23T10:16:40.000Z</time>
      </trkpt>
      <trkpt lat="46.01996" lon="6.3463">
        <ele>1810.1999511719</ele>
        <time>2013-02-23T10:16:47.000Z</time>
      </trkpt>
      <trkpt lat="46.01997" lon="6.34631">
        <ele>1809.8000488281</ele>
        <time>2013-02-23T10:17:05.000Z</time>
      </trkpt>
      <trkpt lat="46.01997" lon="6.34633">
        <ele>1809.1999511719</ele>
        <time>2013-02-23T10:17:15.000Z</time>
      </trkpt>
      <trkpt lat="46.01997" lon="6.34633">
        <ele>1809.1999511719</ele>
        <time>2013-02-23T10:17:20.000Z</time>
      </trkpt>
      <trkpt lat="46.01997" lon="6.34633">
        <ele>1808.8000488281</ele>
        <time>2013-02-23T10:17:32.000Z</time>
      </trkpt>
      <trkpt lat="46.01998" lon="6.34632">
        <ele>1809.1999511719</ele>
        <time>2013-02-23T10:17:39.000Z</time>
      </trkpt>
      <trkpt lat="46.01998" lon="6.34632">
        <ele>1809.8000488281</ele>
        <time>2013-02-23T10:17:47.000Z</time>
      </trkpt>
      <trkpt lat="46.01998" lon="6.34633">
        <ele>1810.1999511719</ele>
        <time>2013-02-23T10:18:02.000Z</time>
      </trkpt>
      <trkpt lat="46.01998" lon="6.34633">
        <ele>1809.8000488281</ele>
        <time>2013-02-23T10:18:08.000Z</time>
      </trkpt>
      <trkpt lat="46.01997" lon="6.34633">
        <ele>1808.8000488281</ele>
        <time>2013-02-23T10:18:20.000Z</time>
      </trkpt>
      <trkpt lat="46.01997" lon="6.34633">
        <ele>1808.1999511719</ele>
        <time>2013-02-23T10:18:28.000Z</time>
      </trkpt>
      <trkpt lat="46.01997" lon="6.34633">
        <ele>1807.8000488281</ele>
        <time>2013-02-23T10:18:36.000Z</time>
      </trkpt>
      <trkpt lat="46.01997" lon="6.34633">
        <ele>1808.1999511719</ele>
        <time>2013-02-23T10:18:48.000Z</time>
      </trkpt>
      <trkpt lat="46.01997" lon="6.34633">
        <ele>1808.8000488281</ele>
        <time>2013-02-23T10:18:58.000Z</time>
      </trkpt>
      <trkpt lat="46.01997" lon="6.34633">
        <ele>1808.1999511719</ele>
        <time>2013-02-23T10:19:10.000Z</time>
      </trkpt>
      <trkpt lat="46.01997" lon="6.34633">
        <ele>1807.8000488281</ele>
        <time>2013-02-23T10:19:16.000Z</time>
      </trkpt>
      <trkpt lat="46.01997" lon="6.34634">
        <ele>1808.1999511719</ele>
        <time>2013-02-23T10:19:24.000Z</time>
      </trkpt>
      <trkpt lat="46.01997" lon="6.34632">
        <ele>1807.8000488281</ele>
        <time>2013-02-23T10:19:37.000Z</time>
      </trkpt>
      <trkpt lat="46.01997" lon="6.34632">
        <ele>1808.1999511719</ele>
        <time>2013-02-23T10:19:45.000Z</time>
      </trkpt>
      <trkpt lat="46.01997" lon="6.34632">
        <ele>1810.1999511719</ele>
        <time>2013-02-23T10:19:58.000Z</time>
      </trkpt>
      <trkpt lat="46.01997" lon="6.34632">
        <ele>1811.1999511719</ele>
        <time>2013-02-23T10:20:07.000Z</time>
      </trkpt>
      <trkpt lat="46.01998" lon="6.34632">
        <ele>1811.5999755859</ele>
        <time>2013-02-23T10:20:12.000Z</time>
      </trkpt>
      <trkpt lat="46.01997" lon="6.34632">
        <ele>1811.5999755859</ele>
        <time>2013-02-23T10:20:18.000Z</time>
      </trkpt>
      <trkpt lat="46.01997" lon="6.34632">
        <ele>1810.5999755859</ele>
        <time>2013-02-23T10:20:30.000Z</time>
      </trkpt>
      <trkpt lat="46.01997" lon="6.34631">
        <ele>1810.5999755859</ele>
        <time>2013-02-23T10:20:56.000Z</time>
      </trkpt>
      <trkpt lat="46.01998" lon="6.34632">
        <ele>1811.1999511719</ele>
        <time>2013-02-23T10:21:01.000Z</time>
      </trkpt>
      <trkpt lat="46.01997" lon="6.34632">
        <ele>1811.5999755859</ele>
        <time>2013-02-23T10:21:07.000Z</time>
      </trkpt>
      <trkpt lat="46.01997" lon="6.34633">
        <ele>1811.5999755859</ele>
        <time>2013-02-23T10:21:15.000Z</time>
      </trkpt>
      <trkpt lat="46.01997" lon="6.34632">
        <ele>1811.5999755859</ele>
        <time>2013-02-23T10:21:23.000Z</time>
      </trkpt>
      <trkpt lat="46.01997" lon="6.34633">
        <ele>1811.5999755859</ele>
        <time>2013-02-23T10:21:28.000Z</time>
      </trkpt>
      <trkpt lat="46.01997" lon="6.34633">
        <ele>1811.5999755859</ele>
        <time>2013-02-23T10:21:37.000Z</time>
      </trkpt>
      <trkpt lat="46.01997" lon="6.34633">
        <ele>1811.5999755859</ele>
        <time>2013-02-23T10:21:45.000Z</time>
      </trkpt>
      <trkpt lat="46.01996" lon="6.34633">
        <ele>1811.1999511719</ele>
        <time>2013-02-23T10:21:55.000Z</time>
      </trkpt>
      <trkpt lat="46.01996" lon="6.34633">
        <ele>1811.5999755859</ele>
        <time>2013-02-23T10:22:04.000Z</time>
      </trkpt>
      <trkpt lat="46.01996" lon="6.34633">
        <ele>1810.5999755859</ele>
        <time>2013-02-23T10:22:27.000Z</time>
      </trkpt>
      <trkpt lat="46.01997" lon="6.34632">
        <ele>1810.1999511719</ele>
        <time>2013-02-23T10:22:33.000Z</time>
      </trkpt>
      <trkpt lat="46.01997" lon="6.34632">
        <ele>1810.5999755859</ele>
        <time>2013-02-23T10:22:41.000Z</time>
      </trkpt>
      <trkpt lat="46.01997" lon="6.34632">
        <ele>1810.5999755859</ele>
        <time>2013-02-23T10:22:48.000Z</time>
      </trkpt>
      <trkpt lat="46.01997" lon="6.34632">
        <ele>1810.5999755859</ele>
        <time>2013-02-23T10:23:02.000Z</time>
      </trkpt>
      <trkpt lat="46.01998" lon="6.34633">
        <ele>1811.1999511719</ele>
        <time>2013-02-23T10:23:09.000Z</time>
      </trkpt>
      <trkpt lat="46.01997" lon="6.34633">
        <ele>1811.5999755859</ele>
        <time>2013-02-23T10:23:18.000Z</time>
      </trkpt>
      <trkpt lat="46.01997" lon="6.34633">
        <ele>1811.5999755859</ele>
        <time>2013-02-23T10:23:28.000Z</time>
      </trkpt>
      <trkpt lat="46.01997" lon="6.34633">
        <ele>1811.1999511719</ele>
        <time>2013-02-23T10:23:38.000Z</time>
      </trkpt>
      <trkpt lat="46.01997" lon="6.34632">
        <ele>1811.1999511719</ele>
        <time>2013-02-23T10:23:47.000Z</time>
      </trkpt>
      <trkpt lat="46.01996" lon="6.34633">
        <ele>1811.1999511719</ele>
        <time>2013-02-23T10:23:56.000Z</time>
      </trkpt>
      <trkpt lat="46.01992" lon="6.34633">
        <ele>1810.5999755859</ele>
        <time>2013-02-23T10:24:01.000Z</time>
      </trkpt>
      <trkpt lat="46.01979" lon="6.34635">
        <ele>1810.1999511719</ele>
        <time>2013-02-23T10:24:08.000Z</time>
      </trkpt>
      <trkpt lat="46.01977" lon="6.34634">
        <ele>1809.8000488281</ele>
        <time>2013-02-23T10:24:09.000Z</time>
      </trkpt>
      <trkpt lat="46.01968" lon="6.34624">
        <ele>1807.8000488281</ele>
        <time>2013-02-23T10:24:16.000Z</time>
      </trkpt>
      <trkpt lat="46.0196" lon="6.34626">
        <ele>1805</ele>
        <time>2013-02-23T10:24:20.000Z</time>
      </trkpt>
      <trkpt lat="46.01956" lon="6.34635">
        <ele>1802</ele>
        <time>2013-02-23T10:24:22.000Z</time>
      </trkpt>
      <trkpt lat="46.01948" lon="6.34632">
        <ele>1800.1999511719</ele>
        <time>2013-02-23T10:24:24.000Z</time>
      </trkpt>
      <trkpt lat="46.01939" lon="6.34635">
        <ele>1795.1999511719</ele>
        <time>2013-02-23T10:24:27.000Z</time>
      </trkpt>
      <trkpt lat="46.01935" lon="6.34638">
        <ele>1792.4000244141</ele>
        <time>2013-02-23T10:24:29.000Z</time>
      </trkpt>
      <trkpt lat="46.01928" lon="6.34628">
        <ele>1789.5999755859</ele>
        <time>2013-02-23T10:24:32.000Z</time>
      </trkpt>
      <trkpt lat="46.01923" lon="6.34634">
        <ele>1787.5999755859</ele>
        <time>2013-02-23T10:24:34.000Z</time>
      </trkpt>
      <trkpt lat="46.01915" lon="6.34649">
        <ele>1784.1999511719</ele>
        <time>2013-02-23T10:24:37.000Z</time>
      </trkpt>
      <trkpt lat="46.01904" lon="6.34661">
        <ele>1780</ele>
        <time>2013-02-23T10:24:40.000Z</time>
      </trkpt>
      <trkpt lat="46.01899" lon="6.3466">
        <ele>1778.4000244141</ele>
        <time>2013-02-23T10:24:41.000Z</time>
      </trkpt>
      <trkpt lat="46.01884" lon="6.34672">
        <ele>1771.8000488281</ele>
        <time>2013-02-23T10:24:45.000Z</time>
      </trkpt>
      <trkpt lat="46.01873" lon="6.34672">
        <ele>1768.4000244141</ele>
        <time>2013-02-23T10:24:47.000Z</time>
      </trkpt>
      <trkpt lat="46.01866" lon="6.34681">
        <ele>1765</ele>
        <time>2013-02-23T10:24:49.000Z</time>
      </trkpt>
      <trkpt lat="46.01858" lon="6.34687">
        <ele>1761.5999755859</ele>
        <time>2013-02-23T10:24:51.000Z</time>
      </trkpt>
      <trkpt lat="46.01849" lon="6.34693">
        <ele>1758.1999511719</ele>
        <time>2013-02-23T10:24:54.000Z</time>
      </trkpt>
      <trkpt lat="46.01839" lon="6.34697">
        <ele>1755.4000244141</ele>
        <time>2013-02-23T10:24:57.000Z</time>
      </trkpt>
      <trkpt lat="46.01825" lon="6.34691">
        <ele>1751.5999755859</ele>
        <time>2013-02-23T10:25:00.000Z</time>
      </trkpt>
      <trkpt lat="46.01822" lon="6.34704">
        <ele>1749.1999511719</ele>
        <time>2013-02-23T10:25:02.000Z</time>
      </trkpt>
      <trkpt lat="46.01815" lon="6.34705">
        <ele>1746.8000488281</ele>
        <time>2013-02-23T10:25:04.000Z</time>
      </trkpt>
      <trkpt lat="46.01813" lon="6.34695">
        <ele>1744.8000488281</ele>
        <time>2013-02-23T10:25:07.000Z</time>
      </trkpt>
      <trkpt lat="46.01813" lon="6.34696">
        <ele>1744.4000244141</ele>
        <time>2013-02-23T10:25:11.000Z</time>
      </trkpt>
      <trkpt lat="46.01813" lon="6.34697">
        <ele>1745.8000488281</ele>
        <time>2013-02-23T10:25:21.000Z</time>
      </trkpt>
      <trkpt lat="46.01813" lon="6.34698">
        <ele>1745.4000244141</ele>
        <time>2013-02-23T10:25:29.000Z</time>
      </trkpt>
      <trkpt lat="46.01811" lon="6.34698">
        <ele>1745.4000244141</ele>
        <time>2013-02-23T10:25:32.000Z</time>
      </trkpt>
      <trkpt lat="46.01802" lon="6.34701">
        <ele>1742.4000244141</ele>
        <time>2013-02-23T10:25:36.000Z</time>
      </trkpt>
      <trkpt lat="46.01798" lon="6.34702">
        <ele>1741</ele>
        <time>2013-02-23T10:25:39.000Z</time>
      </trkpt>
      <trkpt lat="46.01788" lon="6.34707">
        <ele>1737.5999755859</ele>
        <time>2013-02-23T10:25:42.000Z</time>
      </trkpt>
      <trkpt lat="46.01782" lon="6.34715">
        <ele>1735.5999755859</ele>
        <time>2013-02-23T10:25:44.000Z</time>
      </trkpt>
      <trkpt lat="46.01775" lon="6.3472">
        <ele>1731.8000488281</ele>
        <time>2013-02-23T10:25:47.000Z</time>
      </trkpt>
      <trkpt lat="46.01774" lon="6.34723">
        <ele>1731.4000244141</ele>
        <time>2013-02-23T10:25:49.000Z</time>
      </trkpt>
      <trkpt lat="46.01763" lon="6.34716">
        <ele>1727.5999755859</ele>
        <time>2013-02-23T10:25:53.000Z</time>
      </trkpt>
      <trkpt lat="46.01756" lon="6.34712">
        <ele>1724.5999755859</ele>
        <time>2013-02-23T10:25:56.000Z</time>
      </trkpt>
      <trkpt lat="46.0175" lon="6.34709">
        <ele>1720.8000488281</ele>
        <time>2013-02-23T10:25:58.000Z</time>
      </trkpt>
      <trkpt lat="46.0174" lon="6.34711">
        <ele>1716.4000244141</ele>
        <time>2013-02-23T10:26:01.000Z</time>
      </trkpt>
      <trkpt lat="46.01732" lon="6.34712">
        <ele>1711.5999755859</ele>
        <time>2013-02-23T10:26:05.000Z</time>
      </trkpt>
      <trkpt lat="46.0173" lon="6.34705">
        <ele>1710.1999511719</ele>
        <time>2013-02-23T10:26:07.000Z</time>
      </trkpt>
      <trkpt lat="46.01729" lon="6.34704">
        <ele>1710.1999511719</ele>
        <time>2013-02-23T10:26:14.000Z</time>
      </trkpt>
      <trkpt lat="46.01723" lon="6.34689">
        <ele>1708.4000244141</ele>
        <time>2013-02-23T10:26:19.000Z</time>
      </trkpt>
      <trkpt lat="46.01719" lon="6.34679">
        <ele>1706.8000488281</ele>
        <time>2013-02-23T10:26:22.000Z</time>
      </trkpt>
      <trkpt lat="46.01715" lon="6.34666">
        <ele>1705</ele>
        <time>2013-02-23T10:26:26.000Z</time>
      </trkpt>
      <trkpt lat="46.01713" lon="6.3466">
        <ele>1705</ele>
        <time>2013-02-23T10:26:30.000Z</time>
      </trkpt>
      <trkpt lat="46.01713" lon="6.3466">
        <ele>1705</ele>
        <time>2013-02-23T10:26:39.000Z</time>
      </trkpt>
      <trkpt lat="46.01711" lon="6.34651">
        <ele>1703.4000244141</ele>
        <time>2013-02-23T10:26:49.000Z</time>
      </trkpt>
      <trkpt lat="46.01709" lon="6.34638">
        <ele>1703</ele>
        <time>2013-02-23T10:26:54.000Z</time>
      </trkpt>
      <trkpt lat="46.01708" lon="6.34634">
        <ele>1702.5999755859</ele>
        <time>2013-02-23T10:26:59.000Z</time>
      </trkpt>
      <trkpt lat="46.01707" lon="6.34634">
        <ele>1702.5999755859</ele>
        <time>2013-02-23T10:27:00.000Z</time>
      </trkpt>
      <trkpt lat="46.01703" lon="6.34622">
        <ele>1700.1999511719</ele>
        <time>2013-02-23T10:27:05.000Z</time>
      </trkpt>
      <trkpt lat="46.01701" lon="6.34614">
        <ele>1698.5999755859</ele>
        <time>2013-02-23T10:27:14.000Z</time>
      </trkpt>
      <trkpt lat="46.017" lon="6.34597">
        <ele>1697.1999511719</ele>
        <time>2013-02-23T10:27:19.000Z</time>
      </trkpt>
      <trkpt lat="46.01698" lon="6.34579">
        <ele>1694.8000488281</ele>
        <time>2013-02-23T10:27:24.000Z</time>
      </trkpt>
      <trkpt lat="46.01699" lon="6.34568">
        <ele>1693.8000488281</ele>
        <time>2013-02-23T10:27:29.000Z</time>
      </trkpt>
      <trkpt lat="46.01697" lon="6.34568">
        <ele>1694.8000488281</ele>
        <time>2013-02-23T10:27:56.000Z</time>
      </trkpt>
      <trkpt lat="46.01697" lon="6.34568">
        <ele>1694.8000488281</ele>
        <time>2013-02-23T10:28:02.000Z</time>
      </trkpt>
      <trkpt lat="46.01696" lon="6.34568">
        <ele>1693.8000488281</ele>
        <time>2013-02-23T10:28:08.000Z</time>
      </trkpt>
      <trkpt lat="46.01689" lon="6.34578">
        <ele>1692</ele>
        <time>2013-02-23T10:28:11.000Z</time>
      </trkpt>
      <trkpt lat="46.01687" lon="6.34582">
        <ele>1691.4000244141</ele>
        <time>2013-02-23T10:28:12.000Z</time>
      </trkpt>
      <trkpt lat="46.0168" lon="6.346">
        <ele>1687.5999755859</ele>
        <time>2013-02-23T10:28:17.000Z</time>
      </trkpt>
      <trkpt lat="46.01675" lon="6.34623">
        <ele>1684.1999511719</ele>
        <time>2013-02-23T10:28:21.000Z</time>
      </trkpt>
      <trkpt lat="46.01671" lon="6.34647">
        <ele>1681</ele>
        <time>2013-02-23T10:28:26.000Z</time>
      </trkpt>
      <trkpt lat="46.01667" lon="6.34662">
        <ele>1677.5999755859</ele>
        <time>2013-02-23T10:28:30.000Z</time>
      </trkpt>
      <trkpt lat="46.01666" lon="6.3467">
        <ele>1676.5999755859</ele>
        <time>2013-02-23T10:28:32.000Z</time>
      </trkpt>
      <trkpt lat="46.01664" lon="6.34674">
        <ele>1675.1999511719</ele>
        <time>2013-02-23T10:28:38.000Z</time>
      </trkpt>
      <trkpt lat="46.01663" lon="6.34675">
        <ele>1674.1999511719</ele>
        <time>2013-02-23T10:28:42.000Z</time>
      </trkpt>
      <trkpt lat="46.01661" lon="6.34679">
        <ele>1673.1999511719</ele>
        <time>2013-02-23T10:28:45.000Z</time>
      </trkpt>
      <trkpt lat="46.01659" lon="6.34681">
        <ele>1672.1999511719</ele>
        <time>2013-02-23T10:28:50.000Z</time>
      </trkpt>
      <trkpt lat="46.01654" lon="6.3467">
        <ele>1668.8000488281</ele>
        <time>2013-02-23T10:28:55.000Z</time>
      </trkpt>
      <trkpt lat="46.01646" lon="6.34671">
        <ele>1665</ele>
        <time>2013-02-23T10:28:59.000Z</time>
      </trkpt>
      <trkpt lat="46.01643" lon="6.34663">
        <ele>1662.5999755859</ele>
        <time>2013-02-23T10:29:01.000Z</time>
      </trkpt>
      <trkpt lat="46.0164" lon="6.34653">
        <ele>1660.1999511719</ele>
        <time>2013-02-23T10:29:04.000Z</time>
      </trkpt>
      <trkpt lat="46.01635" lon="6.34656">
        <ele>1656</ele>
        <time>2013-02-23T10:29:08.000Z</time>
      </trkpt>
      <trkpt lat="46.01629" lon="6.34656">
        <ele>1652.5999755859</ele>
        <time>2013-02-23T10:29:11.000Z</time>
      </trkpt>
      <trkpt lat="46.01628" lon="6.34658">
        <ele>1651.5999755859</ele>
        <time>2013-02-23T10:29:12.000Z</time>
      </trkpt>
      <trkpt lat="46.01625" lon="6.34673">
        <ele>1647.8000488281</ele>
        <time>2013-02-23T10:29:18.000Z</time>
      </trkpt>
      <trkpt lat="46.01624" lon="6.34678">
        <ele>1647.1999511719</ele>
        <time>2013-02-23T10:29:19.000Z</time>
      </trkpt>
      <trkpt lat="46.01622" lon="6.34703">
        <ele>1644.4000244141</ele>
        <time>2013-02-23T10:29:25.000Z</time>
      </trkpt>
      <trkpt lat="46.0162" lon="6.34719">
        <ele>1643</ele>
        <time>2013-02-23T10:29:30.000Z</time>
      </trkpt>
      <trkpt lat="46.0162" lon="6.34721">
        <ele>1642.4000244141</ele>
        <time>2013-02-23T10:29:35.000Z</time>
      </trkpt>
      <trkpt lat="46.01618" lon="6.34728">
        <ele>1640</ele>
        <time>2013-02-23T10:29:39.000Z</time>
      </trkpt>
      <trkpt lat="46.01613" lon="6.34757">
        <ele>1635.8000488281</ele>
        <time>2013-02-23T10:29:44.000Z</time>
      </trkpt>
      <trkpt lat="46.0161" lon="6.34783">
        <ele>1631.4000244141</ele>
        <time>2013-02-23T10:29:49.000Z</time>
      </trkpt>
      <trkpt lat="46.01608" lon="6.34801">
        <ele>1628.5999755859</ele>
        <time>2013-02-23T10:29:53.000Z</time>
      </trkpt>
      <trkpt lat="46.01606" lon="6.34828">
        <ele>1625.1999511719</ele>
        <time>2013-02-23T10:29:58.000Z</time>
      </trkpt>
      <trkpt lat="46.01604" lon="6.34853">
        <ele>1622.8000488281</ele>
        <time>2013-02-23T10:30:03.000Z</time>
      </trkpt>
      <trkpt lat="46.01601" lon="6.34877">
        <ele>1619.8000488281</ele>
        <time>2013-02-23T10:30:09.000Z</time>
      </trkpt>
      <trkpt lat="46.01599" lon="6.34896">
        <ele>1618.4000244141</ele>
        <time>2013-02-23T10:30:14.000Z</time>
      </trkpt>
      <trkpt lat="46.01596" lon="6.34918">
        <ele>1616.4000244141</ele>
        <time>2013-02-23T10:30:20.000Z</time>
      </trkpt>
      <trkpt lat="46.01597" lon="6.3493">
        <ele>1616</ele>
        <time>2013-02-23T10:30:25.000Z</time>
      </trkpt>
      <trkpt lat="46.01597" lon="6.3493">
        <ele>1615</ele>
        <time>2013-02-23T10:30:31.000Z</time>
      </trkpt>
      <trkpt lat="46.01596" lon="6.34932">
        <ele>1614.5999755859</ele>
        <time>2013-02-23T10:30:33.000Z</time>
      </trkpt>
      <trkpt lat="46.01585" lon="6.34947">
        <ele>1611.1999511719</ele>
        <time>2013-02-23T10:30:37.000Z</time>
      </trkpt>
      <trkpt lat="46.01577" lon="6.34958">
        <ele>1609.8000488281</ele>
        <time>2013-02-23T10:30:39.000Z</time>
      </trkpt>
      <trkpt lat="46.01568" lon="6.34972">
        <ele>1608.4000244141</ele>
        <time>2013-02-23T10:30:44.000Z</time>
      </trkpt>
      <trkpt lat="46.01567" lon="6.34973">
        <ele>1608.4000244141</ele>
        <time>2013-02-23T10:30:49.000Z</time>
      </trkpt>
      <trkpt lat="46.01567" lon="6.34974">
        <ele>1608.4000244141</ele>
        <time>2013-02-23T10:30:57.000Z</time>
      </trkpt>
      <trkpt lat="46.01567" lon="6.34974">
        <ele>1608.4000244141</ele>
        <time>2013-02-23T10:31:02.000Z</time>
      </trkpt>
      <trkpt lat="46.01568" lon="6.34973">
        <ele>1608.4000244141</ele>
        <time>2013-02-23T10:31:31.000Z</time>
      </trkpt>
      <trkpt lat="46.01567" lon="6.34973">
        <ele>1608.4000244141</ele>
        <time>2013-02-23T10:31:42.000Z</time>
      </trkpt>
      <trkpt lat="46.01567" lon="6.34973">
        <ele>1608.8000488281</ele>
        <time>2013-02-23T10:31:47.000Z</time>
      </trkpt>
      <trkpt lat="46.01567" lon="6.34973">
        <ele>1609.1999511719</ele>
        <time>2013-02-23T10:31:52.000Z</time>
      </trkpt>
      <trkpt lat="46.01568" lon="6.34972">
        <ele>1609.8000488281</ele>
        <time>2013-02-23T10:32:01.000Z</time>
      </trkpt>
      <trkpt lat="46.01567" lon="6.34972">
        <ele>1610.1999511719</ele>
        <time>2013-02-23T10:32:16.000Z</time>
      </trkpt>
      <trkpt lat="46.01566" lon="6.34972">
        <ele>1610.1999511719</ele>
        <time>2013-02-23T10:32:23.000Z</time>
      </trkpt>
      <trkpt lat="46.01567" lon="6.34973">
        <ele>1611.1999511719</ele>
        <time>2013-02-23T10:32:31.000Z</time>
      </trkpt>
      <trkpt lat="46.01568" lon="6.34972">
        <ele>1610.1999511719</ele>
        <time>2013-02-23T10:32:53.000Z</time>
      </trkpt>
      <trkpt lat="46.01569" lon="6.34974">
        <ele>1610.1999511719</ele>
        <time>2013-02-23T10:33:12.000Z</time>
      </trkpt>
      <trkpt lat="46.01569" lon="6.34973">
        <ele>1609.8000488281</ele>
        <time>2013-02-23T10:33:23.000Z</time>
      </trkpt>
      <trkpt lat="46.01569" lon="6.34973">
        <ele>1609.1999511719</ele>
        <time>2013-02-23T10:33:29.000Z</time>
      </trkpt>
      <trkpt lat="46.01568" lon="6.34973">
        <ele>1609.8000488281</ele>
        <time>2013-02-23T10:33:36.000Z</time>
      </trkpt>
      <trkpt lat="46.01569" lon="6.34973">
        <ele>1609.8000488281</ele>
        <time>2013-02-23T10:33:47.000Z</time>
      </trkpt>
      <trkpt lat="46.01569" lon="6.34973">
        <ele>1609.8000488281</ele>
        <time>2013-02-23T10:34:01.000Z</time>
      </trkpt>
      <trkpt lat="46.01569" lon="6.34973">
        <ele>1609.8000488281</ele>
        <time>2013-02-23T10:34:12.000Z</time>
      </trkpt>
      <trkpt lat="46.01568" lon="6.34973">
        <ele>1609.8000488281</ele>
        <time>2013-02-23T10:34:20.000Z</time>
      </trkpt>
      <trkpt lat="46.01568" lon="6.34972">
        <ele>1608.8000488281</ele>
        <time>2013-02-23T10:34:34.000Z</time>
      </trkpt>
      <trkpt lat="46.01567" lon="6.34973">
        <ele>1608.4000244141</ele>
        <time>2013-02-23T10:34:53.000Z</time>
      </trkpt>
      <trkpt lat="46.01568" lon="6.34973">
        <ele>1608.8000488281</ele>
        <time>2013-02-23T10:35:03.000Z</time>
      </trkpt>
      <trkpt lat="46.01568" lon="6.34972">
        <ele>1609.1999511719</ele>
        <time>2013-02-23T10:35:13.000Z</time>
      </trkpt>
      <trkpt lat="46.01568" lon="6.34972">
        <ele>1609.1999511719</ele>
        <time>2013-02-23T10:35:25.000Z</time>
      </trkpt>
      <trkpt lat="46.01568" lon="6.34972">
        <ele>1609.8000488281</ele>
        <time>2013-02-23T10:35:35.000Z</time>
      </trkpt>
      <trkpt lat="46.01568" lon="6.34972">
        <ele>1609.1999511719</ele>
        <time>2013-02-23T10:35:44.000Z</time>
      </trkpt>
      <trkpt lat="46.01568" lon="6.34972">
        <ele>1609.1999511719</ele>
        <time>2013-02-23T10:35:57.000Z</time>
      </trkpt>
      <trkpt lat="46.01568" lon="6.34972">
        <ele>1608.8000488281</ele>
        <time>2013-02-23T10:36:04.000Z</time>
      </trkpt>
      <trkpt lat="46.01568" lon="6.34972">
        <ele>1609.1999511719</ele>
        <time>2013-02-23T10:36:10.000Z</time>
      </trkpt>
      <trkpt lat="46.01568" lon="6.34972">
        <ele>1609.1999511719</ele>
        <time>2013-02-23T10:36:16.000Z</time>
      </trkpt>
      <trkpt lat="46.01567" lon="6.34972">
        <ele>1609.1999511719</ele>
        <time>2013-02-23T10:36:29.000Z</time>
      </trkpt>
      <trkpt lat="46.01569" lon="6.34972">
        <ele>1609.1999511719</ele>
        <time>2013-02-23T10:36:51.000Z</time>
      </trkpt>
      <trkpt lat="46.01568" lon="6.34973">
        <ele>1609.1999511719</ele>
        <time>2013-02-23T10:37:02.000Z</time>
      </trkpt>
      <trkpt lat="46.01569" lon="6.34972">
        <ele>1608.8000488281</ele>
        <time>2013-02-23T10:37:07.000Z</time>
      </trkpt>
      <trkpt lat="46.01569" lon="6.34972">
        <ele>1608.4000244141</ele>
        <time>2013-02-23T10:37:18.000Z</time>
      </trkpt>
      <trkpt lat="46.01569" lon="6.34973">
        <ele>1609.1999511719</ele>
        <time>2013-02-23T10:37:23.000Z</time>
      </trkpt>
      <trkpt lat="46.01568" lon="6.34972">
        <ele>1607.4000244141</ele>
        <time>2013-02-23T10:37:47.000Z</time>
      </trkpt>
      <trkpt lat="46.01568" lon="6.34973">
        <ele>1607.8000488281</ele>
        <time>2013-02-23T10:37:58.000Z</time>
      </trkpt>
      <trkpt lat="46.01567" lon="6.34973">
        <ele>1608.4000244141</ele>
        <time>2013-02-23T10:38:18.000Z</time>
      </trkpt>
      <trkpt lat="46.01567" lon="6.34974">
        <ele>1608.4000244141</ele>
        <time>2013-02-23T10:38:30.000Z</time>
      </trkpt>
      <trkpt lat="46.01567" lon="6.34974">
        <ele>1608.4000244141</ele>
        <time>2013-02-23T10:39:24.000Z</time>
      </trkpt>
      <trkpt lat="46.01566" lon="6.34976">
        <ele>1609.1999511719</ele>
        <time>2013-02-23T10:39:58.000Z</time>
      </trkpt>
      <trkpt lat="46.01563" lon="6.34982">
        <ele>1610.1999511719</ele>
        <time>2013-02-23T10:40:04.000Z</time>
      </trkpt>
      <trkpt lat="46.01559" lon="6.34993">
        <ele>1611.1999511719</ele>
        <time>2013-02-23T10:40:13.000Z</time>
      </trkpt>
      <trkpt lat="46.01556" lon="6.34999">
        <ele>1612.1999511719</ele>
        <time>2013-02-23T10:40:19.000Z</time>
      </trkpt>
      <trkpt lat="46.01552" lon="6.35004">
        <ele>1612.5999755859</ele>
        <time>2013-02-23T10:40:25.000Z</time>
      </trkpt>
      <trkpt lat="46.01547" lon="6.35007">
        <ele>1614.5999755859</ele>
        <time>2013-02-23T10:40:32.000Z</time>
      </trkpt>
      <trkpt lat="46.01543" lon="6.35009">
        <ele>1616.4000244141</ele>
        <time>2013-02-23T10:40:38.000Z</time>
      </trkpt>
      <trkpt lat="46.01537" lon="6.35013">
        <ele>1617</ele>
        <time>2013-02-23T10:40:45.000Z</time>
      </trkpt>
      <trkpt lat="46.01532" lon="6.35016">
        <ele>1618</ele>
        <time>2013-02-23T10:40:51.000Z</time>
      </trkpt>
      <trkpt lat="46.01527" lon="6.35018">
        <ele>1618.8000488281</ele>
        <time>2013-02-23T10:40:57.000Z</time>
      </trkpt>
      <trkpt lat="46.01523" lon="6.35018">
        <ele>1619.4000244141</ele>
        <time>2013-02-23T10:41:02.000Z</time>
      </trkpt>
      <trkpt lat="46.01519" lon="6.35019">
        <ele>1620.4000244141</ele>
        <time>2013-02-23T10:41:07.000Z</time>
      </trkpt>
      <trkpt lat="46.01515" lon="6.35017">
        <ele>1620.8000488281</ele>
        <time>2013-02-23T10:41:12.000Z</time>
      </trkpt>
      <trkpt lat="46.0151" lon="6.35012">
        <ele>1620.8000488281</ele>
        <time>2013-02-23T10:41:17.000Z</time>
      </trkpt>
      <trkpt lat="46.01509" lon="6.35011">
        <ele>1620.4000244141</ele>
        <time>2013-02-23T10:41:18.000Z</time>
      </trkpt>
      <trkpt lat="46.01504" lon="6.35004">
        <ele>1619.4000244141</ele>
        <time>2013-02-23T10:41:23.000Z</time>
      </trkpt>
      <trkpt lat="46.01497" lon="6.34996">
        <ele>1618</ele>
        <time>2013-02-23T10:41:29.000Z</time>
      </trkpt>
      <trkpt lat="46.01488" lon="6.34987">
        <ele>1617</ele>
        <time>2013-02-23T10:41:37.000Z</time>
      </trkpt>
      <trkpt lat="46.01481" lon="6.34981">
        <ele>1616.4000244141</ele>
        <time>2013-02-23T10:41:43.000Z</time>
      </trkpt>
      <trkpt lat="46.01474" lon="6.34977">
        <ele>1616.4000244141</ele>
        <time>2013-02-23T10:41:48.000Z</time>
      </trkpt>
      <trkpt lat="46.01466" lon="6.34971">
        <ele>1615.5999755859</ele>
        <time>2013-02-23T10:41:55.000Z</time>
      </trkpt>
      <trkpt lat="46.01458" lon="6.34965">
        <ele>1614.5999755859</ele>
        <time>2013-02-23T10:42:01.000Z</time>
      </trkpt>
      <trkpt lat="46.01452" lon="6.34961">
        <ele>1614.5999755859</ele>
        <time>2013-02-23T10:42:06.000Z</time>
      </trkpt>
      <trkpt lat="46.01446" lon="6.34954">
        <ele>1615</ele>
        <time>2013-02-23T10:42:13.000Z</time>
      </trkpt>
      <trkpt lat="46.0144" lon="6.34946">
        <ele>1616</ele>
        <time>2013-02-23T10:42:20.000Z</time>
      </trkpt>
      <trkpt lat="46.01433" lon="6.34937">
        <ele>1615.5999755859</ele>
        <time>2013-02-23T10:42:27.000Z</time>
      </trkpt>
      <trkpt lat="46.01428" lon="6.34931">
        <ele>1615.5999755859</ele>
        <time>2013-02-23T10:42:33.000Z</time>
      </trkpt>
      <trkpt lat="46.01426" lon="6.3493">
        <ele>1616</ele>
        <time>2013-02-23T10:42:36.000Z</time>
      </trkpt>
      <trkpt lat="46.01417" lon="6.34921">
        <ele>1615.5999755859</ele>
        <time>2013-02-23T10:42:44.000Z</time>
      </trkpt>
      <trkpt lat="46.0141" lon="6.34915">
        <ele>1616</ele>
        <time>2013-02-23T10:42:51.000Z</time>
      </trkpt>
      <trkpt lat="46.01404" lon="6.34909">
        <ele>1616</ele>
        <time>2013-02-23T10:42:57.000Z</time>
      </trkpt>
      <trkpt lat="46.01398" lon="6.34903">
        <ele>1616</ele>
        <time>2013-02-23T10:43:03.000Z</time>
      </trkpt>
      <trkpt lat="46.01391" lon="6.34897">
        <ele>1615.5999755859</ele>
        <time>2013-02-23T10:43:10.000Z</time>
      </trkpt>
      <trkpt lat="46.01384" lon="6.34889">
        <ele>1615</ele>
        <time>2013-02-23T10:43:16.000Z</time>
      </trkpt>
      <trkpt lat="46.01377" lon="6.34881">
        <ele>1615</ele>
        <time>2013-02-23T10:43:23.000Z</time>
      </trkpt>
      <trkpt lat="46.01371" lon="6.34873">
        <ele>1615</ele>
        <time>2013-02-23T10:43:28.000Z</time>
      </trkpt>
      <trkpt lat="46.01364" lon="6.34864">
        <ele>1614.5999755859</ele>
        <time>2013-02-23T10:43:34.000Z</time>
      </trkpt>
      <trkpt lat="46.01358" lon="6.34856">
        <ele>1614.5999755859</ele>
        <time>2013-02-23T10:43:40.000Z</time>
      </trkpt>
      <trkpt lat="46.01358" lon="6.34855">
        <ele>1614</ele>
        <time>2013-02-23T10:43:47.000Z</time>
      </trkpt>
      <trkpt lat="46.01355" lon="6.34857">
        <ele>1613.1999511719</ele>
        <time>2013-02-23T10:44:00.000Z</time>
      </trkpt>
      <trkpt lat="46.01355" lon="6.34858">
        <ele>1612.5999755859</ele>
        <time>2013-02-23T10:44:01.000Z</time>
      </trkpt>
      <trkpt lat="46.01342" lon="6.34859">
        <ele>1609.8000488281</ele>
        <time>2013-02-23T10:44:07.000Z</time>
      </trkpt>
      <trkpt lat="46.01321" lon="6.34858">
        <ele>1606.4000244141</ele>
        <time>2013-02-23T10:44:14.000Z</time>
      </trkpt>
      <trkpt lat="46.01307" lon="6.34855">
        <ele>1603.5999755859</ele>
        <time>2013-02-23T10:44:20.000Z</time>
      </trkpt>
      <trkpt lat="46.01288" lon="6.34853">
        <ele>1599.5999755859</ele>
        <time>2013-02-23T10:44:26.000Z</time>
      </trkpt>
      <trkpt lat="46.01261" lon="6.34846">
        <ele>1593.4000244141</ele>
        <time>2013-02-23T10:44:32.000Z</time>
      </trkpt>
      <trkpt lat="46.01249" lon="6.34842">
        <ele>1591</ele>
        <time>2013-02-23T10:44:37.000Z</time>
      </trkpt>
      <trkpt lat="46.01241" lon="6.34843">
        <ele>1589.5999755859</ele>
        <time>2013-02-23T10:44:42.000Z</time>
      </trkpt>
      <trkpt lat="46.01234" lon="6.34842">
        <ele>1588.1999511719</ele>
        <time>2013-02-23T10:44:46.000Z</time>
      </trkpt>
      <trkpt lat="46.01228" lon="6.34841">
        <ele>1587.5999755859</ele>
        <time>2013-02-23T10:44:50.000Z</time>
      </trkpt>
      <trkpt lat="46.01223" lon="6.34839">
        <ele>1587.1999511719</ele>
        <time>2013-02-23T10:44:53.000Z</time>
      </trkpt>
      <trkpt lat="46.01215" lon="6.34838">
        <ele>1587.1999511719</ele>
        <time>2013-02-23T10:44:58.000Z</time>
      </trkpt>
      <trkpt lat="46.01209" lon="6.34838">
        <ele>1586.5999755859</ele>
        <time>2013-02-23T10:45:02.000Z</time>
      </trkpt>
      <trkpt lat="46.01202" lon="6.34838">
        <ele>1586.1999511719</ele>
        <time>2013-02-23T10:45:07.000Z</time>
      </trkpt>
      <trkpt lat="46.01196" lon="6.34838">
        <ele>1586.5999755859</ele>
        <time>2013-02-23T10:45:13.000Z</time>
      </trkpt>
      <trkpt lat="46.01192" lon="6.34837">
        <ele>1586.5999755859</ele>
        <time>2013-02-23T10:45:20.000Z</time>
      </trkpt>
      <trkpt lat="46.01189" lon="6.34838">
        <ele>1586.1999511719</ele>
        <time>2013-02-23T10:45:25.000Z</time>
      </trkpt>
      <trkpt lat="46.01187" lon="6.34838">
        <ele>1586.1999511719</ele>
        <time>2013-02-23T10:45:31.000Z</time>
      </trkpt>
      <trkpt lat="46.01187" lon="6.34838">
        <ele>1586.5999755859</ele>
        <time>2013-02-23T10:45:50.000Z</time>
      </trkpt>
      <trkpt lat="46.01187" lon="6.34838">
        <ele>1586.1999511719</ele>
        <time>2013-02-23T10:45:59.000Z</time>
      </trkpt>
      <trkpt lat="46.01185" lon="6.34839">
        <ele>1586.1999511719</ele>
        <time>2013-02-23T10:46:06.000Z</time>
      </trkpt>
      <trkpt lat="46.01184" lon="6.3484">
        <ele>1586.1999511719</ele>
        <time>2013-02-23T10:46:07.000Z</time>
      </trkpt>
      <trkpt lat="46.01179" lon="6.34848">
        <ele>1586.1999511719</ele>
        <time>2013-02-23T10:46:13.000Z</time>
      </trkpt>
      <trkpt lat="46.01177" lon="6.34851">
        <ele>1586.5999755859</ele>
        <time>2013-02-23T10:46:16.000Z</time>
      </trkpt>
      <trkpt lat="46.01175" lon="6.34855">
        <ele>1586.5999755859</ele>
        <time>2013-02-23T10:46:19.000Z</time>
      </trkpt>
      <trkpt lat="46.01173" lon="6.34861">
        <ele>1587.5999755859</ele>
        <time>2013-02-23T10:46:24.000Z</time>
      </trkpt>
      <trkpt lat="46.01171" lon="6.34868">
        <ele>1587.5999755859</ele>
        <time>2013-02-23T10:46:29.000Z</time>
      </trkpt>
      <trkpt lat="46.01171" lon="6.34873">
        <ele>1587.5999755859</ele>
        <time>2013-02-23T10:46:33.000Z</time>
      </trkpt>
      <trkpt lat="46.01169" lon="6.3488">
        <ele>1586.5999755859</ele>
        <time>2013-02-23T10:46:38.000Z</time>
      </trkpt>
      <trkpt lat="46.01166" lon="6.34888">
        <ele>1586.5999755859</ele>
        <time>2013-02-23T10:46:44.000Z</time>
      </trkpt>
      <trkpt lat="46.01166" lon="6.3489">
        <ele>1586.1999511719</ele>
        <time>2013-02-23T10:46:45.000Z</time>
      </trkpt>
      <trkpt lat="46.01165" lon="6.34896">
        <ele>1585.8000488281</ele>
        <time>2013-02-23T10:46:49.000Z</time>
      </trkpt>
      <trkpt lat="46.0117" lon="6.34902">
        <ele>1585.1999511719</ele>
        <time>2013-02-23T10:46:53.000Z</time>
      </trkpt>
      <trkpt lat="46.01162" lon="6.34912">
        <ele>1581.4000244141</ele>
        <time>2013-02-23T10:46:58.000Z</time>
      </trkpt>
      <trkpt lat="46.01152" lon="6.34925">
        <ele>1579</ele>
        <time>2013-02-23T10:47:03.000Z</time>
      </trkpt>
      <trkpt lat="46.01142" lon="6.34942">
        <ele>1575.5999755859</ele>
        <time>2013-02-23T10:47:09.000Z</time>
      </trkpt>
      <trkpt lat="46.0114" lon="6.34943">
        <ele>1575.1999511719</ele>
        <time>2013-02-23T10:47:15.000Z</time>
      </trkpt>
      <trkpt lat="46.01139" lon="6.34944">
        <ele>1575.5999755859</ele>
        <time>2013-02-23T10:47:22.000Z</time>
      </trkpt>
      <trkpt lat="46.01137" lon="6.34946">
        <ele>1577</ele>
        <time>2013-02-23T10:47:34.000Z</time>
      </trkpt>
      <trkpt lat="46.0113" lon="6.34954">
        <ele>1578</ele>
        <time>2013-02-23T10:47:42.000Z</time>
      </trkpt>
      <trkpt lat="46.01129" lon="6.34954">
        <ele>1578</ele>
        <time>2013-02-23T10:47:43.000Z</time>
      </trkpt>
      <trkpt lat="46.01123" lon="6.34958">
        <ele>1577</ele>
        <time>2013-02-23T10:47:48.000Z</time>
      </trkpt>
      <trkpt lat="46.01114" lon="6.34958">
        <ele>1577.5999755859</ele>
        <time>2013-02-23T10:47:54.000Z</time>
      </trkpt>
      <trkpt lat="46.01105" lon="6.34958">
        <ele>1576.5999755859</ele>
        <time>2013-02-23T10:48:00.000Z</time>
      </trkpt>
      <trkpt lat="46.01098" lon="6.34958">
        <ele>1576.1999511719</ele>
        <time>2013-02-23T10:48:06.000Z</time>
      </trkpt>
      <trkpt lat="46.01096" lon="6.34959">
        <ele>1576.1999511719</ele>
        <time>2013-02-23T10:48:08.000Z</time>
      </trkpt>
      <trkpt lat="46.01094" lon="6.34963">
        <ele>1576.5999755859</ele>
        <time>2013-02-23T10:48:12.000Z</time>
      </trkpt>
      <trkpt lat="46.01089" lon="6.3497">
        <ele>1577</ele>
        <time>2013-02-23T10:48:18.000Z</time>
      </trkpt>
      <trkpt lat="46.01087" lon="6.34976">
        <ele>1578.5999755859</ele>
        <time>2013-02-23T10:48:23.000Z</time>
      </trkpt>
      <trkpt lat="46.01087" lon="6.34979">
        <ele>1579.4000244141</ele>
        <time>2013-02-23T10:48:26.000Z</time>
      </trkpt>
      <trkpt lat="46.01084" lon="6.34987">
        <ele>1581</ele>
        <time>2013-02-23T10:48:33.000Z</time>
      </trkpt>
      <trkpt lat="46.01079" lon="6.34996">
        <ele>1579</ele>
        <time>2013-02-23T10:48:40.000Z</time>
      </trkpt>
      <trkpt lat="46.01075" lon="6.35002">
        <ele>1578</ele>
        <time>2013-02-23T10:48:45.000Z</time>
      </trkpt>
      <trkpt lat="46.01071" lon="6.35009">
        <ele>1578.5999755859</ele>
        <time>2013-02-23T10:48:51.000Z</time>
      </trkpt>
      <trkpt lat="46.0107" lon="6.3501">
        <ele>1578.5999755859</ele>
        <time>2013-02-23T10:48:52.000Z</time>
      </trkpt>
      <trkpt lat="46.01067" lon="6.35015">
        <ele>1579</ele>
        <time>2013-02-23T10:48:58.000Z</time>
      </trkpt>
      <trkpt lat="46.01063" lon="6.3502">
        <ele>1579.4000244141</ele>
        <time>2013-02-23T10:49:05.000Z</time>
      </trkpt>
      <trkpt lat="46.0106" lon="6.35024">
        <ele>1580</ele>
        <time>2013-02-23T10:49:11.000Z</time>
      </trkpt>
      <trkpt lat="46.01059" lon="6.35026">
        <ele>1580.4000244141</ele>
        <time>2013-02-23T10:49:15.000Z</time>
      </trkpt>
      <trkpt lat="46.01058" lon="6.35027">
        <ele>1581</ele>
        <time>2013-02-23T10:49:23.000Z</time>
      </trkpt>
      <trkpt lat="46.01057" lon="6.35029">
        <ele>1581.8000488281</ele>
        <time>2013-02-23T10:49:31.000Z</time>
      </trkpt>
      <trkpt lat="46.01055" lon="6.35033">
        <ele>1582.4000244141</ele>
        <time>2013-02-23T10:49:36.000Z</time>
      </trkpt>
      <trkpt lat="46.01053" lon="6.35036">
        <ele>1582.8000488281</ele>
        <time>2013-02-23T10:49:41.000Z</time>
      </trkpt>
      <trkpt lat="46.0105" lon="6.35042">
        <ele>1583.4000244141</ele>
        <time>2013-02-23T10:49:47.000Z</time>
      </trkpt>
      <trkpt lat="46.01046" lon="6.35047">
        <ele>1583.8000488281</ele>
        <time>2013-02-23T10:49:52.000Z</time>
      </trkpt>
      <trkpt lat="46.01043" lon="6.35052">
        <ele>1584.1999511719</ele>
        <time>2013-02-23T10:49:58.000Z</time>
      </trkpt>
      <trkpt lat="46.01038" lon="6.35057">
        <ele>1583.8000488281</ele>
        <time>2013-02-23T10:50:04.000Z</time>
      </trkpt>
      <trkpt lat="46.01033" lon="6.35063">
        <ele>1583.8000488281</ele>
        <time>2013-02-23T10:50:11.000Z</time>
      </trkpt>
      <trkpt lat="46.01029" lon="6.35067">
        <ele>1583.4000244141</ele>
        <time>2013-02-23T10:50:17.000Z</time>
      </trkpt>
      <trkpt lat="46.01026" lon="6.35072">
        <ele>1583.4000244141</ele>
        <time>2013-02-23T10:50:22.000Z</time>
      </trkpt>
      <trkpt lat="46.01021" lon="6.35075">
        <ele>1583.4000244141</ele>
        <time>2013-02-23T10:50:29.000Z</time>
      </trkpt>
      <trkpt lat="46.01016" lon="6.35078">
        <ele>1583.8000488281</ele>
        <time>2013-02-23T10:50:36.000Z</time>
      </trkpt>
      <trkpt lat="46.01014" lon="6.3508">
        <ele>1584.8000488281</ele>
        <time>2013-02-23T10:50:41.000Z</time>
      </trkpt>
      <trkpt lat="46.01009" lon="6.35083">
        <ele>1584.8000488281</ele>
        <time>2013-02-23T10:50:47.000Z</time>
      </trkpt>
      <trkpt lat="46.01005" lon="6.35085">
        <ele>1585.8000488281</ele>
        <time>2013-02-23T10:50:52.000Z</time>
      </trkpt>
      <trkpt lat="46.01002" lon="6.35092">
        <ele>1589.5999755859</ele>
        <time>2013-02-23T10:51:01.000Z</time>
      </trkpt>
      <trkpt lat="46.00999" lon="6.35096">
        <ele>1591</ele>
        <time>2013-02-23T10:51:07.000Z</time>
      </trkpt>
      <trkpt lat="46.01001" lon="6.35098">
        <ele>1594</ele>
        <time>2013-02-23T10:51:13.000Z</time>
      </trkpt>
      <trkpt lat="46.00999" lon="6.35102">
        <ele>1595.4000244141</ele>
        <time>2013-02-23T10:51:18.000Z</time>
      </trkpt>
      <trkpt lat="46.00991" lon="6.35106">
        <ele>1594.4000244141</ele>
        <time>2013-02-23T10:51:26.000Z</time>
      </trkpt>
      <trkpt lat="46.0099" lon="6.35107">
        <ele>1594.4000244141</ele>
        <time>2013-02-23T10:51:27.000Z</time>
      </trkpt>
      <trkpt lat="46.00985" lon="6.35109">
        <ele>1593.4000244141</ele>
        <time>2013-02-23T10:51:32.000Z</time>
      </trkpt>
      <trkpt lat="46.00978" lon="6.35115">
        <ele>1593.4000244141</ele>
        <time>2013-02-23T10:51:40.000Z</time>
      </trkpt>
      <trkpt lat="46.00974" lon="6.35119">
        <ele>1594.8000488281</ele>
        <time>2013-02-23T10:51:46.000Z</time>
      </trkpt>
      <trkpt lat="46.00973" lon="6.35125">
        <ele>1599.1999511719</ele>
        <time>2013-02-23T10:51:52.000Z</time>
      </trkpt>
      <trkpt lat="46.00973" lon="6.35131">
        <ele>1603.5999755859</ele>
        <time>2013-02-23T10:51:57.000Z</time>
      </trkpt>
      <trkpt lat="46.00969" lon="6.35138">
        <ele>1604.4000244141</ele>
        <time>2013-02-23T10:52:04.000Z</time>
      </trkpt>
      <trkpt lat="46.00965" lon="6.35145">
        <ele>1604</ele>
        <time>2013-02-23T10:52:09.000Z</time>
      </trkpt>
      <trkpt lat="46.00959" lon="6.35153">
        <ele>1603.5999755859</ele>
        <time>2013-02-23T10:52:14.000Z</time>
      </trkpt>
      <trkpt lat="46.00958" lon="6.35154">
        <ele>1604</ele>
        <time>2013-02-23T10:52:16.000Z</time>
      </trkpt>
      <trkpt lat="46.00954" lon="6.35158">
        <ele>1603.5999755859</ele>
        <time>2013-02-23T10:52:21.000Z</time>
      </trkpt>
      <trkpt lat="46.00952" lon="6.35159">
        <ele>1604</ele>
        <time>2013-02-23T10:52:25.000Z</time>
      </trkpt>
      <trkpt lat="46.00949" lon="6.35161">
        <ele>1605</ele>
        <time>2013-02-23T10:52:29.000Z</time>
      </trkpt>
      <trkpt lat="46.00947" lon="6.35163">
        <ele>1606.4000244141</ele>
        <time>2013-02-23T10:52:33.000Z</time>
      </trkpt>
      <trkpt lat="46.00944" lon="6.35165">
        <ele>1606.8000488281</ele>
        <time>2013-02-23T10:52:37.000Z</time>
      </trkpt>
      <trkpt lat="46.00942" lon="6.35167">
        <ele>1608.4000244141</ele>
        <time>2013-02-23T10:52:40.000Z</time>
      </trkpt>
      <trkpt lat="46.00939" lon="6.35168">
        <ele>1610.8000488281</ele>
        <time>2013-02-23T10:52:46.000Z</time>
      </trkpt>
      <trkpt lat="46.0094" lon="6.3517">
        <ele>1615</ele>
        <time>2013-02-23T10:52:52.000Z</time>
      </trkpt>
      <trkpt lat="46.00941" lon="6.3517">
        <ele>1615.5999755859</ele>
        <time>2013-02-23T10:52:53.000Z</time>
      </trkpt>
      <trkpt lat="46.00955" lon="6.35173">
        <ele>1633.8000488281</ele>
        <time>2013-02-23T10:53:02.000Z</time>
      </trkpt>
      <trkpt lat="46.00954" lon="6.35173">
        <ele>1633.4000244141</ele>
        <time>2013-02-23T10:53:14.000Z</time>
      </trkpt>
      <trkpt lat="46.0095" lon="6.35177">
        <ele>1637.1999511719</ele>
        <time>2013-02-23T10:53:37.000Z</time>
      </trkpt>
      <trkpt lat="46.00952" lon="6.35179">
        <ele>1643.8000488281</ele>
        <time>2013-02-23T10:53:41.000Z</time>
      </trkpt>
      <trkpt lat="46.00949" lon="6.35183">
        <ele>1645.4000244141</ele>
        <time>2013-02-23T10:53:46.000Z</time>
      </trkpt>
      <trkpt lat="46.00949" lon="6.35187">
        <ele>1648.5999755859</ele>
        <time>2013-02-23T10:53:50.000Z</time>
      </trkpt>
      <trkpt lat="46.00947" lon="6.35191">
        <ele>1650.5999755859</ele>
        <time>2013-02-23T10:53:56.000Z</time>
      </trkpt>
      <trkpt lat="46.00946" lon="6.35194">
        <ele>1652</ele>
        <time>2013-02-23T10:54:00.000Z</time>
      </trkpt>
      <trkpt lat="46.00941" lon="6.35195">
        <ele>1647.8000488281</ele>
        <time>2013-02-23T10:54:05.000Z</time>
      </trkpt>
      <trkpt lat="46.00937" lon="6.35198">
        <ele>1646.1999511719</ele>
        <time>2013-02-23T10:54:14.000Z</time>
      </trkpt>
      <trkpt lat="46.00936" lon="6.35204">
        <ele>1649.1999511719</ele>
        <time>2013-02-23T10:54:25.000Z</time>
      </trkpt>
      <trkpt lat="46.00935" lon="6.35208">
        <ele>1650.5999755859</ele>
        <time>2013-02-23T10:54:30.000Z</time>
      </trkpt>
      <trkpt lat="46.00936" lon="6.35212">
        <ele>1653</ele>
        <time>2013-02-23T10:54:35.000Z</time>
      </trkpt>
      <trkpt lat="46.00935" lon="6.35216">
        <ele>1654.4000244141</ele>
        <time>2013-02-23T10:54:41.000Z</time>
      </trkpt>
      <trkpt lat="46.00933" lon="6.3522">
        <ele>1654</ele>
        <time>2013-02-23T10:54:46.000Z</time>
      </trkpt>
      <trkpt lat="46.00932" lon="6.35224">
        <ele>1654.4000244141</ele>
        <time>2013-02-23T10:54:51.000Z</time>
      </trkpt>
      <trkpt lat="46.00927" lon="6.35228">
        <ele>1650.5999755859</ele>
        <time>2013-02-23T10:54:56.000Z</time>
      </trkpt>
      <trkpt lat="46.00925" lon="6.35229">
        <ele>1649.5999755859</ele>
        <time>2013-02-23T10:55:02.000Z</time>
      </trkpt>
      <trkpt lat="46.00921" lon="6.3523">
        <ele>1645.4000244141</ele>
        <time>2013-02-23T10:55:13.000Z</time>
      </trkpt>
      <trkpt lat="46.00918" lon="6.35234">
        <ele>1644.4000244141</ele>
        <time>2013-02-23T10:55:18.000Z</time>
      </trkpt>
      <trkpt lat="46.00915" lon="6.35238">
        <ele>1644.8000488281</ele>
        <time>2013-02-23T10:55:24.000Z</time>
      </trkpt>
      <trkpt lat="46.00914" lon="6.35241">
        <ele>1644.8000488281</ele>
        <time>2013-02-23T10:55:28.000Z</time>
      </trkpt>
      <trkpt lat="46.00912" lon="6.35245">
        <ele>1645.8000488281</ele>
        <time>2013-02-23T10:55:34.000Z</time>
      </trkpt>
      <trkpt lat="46.0091" lon="6.35247">
        <ele>1645.8000488281</ele>
        <time>2013-02-23T10:55:37.000Z</time>
      </trkpt>
      <trkpt lat="46.00907" lon="6.35251">
        <ele>1644.8000488281</ele>
        <time>2013-02-23T10:55:41.000Z</time>
      </trkpt>
      <trkpt lat="46.00906" lon="6.35254">
        <ele>1646.1999511719</ele>
        <time>2013-02-23T10:55:45.000Z</time>
      </trkpt>
      <trkpt lat="46.00903" lon="6.35259">
        <ele>1644.8000488281</ele>
        <time>2013-02-23T10:55:50.000Z</time>
      </trkpt>
      <trkpt lat="46.00902" lon="6.35263">
        <ele>1645.8000488281</ele>
        <time>2013-02-23T10:55:55.000Z</time>
      </trkpt>
      <trkpt lat="46.009" lon="6.35266">
        <ele>1645.8000488281</ele>
        <time>2013-02-23T10:55:58.000Z</time>
      </trkpt>
      <trkpt lat="46.00898" lon="6.35269">
        <ele>1645.4000244141</ele>
        <time>2013-02-23T10:56:02.000Z</time>
      </trkpt>
      <trkpt lat="46.00895" lon="6.35271">
        <ele>1642.4000244141</ele>
        <time>2013-02-23T10:56:05.000Z</time>
      </trkpt>
      <trkpt lat="46.00891" lon="6.35272">
        <ele>1640</ele>
        <time>2013-02-23T10:56:07.000Z</time>
      </trkpt>
      <trkpt lat="46.00885" lon="6.35274">
        <ele>1635.1999511719</ele>
        <time>2013-02-23T10:56:11.000Z</time>
      </trkpt>
      <trkpt lat="46.00884" lon="6.35274">
        <ele>1634.8000488281</ele>
        <time>2013-02-23T10:56:12.000Z</time>
      </trkpt>
      <trkpt lat="46.0088" lon="6.35277">
        <ele>1631.8000488281</ele>
        <time>2013-02-23T10:56:17.000Z</time>
      </trkpt>
      <trkpt lat="46.00873" lon="6.35281">
        <ele>1627.5999755859</ele>
        <time>2013-02-23T10:56:23.000Z</time>
      </trkpt>
      <trkpt lat="46.00871" lon="6.35283">
        <ele>1626.1999511719</ele>
        <time>2013-02-23T10:56:26.000Z</time>
      </trkpt>
      <trkpt lat="46.00869" lon="6.35285">
        <ele>1625.1999511719</ele>
        <time>2013-02-23T10:56:30.000Z</time>
      </trkpt>
      <trkpt lat="46.00865" lon="6.35288">
        <ele>1622.8000488281</ele>
        <time>2013-02-23T10:56:43.000Z</time>
      </trkpt>
      <trkpt lat="46.00863" lon="6.35292">
        <ele>1622.8000488281</ele>
        <time>2013-02-23T10:56:48.000Z</time>
      </trkpt>
      <trkpt lat="46.00863" lon="6.35295">
        <ele>1624.1999511719</ele>
        <time>2013-02-23T10:56:52.000Z</time>
      </trkpt>
      <trkpt lat="46.00862" lon="6.35299">
        <ele>1625.1999511719</ele>
        <time>2013-02-23T10:56:57.000Z</time>
      </trkpt>
      <trkpt lat="46.00861" lon="6.35303">
        <ele>1626.1999511719</ele>
        <time>2013-02-23T10:57:02.000Z</time>
      </trkpt>
      <trkpt lat="46.00859" lon="6.35306">
        <ele>1626.1999511719</ele>
        <time>2013-02-23T10:57:05.000Z</time>
      </trkpt>
      <trkpt lat="46.00858" lon="6.35309">
        <ele>1626.1999511719</ele>
        <time>2013-02-23T10:57:08.000Z</time>
      </trkpt>
      <trkpt lat="46.00856" lon="6.35312">
        <ele>1626.1999511719</ele>
        <time>2013-02-23T10:57:13.000Z</time>
      </trkpt>
      <trkpt lat="46.00855" lon="6.35315">
        <ele>1626.1999511719</ele>
        <time>2013-02-23T10:57:18.000Z</time>
      </trkpt>
      <trkpt lat="46.00855" lon="6.35317">
        <ele>1627</ele>
        <time>2013-02-23T10:57:25.000Z</time>
      </trkpt>
      <trkpt lat="46.00854" lon="6.35321">
        <ele>1627.5999755859</ele>
        <time>2013-02-23T10:57:29.000Z</time>
      </trkpt>
      <trkpt lat="46.00853" lon="6.35326">
        <ele>1628.5999755859</ele>
        <time>2013-02-23T10:57:35.000Z</time>
      </trkpt>
      <trkpt lat="46.00852" lon="6.3533">
        <ele>1630</ele>
        <time>2013-02-23T10:57:41.000Z</time>
      </trkpt>
      <trkpt lat="46.00852" lon="6.35333">
        <ele>1631.4000244141</ele>
        <time>2013-02-23T10:57:46.000Z</time>
      </trkpt>
      <trkpt lat="46.00851" lon="6.35337">
        <ele>1631.8000488281</ele>
        <time>2013-02-23T10:57:52.000Z</time>
      </trkpt>
      <trkpt lat="46.00851" lon="6.3534">
        <ele>1632.4000244141</ele>
        <time>2013-02-23T10:57:58.000Z</time>
      </trkpt>
      <trkpt lat="46.00851" lon="6.35343">
        <ele>1633.8000488281</ele>
        <time>2013-02-23T10:58:04.000Z</time>
      </trkpt>
      <trkpt lat="46.0085" lon="6.35348">
        <ele>1635.1999511719</ele>
        <time>2013-02-23T10:58:11.000Z</time>
      </trkpt>
      <trkpt lat="46.00849" lon="6.35352">
        <ele>1636.1999511719</ele>
        <time>2013-02-23T10:58:16.000Z</time>
      </trkpt>
      <trkpt lat="46.00848" lon="6.35355">
        <ele>1636.1999511719</ele>
        <time>2013-02-23T10:58:21.000Z</time>
      </trkpt>
      <trkpt lat="46.00849" lon="6.35359">
        <ele>1638.1999511719</ele>
        <time>2013-02-23T10:58:26.000Z</time>
      </trkpt>
      <trkpt lat="46.0085" lon="6.35364">
        <ele>1641</ele>
        <time>2013-02-23T10:58:31.000Z</time>
      </trkpt>
      <trkpt lat="46.00852" lon="6.35368">
        <ele>1643.4000244141</ele>
        <time>2013-02-23T10:58:35.000Z</time>
      </trkpt>
      <trkpt lat="46.00852" lon="6.35372">
        <ele>1644.4000244141</ele>
        <time>2013-02-23T10:58:39.000Z</time>
      </trkpt>
      <trkpt lat="46.00853" lon="6.3538">
        <ele>1646.8000488281</ele>
        <time>2013-02-23T10:58:46.000Z</time>
      </trkpt>
      <trkpt lat="46.00854" lon="6.35384">
        <ele>1649.1999511719</ele>
        <time>2013-02-23T10:58:50.000Z</time>
      </trkpt>
      <trkpt lat="46.00855" lon="6.35388">
        <ele>1650.5999755859</ele>
        <time>2013-02-23T10:58:55.000Z</time>
      </trkpt>
      <trkpt lat="46.00857" lon="6.35392">
        <ele>1652.5999755859</ele>
        <time>2013-02-23T10:58:59.000Z</time>
      </trkpt>
      <trkpt lat="46.00858" lon="6.35396">
        <ele>1654.4000244141</ele>
        <time>2013-02-23T10:59:04.000Z</time>
      </trkpt>
      <trkpt lat="46.00857" lon="6.354">
        <ele>1654</ele>
        <time>2013-02-23T10:59:09.000Z</time>
      </trkpt>
      <trkpt lat="46.00855" lon="6.35403">
        <ele>1653</ele>
        <time>2013-02-23T10:59:14.000Z</time>
      </trkpt>
      <trkpt lat="46.00854" lon="6.35407">
        <ele>1653</ele>
        <time>2013-02-23T10:59:20.000Z</time>
      </trkpt>
      <trkpt lat="46.00853" lon="6.35407">
        <ele>1653</ele>
        <time>2013-02-23T10:59:21.000Z</time>
      </trkpt>
      <trkpt lat="46.00853" lon="6.35407">
        <ele>1652.5999755859</ele>
        <time>2013-02-23T10:59:24.000Z</time>
      </trkpt>
      <trkpt lat="46.00852" lon="6.35408">
        <ele>1651.1999511719</ele>
        <time>2013-02-23T10:59:27.000Z</time>
      </trkpt>
      <trkpt lat="46.00851" lon="6.35411">
        <ele>1649.1999511719</ele>
        <time>2013-02-23T10:59:32.000Z</time>
      </trkpt>
      <trkpt lat="46.0085" lon="6.35414">
        <ele>1649.5999755859</ele>
        <time>2013-02-23T10:59:36.000Z</time>
      </trkpt>
      <trkpt lat="46.00849" lon="6.35418">
        <ele>1649.5999755859</ele>
        <time>2013-02-23T10:59:45.000Z</time>
      </trkpt>
      <trkpt lat="46.00848" lon="6.3542">
        <ele>1649.5999755859</ele>
        <time>2013-02-23T10:59:49.000Z</time>
      </trkpt>
      <trkpt lat="46.00848" lon="6.35424">
        <ele>1650.1999511719</ele>
        <time>2013-02-23T10:59:54.000Z</time>
      </trkpt>
      <trkpt lat="46.00847" lon="6.35427">
        <ele>1650.1999511719</ele>
        <time>2013-02-23T11:00:00.000Z</time>
      </trkpt>
      <trkpt lat="46.00847" lon="6.3543">
        <ele>1650.1999511719</ele>
        <time>2013-02-23T11:00:06.000Z</time>
      </trkpt>
      <trkpt lat="46.00847" lon="6.35433">
        <ele>1650.5999755859</ele>
        <time>2013-02-23T11:00:10.000Z</time>
      </trkpt>
      <trkpt lat="46.00847" lon="6.35437">
        <ele>1650.5999755859</ele>
        <time>2013-02-23T11:00:14.000Z</time>
      </trkpt>
      <trkpt lat="46.00846" lon="6.3544">
        <ele>1649.5999755859</ele>
        <time>2013-02-23T11:00:18.000Z</time>
      </trkpt>
      <trkpt lat="46.00846" lon="6.35445">
        <ele>1650.1999511719</ele>
        <time>2013-02-23T11:00:23.000Z</time>
      </trkpt>
      <trkpt lat="46.00847" lon="6.35449">
        <ele>1652</ele>
        <time>2013-02-23T11:00:28.000Z</time>
      </trkpt>
      <trkpt lat="46.00845" lon="6.35448">
        <ele>1652</ele>
        <time>2013-02-23T11:00:32.000Z</time>
      </trkpt>
      <trkpt lat="46.00844" lon="6.35447">
        <ele>1652</ele>
        <time>2013-02-23T11:00:37.000Z</time>
      </trkpt>
      <trkpt lat="46.00844" lon="6.35446">
        <ele>1652</ele>
        <time>2013-02-23T11:00:40.000Z</time>
      </trkpt>
      <trkpt lat="46.0084" lon="6.35442">
        <ele>1651.5999755859</ele>
        <time>2013-02-23T11:00:44.000Z</time>
      </trkpt>
      <trkpt lat="46.00835" lon="6.35439">
        <ele>1649.5999755859</ele>
        <time>2013-02-23T11:00:48.000Z</time>
      </trkpt>
      <trkpt lat="46.00835" lon="6.35437">
        <ele>1650.5999755859</ele>
        <time>2013-02-23T11:00:51.000Z</time>
      </trkpt>
      <trkpt lat="46.00834" lon="6.35434">
        <ele>1652</ele>
        <time>2013-02-23T11:00:55.000Z</time>
      </trkpt>
      <trkpt lat="46.00833" lon="6.35434">
        <ele>1651.5999755859</ele>
        <time>2013-02-23T11:01:03.000Z</time>
      </trkpt>
      <trkpt lat="46.00833" lon="6.35437">
        <ele>1651.5999755859</ele>
        <time>2013-02-23T11:01:07.000Z</time>
      </trkpt>
      <trkpt lat="46.00834" lon="6.3544">
        <ele>1652</ele>
        <time>2013-02-23T11:01:11.000Z</time>
      </trkpt>
      <trkpt lat="46.00834" lon="6.35442">
        <ele>1653</ele>
        <time>2013-02-23T11:01:16.000Z</time>
      </trkpt>
      <trkpt lat="46.00833" lon="6.35442">
        <ele>1654.4000244141</ele>
        <time>2013-02-23T11:01:22.000Z</time>
      </trkpt>
      <trkpt lat="46.00832" lon="6.35438">
        <ele>1655.4000244141</ele>
        <time>2013-02-23T11:01:26.000Z</time>
      </trkpt>
      <trkpt lat="46.0083" lon="6.35433">
        <ele>1655.4000244141</ele>
        <time>2013-02-23T11:01:30.000Z</time>
      </trkpt>
      <trkpt lat="46.0083" lon="6.3543">
        <ele>1655.4000244141</ele>
        <time>2013-02-23T11:01:35.000Z</time>
      </trkpt>
      <trkpt lat="46.0083" lon="6.35427">
        <ele>1655</ele>
        <time>2013-02-23T11:01:40.000Z</time>
      </trkpt>
      <trkpt lat="46.00831" lon="6.35425">
        <ele>1655.4000244141</ele>
        <time>2013-02-23T11:01:46.000Z</time>
      </trkpt>
      <trkpt lat="46.00831" lon="6.35426">
        <ele>1653.5999755859</ele>
        <time>2013-02-23T11:02:18.000Z</time>
      </trkpt>
      <trkpt lat="46.00831" lon="6.35426">
        <ele>1655</ele>
        <time>2013-02-23T11:02:50.000Z</time>
      </trkpt>
      <trkpt lat="46.00831" lon="6.35428">
        <ele>1656</ele>
        <time>2013-02-23T11:03:00.000Z</time>
      </trkpt>
      <trkpt lat="46.00831" lon="6.35432">
        <ele>1659.1999511719</ele>
        <time>2013-02-23T11:04:19.000Z</time>
      </trkpt>
      <trkpt lat="46.00839" lon="6.35431">
        <ele>1665</ele>
        <time>2013-02-23T11:05:18.000Z</time>
      </trkpt>
      <trkpt lat="46.00839" lon="6.3543">
        <ele>1664</ele>
        <time>2013-02-23T11:05:35.000Z</time>
      </trkpt>
      <trkpt lat="46.00836" lon="6.35428">
        <ele>1660.8000488281</ele>
        <time>2013-02-23T11:05:46.000Z</time>
      </trkpt>
      <trkpt lat="46.00836" lon="6.35425">
        <ele>1660.1999511719</ele>
        <time>2013-02-23T11:05:52.000Z</time>
      </trkpt>
      <trkpt lat="46.00835" lon="6.35426">
        <ele>1661.5999755859</ele>
        <time>2013-02-23T11:05:57.000Z</time>
      </trkpt>
      <trkpt lat="46.00835" lon="6.35428">
        <ele>1662.1999511719</ele>
        <time>2013-02-23T11:06:08.000Z</time>
      </trkpt>
      <trkpt lat="46.0083" lon="6.35428">
        <ele>1661.1999511719</ele>
        <time>2013-02-23T11:06:33.000Z</time>
      </trkpt>
      <trkpt lat="46.00829" lon="6.35427">
        <ele>1662.1999511719</ele>
        <time>2013-02-23T11:06:40.000Z</time>
      </trkpt>
      <trkpt lat="46.0083" lon="6.35429">
        <ele>1662.5999755859</ele>
        <time>2013-02-23T11:06:47.000Z</time>
      </trkpt>
      <trkpt lat="46.00829" lon="6.35432">
        <ele>1663.5999755859</ele>
        <time>2013-02-23T11:06:55.000Z</time>
      </trkpt>
      <trkpt lat="46.00829" lon="6.35432">
        <ele>1665</ele>
        <time>2013-02-23T11:07:04.000Z</time>
      </trkpt>
      <trkpt lat="46.00827" lon="6.35432">
        <ele>1664</ele>
        <time>2013-02-23T11:07:09.000Z</time>
      </trkpt>
      <trkpt lat="46.00824" lon="6.35431">
        <ele>1663.5999755859</ele>
        <time>2013-02-23T11:07:15.000Z</time>
      </trkpt>
      <trkpt lat="46.00823" lon="6.35429">
        <ele>1664.5999755859</ele>
        <time>2013-02-23T11:07:21.000Z</time>
      </trkpt>
      <trkpt lat="46.00823" lon="6.35429">
        <ele>1666.4000244141</ele>
        <time>2013-02-23T11:07:26.000Z</time>
      </trkpt>
      <trkpt lat="46.00824" lon="6.3543">
        <ele>1667.4000244141</ele>
        <time>2013-02-23T11:07:35.000Z</time>
      </trkpt>
      <trkpt lat="46.00826" lon="6.35433">
        <ele>1669.4000244141</ele>
        <time>2013-02-23T11:07:41.000Z</time>
      </trkpt>
      <trkpt lat="46.00824" lon="6.35434">
        <ele>1670.4000244141</ele>
        <time>2013-02-23T11:07:48.000Z</time>
      </trkpt>
      <trkpt lat="46.00821" lon="6.35433">
        <ele>1669.8000488281</ele>
        <time>2013-02-23T11:07:57.000Z</time>
      </trkpt>
      <trkpt lat="46.00819" lon="6.35432">
        <ele>1670.8000488281</ele>
        <time>2013-02-23T11:08:03.000Z</time>
      </trkpt>
      <trkpt lat="46.00817" lon="6.35428">
        <ele>1674.5999755859</ele>
        <time>2013-02-23T11:08:21.000Z</time>
      </trkpt>
      <trkpt lat="46.00816" lon="6.35426">
        <ele>1673.5999755859</ele>
        <time>2013-02-23T11:08:31.000Z</time>
      </trkpt>
      <trkpt lat="46.00817" lon="6.35431">
        <ele>1670.4000244141</ele>
        <time>2013-02-23T11:09:10.000Z</time>
      </trkpt>
      <trkpt lat="46.00818" lon="6.35434">
        <ele>1671.8000488281</ele>
        <time>2013-02-23T11:09:15.000Z</time>
      </trkpt>
      <trkpt lat="46.00819" lon="6.35437">
        <ele>1673.1999511719</ele>
        <time>2013-02-23T11:09:20.000Z</time>
      </trkpt>
      <trkpt lat="46.00821" lon="6.3544">
        <ele>1675.1999511719</ele>
        <time>2013-02-23T11:09:27.000Z</time>
      </trkpt>
      <trkpt lat="46.00822" lon="6.35442">
        <ele>1676</ele>
        <time>2013-02-23T11:09:33.000Z</time>
      </trkpt>
      <trkpt lat="46.00822" lon="6.35443">
        <ele>1677</ele>
        <time>2013-02-23T11:09:44.000Z</time>
      </trkpt>
      <trkpt lat="46.0082" lon="6.35443">
        <ele>1675.1999511719</ele>
        <time>2013-02-23T11:10:16.000Z</time>
      </trkpt>
      <trkpt lat="46.00819" lon="6.35443">
        <ele>1676</ele>
        <time>2013-02-23T11:10:20.000Z</time>
      </trkpt>
      <trkpt lat="46.0082" lon="6.35445">
        <ele>1679.4000244141</ele>
        <time>2013-02-23T11:10:30.000Z</time>
      </trkpt>
      <trkpt lat="46.00818" lon="6.35444">
        <ele>1676.5999755859</ele>
        <time>2013-02-23T11:10:49.000Z</time>
      </trkpt>
      <trkpt lat="46.00814" lon="6.35442">
        <ele>1676.5999755859</ele>
        <time>2013-02-23T11:10:53.000Z</time>
      </trkpt>
      <trkpt lat="46.00814" lon="6.35442">
        <ele>1681.4000244141</ele>
        <time>2013-02-23T11:11:14.000Z</time>
      </trkpt>
      <trkpt lat="46.00813" lon="6.3544">
        <ele>1681.8000488281</ele>
        <time>2013-02-23T11:11:19.000Z</time>
      </trkpt>
      <trkpt lat="46.00811" lon="6.35436">
        <ele>1681.8000488281</ele>
        <time>2013-02-23T11:11:30.000Z</time>
      </trkpt>
      <trkpt lat="46.00809" lon="6.35441">
        <ele>1681</ele>
        <time>2013-02-23T11:11:51.000Z</time>
      </trkpt>
      <trkpt lat="46.00809" lon="6.35442">
        <ele>1681</ele>
        <time>2013-02-23T11:12:00.000Z</time>
      </trkpt>
      <trkpt lat="46.0081" lon="6.35444">
        <ele>1681.4000244141</ele>
        <time>2013-02-23T11:12:05.000Z</time>
      </trkpt>
      <trkpt lat="46.0081" lon="6.35447">
        <ele>1681.4000244141</ele>
        <time>2013-02-23T11:12:12.000Z</time>
      </trkpt>
      <trkpt lat="46.0081" lon="6.35447">
        <ele>1682.8000488281</ele>
        <time>2013-02-23T11:12:20.000Z</time>
      </trkpt>
      <trkpt lat="46.00813" lon="6.35449">
        <ele>1686.5999755859</ele>
        <time>2013-02-23T11:12:32.000Z</time>
      </trkpt>
      <trkpt lat="46.00813" lon="6.35451">
        <ele>1687.1999511719</ele>
        <time>2013-02-23T11:12:37.000Z</time>
      </trkpt>
      <trkpt lat="46.00813" lon="6.35453">
        <ele>1686.5999755859</ele>
        <time>2013-02-23T11:12:44.000Z</time>
      </trkpt>
      <trkpt lat="46.00813" lon="6.35455">
        <ele>1687.1999511719</ele>
        <time>2013-02-23T11:12:50.000Z</time>
      </trkpt>
      <trkpt lat="46.00812" lon="6.35456">
        <ele>1686.1999511719</ele>
        <time>2013-02-23T11:12:58.000Z</time>
      </trkpt>
      <trkpt lat="46.00812" lon="6.35459">
        <ele>1686.5999755859</ele>
        <time>2013-02-23T11:13:05.000Z</time>
      </trkpt>
      <trkpt lat="46.00811" lon="6.35462">
        <ele>1686.5999755859</ele>
        <time>2013-02-23T11:13:12.000Z</time>
      </trkpt>
      <trkpt lat="46.00812" lon="6.35466">
        <ele>1686.5999755859</ele>
        <time>2013-02-23T11:13:17.000Z</time>
      </trkpt>
      <trkpt lat="46.00811" lon="6.3547">
        <ele>1687.5999755859</ele>
        <time>2013-02-23T11:13:25.000Z</time>
      </trkpt>
      <trkpt lat="46.0081" lon="6.35469">
        <ele>1686.5999755859</ele>
        <time>2013-02-23T11:13:45.000Z</time>
      </trkpt>
      <trkpt lat="46.00811" lon="6.35469">
        <ele>1685.8000488281</ele>
        <time>2013-02-23T11:13:55.000Z</time>
      </trkpt>
      <trkpt lat="46.00811" lon="6.35469">
        <ele>1685.8000488281</ele>
        <time>2013-02-23T11:13:59.000Z</time>
      </trkpt>
      <trkpt lat="46.00811" lon="6.35468">
        <ele>1685.8000488281</ele>
        <time>2013-02-23T11:14:13.000Z</time>
      </trkpt>
      <trkpt lat="46.00811" lon="6.35472">
        <ele>1686.5999755859</ele>
        <time>2013-02-23T11:14:18.000Z</time>
      </trkpt>
      <trkpt lat="46.00808" lon="6.35477">
        <ele>1688.5999755859</ele>
        <time>2013-02-23T11:14:28.000Z</time>
      </trkpt>
      <trkpt lat="46.00809" lon="6.35479">
        <ele>1689.5999755859</ele>
        <time>2013-02-23T11:14:31.000Z</time>
      </trkpt>
      <trkpt lat="46.00812" lon="6.35482">
        <ele>1692</ele>
        <time>2013-02-23T11:14:36.000Z</time>
      </trkpt>
      <trkpt lat="46.00813" lon="6.35483">
        <ele>1693</ele>
        <time>2013-02-23T11:14:42.000Z</time>
      </trkpt>
      <trkpt lat="46.0081" lon="6.35484">
        <ele>1692.4000244141</ele>
        <time>2013-02-23T11:15:00.000Z</time>
      </trkpt>
      <trkpt lat="46.00807" lon="6.35484">
        <ele>1692.4000244141</ele>
        <time>2013-02-23T11:15:04.000Z</time>
      </trkpt>
      <trkpt lat="46.00805" lon="6.35484">
        <ele>1693</ele>
        <time>2013-02-23T11:15:16.000Z</time>
      </trkpt>
      <trkpt lat="46.00804" lon="6.35484">
        <ele>1693.8000488281</ele>
        <time>2013-02-23T11:15:25.000Z</time>
      </trkpt>
      <trkpt lat="46.00803" lon="6.35484">
        <ele>1693.8000488281</ele>
        <time>2013-02-23T11:15:28.000Z</time>
      </trkpt>
      <trkpt lat="46.00803" lon="6.35483">
        <ele>1695.4000244141</ele>
        <time>2013-02-23T11:15:33.000Z</time>
      </trkpt>
      <trkpt lat="46.00801" lon="6.35482">
        <ele>1697.1999511719</ele>
        <time>2013-02-23T11:15:39.000Z</time>
      </trkpt>
      <trkpt lat="46.00798" lon="6.35482">
        <ele>1697.8000488281</ele>
        <time>2013-02-23T11:15:46.000Z</time>
      </trkpt>
      <trkpt lat="46.00796" lon="6.35483">
        <ele>1697.8000488281</ele>
        <time>2013-02-23T11:15:51.000Z</time>
      </trkpt>
      <trkpt lat="46.00794" lon="6.35484">
        <ele>1698.5999755859</ele>
        <time>2013-02-23T11:15:58.000Z</time>
      </trkpt>
      <trkpt lat="46.00792" lon="6.35486">
        <ele>1698.5999755859</ele>
        <time>2013-02-23T11:16:02.000Z</time>
      </trkpt>
      <trkpt lat="46.0079" lon="6.3549">
        <ele>1698.1999511719</ele>
        <time>2013-02-23T11:16:08.000Z</time>
      </trkpt>
      <trkpt lat="46.00787" lon="6.35491">
        <ele>1699.1999511719</ele>
        <time>2013-02-23T11:16:14.000Z</time>
      </trkpt>
      <trkpt lat="46.00786" lon="6.35493">
        <ele>1699.5999755859</ele>
        <time>2013-02-23T11:16:18.000Z</time>
      </trkpt>
      <trkpt lat="46.00786" lon="6.35495">
        <ele>1699.5999755859</ele>
        <time>2013-02-23T11:16:28.000Z</time>
      </trkpt>
      <trkpt lat="46.00784" lon="6.35502">
        <ele>1699.5999755859</ele>
        <time>2013-02-23T11:16:35.000Z</time>
      </trkpt>
      <trkpt lat="46.00781" lon="6.35508">
        <ele>1700.1999511719</ele>
        <time>2013-02-23T11:16:41.000Z</time>
      </trkpt>
      <trkpt lat="46.00777" lon="6.3551">
        <ele>1700.1999511719</ele>
        <time>2013-02-23T11:16:48.000Z</time>
      </trkpt>
      <trkpt lat="46.00778" lon="6.3551">
        <ele>1700.1999511719</ele>
        <time>2013-02-23T11:17:03.000Z</time>
      </trkpt>
      <trkpt lat="46.00777" lon="6.35509">
        <ele>1699.5999755859</ele>
        <time>2013-02-23T11:17:12.000Z</time>
      </trkpt>
      <trkpt lat="46.00777" lon="6.35509">
        <ele>1699.5999755859</ele>
        <time>2013-02-23T11:17:18.000Z</time>
      </trkpt>
      <trkpt lat="46.00774" lon="6.35504">
        <ele>1701</ele>
        <time>2013-02-23T11:17:24.000Z</time>
      </trkpt>
      <trkpt lat="46.00771" lon="6.35501">
        <ele>1701.5999755859</ele>
        <time>2013-02-23T11:17:29.000Z</time>
      </trkpt>
      <trkpt lat="46.00769" lon="6.35499">
        <ele>1703</ele>
        <time>2013-02-23T11:17:35.000Z</time>
      </trkpt>
      <trkpt lat="46.00766" lon="6.35496">
        <ele>1704</ele>
        <time>2013-02-23T11:17:41.000Z</time>
      </trkpt>
      <trkpt lat="46.00762" lon="6.35492">
        <ele>1706.4000244141</ele>
        <time>2013-02-23T11:17:47.000Z</time>
      </trkpt>
      <trkpt lat="46.0076" lon="6.35489">
        <ele>1706.8000488281</ele>
        <time>2013-02-23T11:17:52.000Z</time>
      </trkpt>
      <trkpt lat="46.00758" lon="6.35484">
        <ele>1708.4000244141</ele>
        <time>2013-02-23T11:17:57.000Z</time>
      </trkpt>
      <trkpt lat="46.00756" lon="6.35483">
        <ele>1708.8000488281</ele>
        <time>2013-02-23T11:18:03.000Z</time>
      </trkpt>
      <trkpt lat="46.00753" lon="6.35479">
        <ele>1709.1999511719</ele>
        <time>2013-02-23T11:18:08.000Z</time>
      </trkpt>
      <trkpt lat="46.00751" lon="6.35475">
        <ele>1710.1999511719</ele>
        <time>2013-02-23T11:18:14.000Z</time>
      </trkpt>
      <trkpt lat="46.00748" lon="6.35472">
        <ele>1711.1999511719</ele>
        <time>2013-02-23T11:18:19.000Z</time>
      </trkpt>
      <trkpt lat="46.00746" lon="6.35469">
        <ele>1711.5999755859</ele>
        <time>2013-02-23T11:18:24.000Z</time>
      </trkpt>
      <trkpt lat="46.00744" lon="6.35465">
        <ele>1712.5999755859</ele>
        <time>2013-02-23T11:18:30.000Z</time>
      </trkpt>
      <trkpt lat="46.00743" lon="6.35461">
        <ele>1714</ele>
        <time>2013-02-23T11:18:35.000Z</time>
      </trkpt>
      <trkpt lat="46.00741" lon="6.35457">
        <ele>1714.5999755859</ele>
        <time>2013-02-23T11:18:41.000Z</time>
      </trkpt>
      <trkpt lat="46.0074" lon="6.35453">
        <ele>1715</ele>
        <time>2013-02-23T11:18:46.000Z</time>
      </trkpt>
      <trkpt lat="46.00739" lon="6.35449">
        <ele>1715</ele>
        <time>2013-02-23T11:18:51.000Z</time>
      </trkpt>
      <trkpt lat="46.00737" lon="6.35444">
        <ele>1715.5999755859</ele>
        <time>2013-02-23T11:18:57.000Z</time>
      </trkpt>
      <trkpt lat="46.00736" lon="6.35439">
        <ele>1716</ele>
        <time>2013-02-23T11:19:03.000Z</time>
      </trkpt>
      <trkpt lat="46.00735" lon="6.35435">
        <ele>1716.4000244141</ele>
        <time>2013-02-23T11:19:08.000Z</time>
      </trkpt>
      <trkpt lat="46.00733" lon="6.35432">
        <ele>1717.4000244141</ele>
        <time>2013-02-23T11:19:13.000Z</time>
      </trkpt>
      <trkpt lat="46.00732" lon="6.35429">
        <ele>1718</ele>
        <time>2013-02-23T11:19:19.000Z</time>
      </trkpt>
      <trkpt lat="46.0073" lon="6.35425">
        <ele>1718.8000488281</ele>
        <time>2013-02-23T11:19:25.000Z</time>
      </trkpt>
      <trkpt lat="46.00729" lon="6.3542">
        <ele>1719.8000488281</ele>
        <time>2013-02-23T11:19:32.000Z</time>
      </trkpt>
      <trkpt lat="46.00729" lon="6.35419">
        <ele>1720.4000244141</ele>
        <time>2013-02-23T11:19:38.000Z</time>
      </trkpt>
      <trkpt lat="46.00731" lon="6.35419">
        <ele>1720.4000244141</ele>
        <time>2013-02-23T11:19:42.000Z</time>
      </trkpt>
      <trkpt lat="46.00735" lon="6.35421">
        <ele>1720.8000488281</ele>
        <time>2013-02-23T11:19:49.000Z</time>
      </trkpt>
      <trkpt lat="46.00738" lon="6.35422">
        <ele>1720.8000488281</ele>
        <time>2013-02-23T11:19:53.000Z</time>
      </trkpt>
      <trkpt lat="46.0074" lon="6.35423">
        <ele>1721.8000488281</ele>
        <time>2013-02-23T11:19:58.000Z</time>
      </trkpt>
      <trkpt lat="46.00743" lon="6.35424">
        <ele>1722.8000488281</ele>
        <time>2013-02-23T11:20:03.000Z</time>
      </trkpt>
      <trkpt lat="46.00743" lon="6.35424">
        <ele>1724.1999511719</ele>
        <time>2013-02-23T11:20:10.000Z</time>
      </trkpt>
      <trkpt lat="46.00743" lon="6.35425">
        <ele>1724.1999511719</ele>
        <time>2013-02-23T11:20:14.000Z</time>
      </trkpt>
      <trkpt lat="46.00743" lon="6.35424">
        <ele>1724.1999511719</ele>
        <time>2013-02-23T11:20:18.000Z</time>
      </trkpt>
      <trkpt lat="46.00741" lon="6.3542">
        <ele>1724.5999755859</ele>
        <time>2013-02-23T11:20:23.000Z</time>
      </trkpt>
      <trkpt lat="46.00739" lon="6.35414">
        <ele>1725.1999511719</ele>
        <time>2013-02-23T11:20:30.000Z</time>
      </trkpt>
      <trkpt lat="46.00738" lon="6.35409">
        <ele>1726.5999755859</ele>
        <time>2013-02-23T11:20:37.000Z</time>
      </trkpt>
      <trkpt lat="46.00739" lon="6.35409">
        <ele>1726.5999755859</ele>
        <time>2013-02-23T11:20:43.000Z</time>
      </trkpt>
      <trkpt lat="46.00739" lon="6.35409">
        <ele>1727</ele>
        <time>2013-02-23T11:20:48.000Z</time>
      </trkpt>
      <trkpt lat="46.0074" lon="6.3541">
        <ele>1727.5999755859</ele>
        <time>2013-02-23T11:20:52.000Z</time>
      </trkpt>
      <trkpt lat="46.00741" lon="6.3541">
        <ele>1728</ele>
        <time>2013-02-23T11:20:59.000Z</time>
      </trkpt>
      <trkpt lat="46.00744" lon="6.35411">
        <ele>1729</ele>
        <time>2013-02-23T11:21:04.000Z</time>
      </trkpt>
      <trkpt lat="46.00746" lon="6.35411">
        <ele>1729.4000244141</ele>
        <time>2013-02-23T11:21:09.000Z</time>
      </trkpt>
      <trkpt lat="46.00747" lon="6.35412">
        <ele>1730.8000488281</ele>
        <time>2013-02-23T11:21:14.000Z</time>
      </trkpt>
      <trkpt lat="46.00747" lon="6.35412">
        <ele>1731.4000244141</ele>
        <time>2013-02-23T11:21:20.000Z</time>
      </trkpt>
      <trkpt lat="46.00747" lon="6.3541">
        <ele>1731.4000244141</ele>
        <time>2013-02-23T11:21:29.000Z</time>
      </trkpt>
      <trkpt lat="46.00746" lon="6.35405">
        <ele>1732.8000488281</ele>
        <time>2013-02-23T11:21:36.000Z</time>
      </trkpt>
      <trkpt lat="46.00745" lon="6.354">
        <ele>1733.1999511719</ele>
        <time>2013-02-23T11:21:41.000Z</time>
      </trkpt>
      <trkpt lat="46.00744" lon="6.35397">
        <ele>1734.1999511719</ele>
        <time>2013-02-23T11:21:46.000Z</time>
      </trkpt>
      <trkpt lat="46.00742" lon="6.35391">
        <ele>1735.1999511719</ele>
        <time>2013-02-23T11:21:52.000Z</time>
      </trkpt>
      <trkpt lat="46.0074" lon="6.35386">
        <ele>1736.1999511719</ele>
        <time>2013-02-23T11:21:59.000Z</time>
      </trkpt>
      <trkpt lat="46.00738" lon="6.35382">
        <ele>1736.5999755859</ele>
        <time>2013-02-23T11:22:04.000Z</time>
      </trkpt>
      <trkpt lat="46.00737" lon="6.35377">
        <ele>1737.1999511719</ele>
        <time>2013-02-23T11:22:10.000Z</time>
      </trkpt>
      <trkpt lat="46.00735" lon="6.35372">
        <ele>1737.5999755859</ele>
        <time>2013-02-23T11:22:15.000Z</time>
      </trkpt>
      <trkpt lat="46.00735" lon="6.35371">
        <ele>1738.1999511719</ele>
        <time>2013-02-23T11:22:22.000Z</time>
      </trkpt>
      <trkpt lat="46.00735" lon="6.35371">
        <ele>1737.5999755859</ele>
        <time>2013-02-23T11:22:36.000Z</time>
      </trkpt>
      <trkpt lat="46.00733" lon="6.3537">
        <ele>1740</ele>
        <time>2013-02-23T11:22:49.000Z</time>
      </trkpt>
      <trkpt lat="46.00732" lon="6.35367">
        <ele>1741</ele>
        <time>2013-02-23T11:22:54.000Z</time>
      </trkpt>
      <trkpt lat="46.00729" lon="6.35362">
        <ele>1741.4000244141</ele>
        <time>2013-02-23T11:23:01.000Z</time>
      </trkpt>
      <trkpt lat="46.00727" lon="6.35357">
        <ele>1742.4000244141</ele>
        <time>2013-02-23T11:23:08.000Z</time>
      </trkpt>
      <trkpt lat="46.00726" lon="6.35353">
        <ele>1743</ele>
        <time>2013-02-23T11:23:13.000Z</time>
      </trkpt>
      <trkpt lat="46.00727" lon="6.3535">
        <ele>1742.4000244141</ele>
        <time>2013-02-23T11:23:20.000Z</time>
      </trkpt>
      <trkpt lat="46.00723" lon="6.35349">
        <ele>1742</ele>
        <time>2013-02-23T11:23:29.000Z</time>
      </trkpt>
      <trkpt lat="46.00718" lon="6.35345">
        <ele>1741.4000244141</ele>
        <time>2013-02-23T11:23:33.000Z</time>
      </trkpt>
      <trkpt lat="46.00716" lon="6.35338">
        <ele>1742.4000244141</ele>
        <time>2013-02-23T11:23:40.000Z</time>
      </trkpt>
      <trkpt lat="46.00714" lon="6.35332">
        <ele>1743.8000488281</ele>
        <time>2013-02-23T11:23:46.000Z</time>
      </trkpt>
      <trkpt lat="46.00713" lon="6.35331">
        <ele>1744.4000244141</ele>
        <time>2013-02-23T11:23:52.000Z</time>
      </trkpt>
      <trkpt lat="46.00714" lon="6.3533">
        <ele>1743</ele>
        <time>2013-02-23T11:24:10.000Z</time>
      </trkpt>
      <trkpt lat="46.00713" lon="6.35327">
        <ele>1742.4000244141</ele>
        <time>2013-02-23T11:24:27.000Z</time>
      </trkpt>
      <trkpt lat="46.00713" lon="6.35325">
        <ele>1743</ele>
        <time>2013-02-23T11:24:32.000Z</time>
      </trkpt>
      <trkpt lat="46.00711" lon="6.35321">
        <ele>1743.8000488281</ele>
        <time>2013-02-23T11:24:40.000Z</time>
      </trkpt>
      <trkpt lat="46.00709" lon="6.35315">
        <ele>1744.8000488281</ele>
        <time>2013-02-23T11:24:47.000Z</time>
      </trkpt>
      <trkpt lat="46.00707" lon="6.35311">
        <ele>1745.4000244141</ele>
        <time>2013-02-23T11:24:52.000Z</time>
      </trkpt>
      <trkpt lat="46.00706" lon="6.35306">
        <ele>1746.1999511719</ele>
        <time>2013-02-23T11:24:58.000Z</time>
      </trkpt>
      <trkpt lat="46.00704" lon="6.35303">
        <ele>1747.8000488281</ele>
        <time>2013-02-23T11:25:03.000Z</time>
      </trkpt>
      <trkpt lat="46.00702" lon="6.35301">
        <ele>1749.1999511719</ele>
        <time>2013-02-23T11:25:08.000Z</time>
      </trkpt>
      <trkpt lat="46.007" lon="6.35299">
        <ele>1750.1999511719</ele>
        <time>2013-02-23T11:25:13.000Z</time>
      </trkpt>
      <trkpt lat="46.00698" lon="6.35296">
        <ele>1751</ele>
        <time>2013-02-23T11:25:19.000Z</time>
      </trkpt>
      <trkpt lat="46.00696" lon="6.35291">
        <ele>1752</ele>
        <time>2013-02-23T11:25:25.000Z</time>
      </trkpt>
      <trkpt lat="46.00695" lon="6.35289">
        <ele>1752.5999755859</ele>
        <time>2013-02-23T11:25:29.000Z</time>
      </trkpt>
      <trkpt lat="46.00695" lon="6.35289">
        <ele>1753</ele>
        <time>2013-02-23T11:25:37.000Z</time>
      </trkpt>
      <trkpt lat="46.00696" lon="6.35289">
        <ele>1753</ele>
        <time>2013-02-23T11:26:04.000Z</time>
      </trkpt>
      <trkpt lat="46.00699" lon="6.3529">
        <ele>1753</ele>
        <time>2013-02-23T11:26:10.000Z</time>
      </trkpt>
      <trkpt lat="46.00702" lon="6.35291">
        <ele>1753.4000244141</ele>
        <time>2013-02-23T11:26:15.000Z</time>
      </trkpt>
      <trkpt lat="46.00702" lon="6.35292">
        <ele>1753</ele>
        <time>2013-02-23T11:26:22.000Z</time>
      </trkpt>
      <trkpt lat="46.00704" lon="6.35293">
        <ele>1753.4000244141</ele>
        <time>2013-02-23T11:26:30.000Z</time>
      </trkpt>
      <trkpt lat="46.00706" lon="6.35293">
        <ele>1754.4000244141</ele>
        <time>2013-02-23T11:26:36.000Z</time>
      </trkpt>
      <trkpt lat="46.0071" lon="6.35295">
        <ele>1754.4000244141</ele>
        <time>2013-02-23T11:26:42.000Z</time>
      </trkpt>
      <trkpt lat="46.0071" lon="6.35296">
        <ele>1755.4000244141</ele>
        <time>2013-02-23T11:26:48.000Z</time>
      </trkpt>
      <trkpt lat="46.00715" lon="6.35299">
        <ele>1756.4000244141</ele>
        <time>2013-02-23T11:26:56.000Z</time>
      </trkpt>
      <trkpt lat="46.00716" lon="6.35301">
        <ele>1756.8000488281</ele>
        <time>2013-02-23T11:27:01.000Z</time>
      </trkpt>
      <trkpt lat="46.00718" lon="6.35302">
        <ele>1758.1999511719</ele>
        <time>2013-02-23T11:27:11.000Z</time>
      </trkpt>
      <trkpt lat="46.0072" lon="6.35304">
        <ele>1758.1999511719</ele>
        <time>2013-02-23T11:27:15.000Z</time>
      </trkpt>
      <trkpt lat="46.00722" lon="6.35306">
        <ele>1759.1999511719</ele>
        <time>2013-02-23T11:27:21.000Z</time>
      </trkpt>
      <trkpt lat="46.00726" lon="6.35308">
        <ele>1759.8000488281</ele>
        <time>2013-02-23T11:27:28.000Z</time>
      </trkpt>
      <trkpt lat="46.00729" lon="6.3531">
        <ele>1760.1999511719</ele>
        <time>2013-02-23T11:27:34.000Z</time>
      </trkpt>
      <trkpt lat="46.00732" lon="6.35311">
        <ele>1761.1999511719</ele>
        <time>2013-02-23T11:27:40.000Z</time>
      </trkpt>
      <trkpt lat="46.00735" lon="6.35313">
        <ele>1761.1999511719</ele>
        <time>2013-02-23T11:27:44.000Z</time>
      </trkpt>
      <trkpt lat="46.00738" lon="6.35315">
        <ele>1761.5999755859</ele>
        <time>2013-02-23T11:27:49.000Z</time>
      </trkpt>
      <trkpt lat="46.0074" lon="6.35317">
        <ele>1762.1999511719</ele>
        <time>2013-02-23T11:27:54.000Z</time>
      </trkpt>
      <trkpt lat="46.00742" lon="6.35319">
        <ele>1763</ele>
        <time>2013-02-23T11:28:01.000Z</time>
      </trkpt>
      <trkpt lat="46.00744" lon="6.35321">
        <ele>1763.5999755859</ele>
        <time>2013-02-23T11:28:06.000Z</time>
      </trkpt>
      <trkpt lat="46.00747" lon="6.35321">
        <ele>1764</ele>
        <time>2013-02-23T11:28:12.000Z</time>
      </trkpt>
      <trkpt lat="46.00748" lon="6.35321">
        <ele>1764.5999755859</ele>
        <time>2013-02-23T11:28:18.000Z</time>
      </trkpt>
      <trkpt lat="46.00748" lon="6.35318">
        <ele>1765.4000244141</ele>
        <time>2013-02-23T11:28:22.000Z</time>
      </trkpt>
      <trkpt lat="46.00747" lon="6.35314">
        <ele>1767</ele>
        <time>2013-02-23T11:28:28.000Z</time>
      </trkpt>
      <trkpt lat="46.00744" lon="6.3531">
        <ele>1768</ele>
        <time>2013-02-23T11:28:34.000Z</time>
      </trkpt>
      <trkpt lat="46.00742" lon="6.35307">
        <ele>1769.4000244141</ele>
        <time>2013-02-23T11:28:39.000Z</time>
      </trkpt>
      <trkpt lat="46.00739" lon="6.35304">
        <ele>1770.4000244141</ele>
        <time>2013-02-23T11:28:45.000Z</time>
      </trkpt>
      <trkpt lat="46.00738" lon="6.35301">
        <ele>1771.1999511719</ele>
        <time>2013-02-23T11:28:50.000Z</time>
      </trkpt>
      <trkpt lat="46.00736" lon="6.35299">
        <ele>1772.8000488281</ele>
        <time>2013-02-23T11:28:56.000Z</time>
      </trkpt>
      <trkpt lat="46.00734" lon="6.35297">
        <ele>1773.5999755859</ele>
        <time>2013-02-23T11:29:01.000Z</time>
      </trkpt>
      <trkpt lat="46.00731" lon="6.35293">
        <ele>1775.1999511719</ele>
        <time>2013-02-23T11:29:09.000Z</time>
      </trkpt>
      <trkpt lat="46.00728" lon="6.35288">
        <ele>1775.5999755859</ele>
        <time>2013-02-23T11:29:16.000Z</time>
      </trkpt>
      <trkpt lat="46.00725" lon="6.35282">
        <ele>1776.5999755859</ele>
        <time>2013-02-23T11:29:24.000Z</time>
      </trkpt>
      <trkpt lat="46.00722" lon="6.35277">
        <ele>1778</ele>
        <time>2013-02-23T11:29:31.000Z</time>
      </trkpt>
      <trkpt lat="46.0072" lon="6.35272">
        <ele>1778.4000244141</ele>
        <time>2013-02-23T11:29:38.000Z</time>
      </trkpt>
      <trkpt lat="46.00717" lon="6.35268">
        <ele>1779.4000244141</ele>
        <time>2013-02-23T11:29:44.000Z</time>
      </trkpt>
      <trkpt lat="46.00713" lon="6.3526">
        <ele>1780.4000244141</ele>
        <time>2013-02-23T11:29:54.000Z</time>
      </trkpt>
      <trkpt lat="46.00711" lon="6.35255">
        <ele>1781.4000244141</ele>
        <time>2013-02-23T11:30:00.000Z</time>
      </trkpt>
      <trkpt lat="46.0071" lon="6.35253">
        <ele>1781.8000488281</ele>
        <time>2013-02-23T11:30:06.000Z</time>
      </trkpt>
      <trkpt lat="46.0071" lon="6.35253">
        <ele>1782.8000488281</ele>
        <time>2013-02-23T11:30:14.000Z</time>
      </trkpt>
      <trkpt lat="46.00708" lon="6.35248">
        <ele>1783.8000488281</ele>
        <time>2013-02-23T11:30:28.000Z</time>
      </trkpt>
      <trkpt lat="46.00705" lon="6.35241">
        <ele>1784.1999511719</ele>
        <time>2013-02-23T11:30:36.000Z</time>
      </trkpt>
      <trkpt lat="46.00703" lon="6.35236">
        <ele>1784.8000488281</ele>
        <time>2013-02-23T11:30:42.000Z</time>
      </trkpt>
      <trkpt lat="46.007" lon="6.35231">
        <ele>1785.1999511719</ele>
        <time>2013-02-23T11:30:49.000Z</time>
      </trkpt>
      <trkpt lat="46.00697" lon="6.35225">
        <ele>1785.5999755859</ele>
        <time>2013-02-23T11:30:55.000Z</time>
      </trkpt>
      <trkpt lat="46.00693" lon="6.35219">
        <ele>1786.1999511719</ele>
        <time>2013-02-23T11:31:03.000Z</time>
      </trkpt>
      <trkpt lat="46.0069" lon="6.35216">
        <ele>1787.1999511719</ele>
        <time>2013-02-23T11:31:09.000Z</time>
      </trkpt>
      <trkpt lat="46.00689" lon="6.35214">
        <ele>1788</ele>
        <time>2013-02-23T11:31:18.000Z</time>
      </trkpt>
      <trkpt lat="46.00689" lon="6.35209">
        <ele>1789</ele>
        <time>2013-02-23T11:31:24.000Z</time>
      </trkpt>
      <trkpt lat="46.00688" lon="6.35205">
        <ele>1790</ele>
        <time>2013-02-23T11:31:30.000Z</time>
      </trkpt>
      <trkpt lat="46.00688" lon="6.35202">
        <ele>1791</ele>
        <time>2013-02-23T11:31:35.000Z</time>
      </trkpt>
      <trkpt lat="46.00688" lon="6.35202">
        <ele>1790.4000244141</ele>
        <time>2013-02-23T11:31:42.000Z</time>
      </trkpt>
      <trkpt lat="46.00688" lon="6.35201">
        <ele>1789.5999755859</ele>
        <time>2013-02-23T11:31:58.000Z</time>
      </trkpt>
      <trkpt lat="46.00688" lon="6.35199">
        <ele>1790</ele>
        <time>2013-02-23T11:32:03.000Z</time>
      </trkpt>
      <trkpt lat="46.00687" lon="6.35194">
        <ele>1791</ele>
        <time>2013-02-23T11:32:09.000Z</time>
      </trkpt>
      <trkpt lat="46.00686" lon="6.35188">
        <ele>1792</ele>
        <time>2013-02-23T11:32:16.000Z</time>
      </trkpt>
      <trkpt lat="46.00683" lon="6.35183">
        <ele>1792.8000488281</ele>
        <time>2013-02-23T11:32:23.000Z</time>
      </trkpt>
      <trkpt lat="46.0068" lon="6.35175">
        <ele>1793.4000244141</ele>
        <time>2013-02-23T11:32:31.000Z</time>
      </trkpt>
      <trkpt lat="46.00679" lon="6.35172">
        <ele>1794.4000244141</ele>
        <time>2013-02-23T11:32:37.000Z</time>
      </trkpt>
      <trkpt lat="46.00676" lon="6.35167">
        <ele>1795.1999511719</ele>
        <time>2013-02-23T11:32:44.000Z</time>
      </trkpt>
      <trkpt lat="46.00674" lon="6.3516">
        <ele>1795.8000488281</ele>
        <time>2013-02-23T11:32:51.000Z</time>
      </trkpt>
      <trkpt lat="46.00672" lon="6.35154">
        <ele>1796.8000488281</ele>
        <time>2013-02-23T11:32:58.000Z</time>
      </trkpt>
      <trkpt lat="46.0067" lon="6.35149">
        <ele>1798.1999511719</ele>
        <time>2013-02-23T11:33:04.000Z</time>
      </trkpt>
      <trkpt lat="46.0067" lon="6.35144">
        <ele>1798.5999755859</ele>
        <time>2013-02-23T11:33:11.000Z</time>
      </trkpt>
      <trkpt lat="46.00669" lon="6.35142">
        <ele>1799.1999511719</ele>
        <time>2013-02-23T11:33:20.000Z</time>
      </trkpt>
      <trkpt lat="46.00669" lon="6.35141">
        <ele>1799.1999511719</ele>
        <time>2013-02-23T11:33:28.000Z</time>
      </trkpt>
      <trkpt lat="46.00667" lon="6.35139">
        <ele>1798.5999755859</ele>
        <time>2013-02-23T11:33:37.000Z</time>
      </trkpt>
      <trkpt lat="46.00665" lon="6.35136">
        <ele>1798.1999511719</ele>
        <time>2013-02-23T11:33:43.000Z</time>
      </trkpt>
      <trkpt lat="46.00664" lon="6.35136">
        <ele>1796.8000488281</ele>
        <time>2013-02-23T11:34:06.000Z</time>
      </trkpt>
      <trkpt lat="46.00659" lon="6.35133">
        <ele>1795.8000488281</ele>
        <time>2013-02-23T11:34:13.000Z</time>
      </trkpt>
      <trkpt lat="46.00659" lon="6.35131">
        <ele>1795.8000488281</ele>
        <time>2013-02-23T11:34:18.000Z</time>
      </trkpt>
      <trkpt lat="46.00658" lon="6.35128">
        <ele>1796.1999511719</ele>
        <time>2013-02-23T11:34:29.000Z</time>
      </trkpt>
      <trkpt lat="46.00657" lon="6.35122">
        <ele>1797.1999511719</ele>
        <time>2013-02-23T11:34:36.000Z</time>
      </trkpt>
      <trkpt lat="46.00657" lon="6.3512">
        <ele>1797.8000488281</ele>
        <time>2013-02-23T11:34:43.000Z</time>
      </trkpt>
      <trkpt lat="46.00657" lon="6.35119">
        <ele>1797.8000488281</ele>
        <time>2013-02-23T11:35:02.000Z</time>
      </trkpt>
      <trkpt lat="46.00658" lon="6.35119">
        <ele>1798.1999511719</ele>
        <time>2013-02-23T11:35:08.000Z</time>
      </trkpt>
      <trkpt lat="46.00659" lon="6.3512">
        <ele>1799.1999511719</ele>
        <time>2013-02-23T11:35:14.000Z</time>
      </trkpt>
      <trkpt lat="46.0066" lon="6.35121">
        <ele>1799.5999755859</ele>
        <time>2013-02-23T11:35:19.000Z</time>
      </trkpt>
      <trkpt lat="46.00661" lon="6.35122">
        <ele>1800.5999755859</ele>
        <time>2013-02-23T11:35:25.000Z</time>
      </trkpt>
      <trkpt lat="46.00662" lon="6.35122">
        <ele>1801.5999755859</ele>
        <time>2013-02-23T11:35:30.000Z</time>
      </trkpt>
      <trkpt lat="46.00664" lon="6.35121">
        <ele>1803</ele>
        <time>2013-02-23T11:35:43.000Z</time>
      </trkpt>
      <trkpt lat="46.00666" lon="6.35122">
        <ele>1803.4000244141</ele>
        <time>2013-02-23T11:35:46.000Z</time>
      </trkpt>
      <trkpt lat="46.00669" lon="6.35125">
        <ele>1804.4000244141</ele>
        <time>2013-02-23T11:35:51.000Z</time>
      </trkpt>
      <trkpt lat="46.00671" lon="6.35126">
        <ele>1805</ele>
        <time>2013-02-23T11:35:55.000Z</time>
      </trkpt>
      <trkpt lat="46.00673" lon="6.35128">
        <ele>1805.8000488281</ele>
        <time>2013-02-23T11:35:59.000Z</time>
      </trkpt>
      <trkpt lat="46.00675" lon="6.35129">
        <ele>1807.8000488281</ele>
        <time>2013-02-23T11:36:05.000Z</time>
      </trkpt>
      <trkpt lat="46.00678" lon="6.35131">
        <ele>1808.8000488281</ele>
        <time>2013-02-23T11:36:10.000Z</time>
      </trkpt>
      <trkpt lat="46.0068" lon="6.35133">
        <ele>1809.8000488281</ele>
        <time>2013-02-23T11:36:15.000Z</time>
      </trkpt>
      <trkpt lat="46.00683" lon="6.35135">
        <ele>1811.5999755859</ele>
        <time>2013-02-23T11:36:21.000Z</time>
      </trkpt>
      <trkpt lat="46.00685" lon="6.35137">
        <ele>1812.5999755859</ele>
        <time>2013-02-23T11:36:27.000Z</time>
      </trkpt>
      <trkpt lat="46.00687" lon="6.35138">
        <ele>1813</ele>
        <time>2013-02-23T11:36:31.000Z</time>
      </trkpt>
      <trkpt lat="46.0069" lon="6.35139">
        <ele>1813.5999755859</ele>
        <time>2013-02-23T11:36:35.000Z</time>
      </trkpt>
      <trkpt lat="46.00693" lon="6.35142">
        <ele>1816</ele>
        <time>2013-02-23T11:36:43.000Z</time>
      </trkpt>
      <trkpt lat="46.00694" lon="6.35143">
        <ele>1816</ele>
        <time>2013-02-23T11:36:45.000Z</time>
      </trkpt>
      <trkpt lat="46.00697" lon="6.35143">
        <ele>1816.4000244141</ele>
        <time>2013-02-23T11:36:50.000Z</time>
      </trkpt>
      <trkpt lat="46.00699" lon="6.35144">
        <ele>1817</ele>
        <time>2013-02-23T11:36:54.000Z</time>
      </trkpt>
      <trkpt lat="46.007" lon="6.35145">
        <ele>1817.8000488281</ele>
        <time>2013-02-23T11:37:00.000Z</time>
      </trkpt>
      <trkpt lat="46.00703" lon="6.35146">
        <ele>1818.8000488281</ele>
        <time>2013-02-23T11:37:06.000Z</time>
      </trkpt>
      <trkpt lat="46.00705" lon="6.35148">
        <ele>1820.1999511719</ele>
        <time>2013-02-23T11:37:11.000Z</time>
      </trkpt>
      <trkpt lat="46.00707" lon="6.35149">
        <ele>1821.8000488281</ele>
        <time>2013-02-23T11:37:17.000Z</time>
      </trkpt>
      <trkpt lat="46.00709" lon="6.3515">
        <ele>1822.5999755859</ele>
        <time>2013-02-23T11:37:22.000Z</time>
      </trkpt>
      <trkpt lat="46.00712" lon="6.35151">
        <ele>1823.1999511719</ele>
        <time>2013-02-23T11:37:28.000Z</time>
      </trkpt>
      <trkpt lat="46.00714" lon="6.35152">
        <ele>1824.5999755859</ele>
        <time>2013-02-23T11:37:33.000Z</time>
      </trkpt>
      <trkpt lat="46.00717" lon="6.35153">
        <ele>1825.5999755859</ele>
        <time>2013-02-23T11:37:40.000Z</time>
      </trkpt>
      <trkpt lat="46.0072" lon="6.35154">
        <ele>1826.5999755859</ele>
        <time>2013-02-23T11:37:45.000Z</time>
      </trkpt>
      <trkpt lat="46.00721" lon="6.35155">
        <ele>1827</ele>
        <time>2013-02-23T11:37:48.000Z</time>
      </trkpt>
      <trkpt lat="46.00724" lon="6.35156">
        <ele>1827</ele>
        <time>2013-02-23T11:37:51.000Z</time>
      </trkpt>
      <trkpt lat="46.00726" lon="6.35157">
        <ele>1828</ele>
        <time>2013-02-23T11:37:54.000Z</time>
      </trkpt>
      <trkpt lat="46.00728" lon="6.35157">
        <ele>1829.4000244141</ele>
        <time>2013-02-23T11:37:59.000Z</time>
      </trkpt>
      <trkpt lat="46.00729" lon="6.35158">
        <ele>1830</ele>
        <time>2013-02-23T11:38:04.000Z</time>
      </trkpt>
      <trkpt lat="46.00732" lon="6.35158">
        <ele>1830.4000244141</ele>
        <time>2013-02-23T11:38:09.000Z</time>
      </trkpt>
      <trkpt lat="46.00733" lon="6.35158">
        <ele>1830.4000244141</ele>
        <time>2013-02-23T11:38:15.000Z</time>
      </trkpt>
      <trkpt lat="46.00736" lon="6.35158">
        <ele>1831.4000244141</ele>
        <time>2013-02-23T11:38:20.000Z</time>
      </trkpt>
      <trkpt lat="46.00738" lon="6.35159">
        <ele>1832.4000244141</ele>
        <time>2013-02-23T11:38:26.000Z</time>
      </trkpt>
      <trkpt lat="46.00741" lon="6.3516">
        <ele>1834.1999511719</ele>
        <time>2013-02-23T11:38:32.000Z</time>
      </trkpt>
      <trkpt lat="46.00742" lon="6.35161">
        <ele>1836.5999755859</ele>
        <time>2013-02-23T11:38:37.000Z</time>
      </trkpt>
      <trkpt lat="46.00744" lon="6.35161">
        <ele>1837.5999755859</ele>
        <time>2013-02-23T11:38:43.000Z</time>
      </trkpt>
      <trkpt lat="46.00744" lon="6.35161">
        <ele>1837.5999755859</ele>
        <time>2013-02-23T11:38:49.000Z</time>
      </trkpt>
      <trkpt lat="46.00743" lon="6.35157">
        <ele>1837.5999755859</ele>
        <time>2013-02-23T11:38:55.000Z</time>
      </trkpt>
      <trkpt lat="46.00739" lon="6.3515">
        <ele>1838</ele>
        <time>2013-02-23T11:39:03.000Z</time>
      </trkpt>
      <trkpt lat="46.00737" lon="6.35145">
        <ele>1837.5999755859</ele>
        <time>2013-02-23T11:39:11.000Z</time>
      </trkpt>
      <trkpt lat="46.00735" lon="6.3514">
        <ele>1837.5999755859</ele>
        <time>2013-02-23T11:39:18.000Z</time>
      </trkpt>
      <trkpt lat="46.00735" lon="6.35137">
        <ele>1837.5999755859</ele>
        <time>2013-02-23T11:39:23.000Z</time>
      </trkpt>
      <trkpt lat="46.00735" lon="6.35134">
        <ele>1839.5999755859</ele>
        <time>2013-02-23T11:39:39.000Z</time>
      </trkpt>
      <trkpt lat="46.00738" lon="6.3513">
        <ele>1840.4000244141</ele>
        <time>2013-02-23T11:39:45.000Z</time>
      </trkpt>
      <trkpt lat="46.00739" lon="6.35128">
        <ele>1840.4000244141</ele>
        <time>2013-02-23T11:39:51.000Z</time>
      </trkpt>
      <trkpt lat="46.0074" lon="6.35127">
        <ele>1841</ele>
        <time>2013-02-23T11:40:17.000Z</time>
      </trkpt>
      <trkpt lat="46.00743" lon="6.35133">
        <ele>1841</ele>
        <time>2013-02-23T11:40:22.000Z</time>
      </trkpt>
      <trkpt lat="46.00745" lon="6.35141">
        <ele>1842</ele>
        <time>2013-02-23T11:40:30.000Z</time>
      </trkpt>
      <trkpt lat="46.00746" lon="6.35144">
        <ele>1842.4000244141</ele>
        <time>2013-02-23T11:40:36.000Z</time>
      </trkpt>
      <trkpt lat="46.00746" lon="6.35144">
        <ele>1842.4000244141</ele>
        <time>2013-02-23T11:40:44.000Z</time>
      </trkpt>
      <trkpt lat="46.00746" lon="6.35144">
        <ele>1842.4000244141</ele>
        <time>2013-02-23T11:40:52.000Z</time>
      </trkpt>
      <trkpt lat="46.00747" lon="6.35145">
        <ele>1842.8000488281</ele>
        <time>2013-02-23T11:41:08.000Z</time>
      </trkpt>
      <trkpt lat="46.00747" lon="6.35146">
        <ele>1842.8000488281</ele>
        <time>2013-02-23T11:41:25.000Z</time>
      </trkpt>
      <trkpt lat="46.00748" lon="6.35145">
        <ele>1843.8000488281</ele>
        <time>2013-02-23T11:41:35.000Z</time>
      </trkpt>
      <trkpt lat="46.00747" lon="6.35145">
        <ele>1842.8000488281</ele>
        <time>2013-02-23T11:41:56.000Z</time>
      </trkpt>
      <trkpt lat="46.00748" lon="6.35145">
        <ele>1842.8000488281</ele>
        <time>2013-02-23T11:42:16.000Z</time>
      </trkpt>
      <trkpt lat="46.00747" lon="6.35145">
        <ele>1842.4000244141</ele>
        <time>2013-02-23T11:42:28.000Z</time>
      </trkpt>
      <trkpt lat="46.00744" lon="6.35145">
        <ele>1840</ele>
        <time>2013-02-23T11:43:08.000Z</time>
      </trkpt>
      <trkpt lat="46.00744" lon="6.35142">
        <ele>1839.5999755859</ele>
        <time>2013-02-23T11:43:15.000Z</time>
      </trkpt>
      <trkpt lat="46.00742" lon="6.35134">
        <ele>1839</ele>
        <time>2013-02-23T11:43:22.000Z</time>
      </trkpt>
      <trkpt lat="46.00742" lon="6.35133">
        <ele>1839</ele>
        <time>2013-02-23T11:43:30.000Z</time>
      </trkpt>
      <trkpt lat="46.00742" lon="6.35131">
        <ele>1839</ele>
        <time>2013-02-23T11:43:35.000Z</time>
      </trkpt>
      <trkpt lat="46.00741" lon="6.35123">
        <ele>1839</ele>
        <time>2013-02-23T11:43:43.000Z</time>
      </trkpt>
      <trkpt lat="46.00739" lon="6.35117">
        <ele>1839</ele>
        <time>2013-02-23T11:43:50.000Z</time>
      </trkpt>
      <trkpt lat="46.00736" lon="6.35111">
        <ele>1839.5999755859</ele>
        <time>2013-02-23T11:43:57.000Z</time>
      </trkpt>
      <trkpt lat="46.00734" lon="6.35106">
        <ele>1840.4000244141</ele>
        <time>2013-02-23T11:44:04.000Z</time>
      </trkpt>
      <trkpt lat="46.00731" lon="6.35104">
        <ele>1840.4000244141</ele>
        <time>2013-02-23T11:44:11.000Z</time>
      </trkpt>
      <trkpt lat="46.00726" lon="6.35098">
        <ele>1841</ele>
        <time>2013-02-23T11:44:19.000Z</time>
      </trkpt>
      <trkpt lat="46.00723" lon="6.35094">
        <ele>1841.4000244141</ele>
        <time>2013-02-23T11:44:25.000Z</time>
      </trkpt>
      <trkpt lat="46.00721" lon="6.35089">
        <ele>1842.4000244141</ele>
        <time>2013-02-23T11:44:31.000Z</time>
      </trkpt>
      <trkpt lat="46.0072" lon="6.35086">
        <ele>1842.4000244141</ele>
        <time>2013-02-23T11:44:35.000Z</time>
      </trkpt>
      <trkpt lat="46.00718" lon="6.35082">
        <ele>1843.4000244141</ele>
        <time>2013-02-23T11:44:40.000Z</time>
      </trkpt>
      <trkpt lat="46.00716" lon="6.35077">
        <ele>1844.4000244141</ele>
        <time>2013-02-23T11:44:46.000Z</time>
      </trkpt>
      <trkpt lat="46.00716" lon="6.35074">
        <ele>1845.1999511719</ele>
        <time>2013-02-23T11:44:50.000Z</time>
      </trkpt>
      <trkpt lat="46.00715" lon="6.35071">
        <ele>1845.8000488281</ele>
        <time>2013-02-23T11:44:54.000Z</time>
      </trkpt>
      <trkpt lat="46.00716" lon="6.35068">
        <ele>1847.1999511719</ele>
        <time>2013-02-23T11:44:58.000Z</time>
      </trkpt>
      <trkpt lat="46.00717" lon="6.35069">
        <ele>1847.5999755859</ele>
        <time>2013-02-23T11:45:02.000Z</time>
      </trkpt>
      <trkpt lat="46.0072" lon="6.3507">
        <ele>1848.1999511719</ele>
        <time>2013-02-23T11:45:08.000Z</time>
      </trkpt>
      <trkpt lat="46.00723" lon="6.35072">
        <ele>1849.1999511719</ele>
        <time>2013-02-23T11:45:13.000Z</time>
      </trkpt>
      <trkpt lat="46.00727" lon="6.35072">
        <ele>1850</ele>
        <time>2013-02-23T11:45:20.000Z</time>
      </trkpt>
      <trkpt lat="46.0073" lon="6.35072">
        <ele>1851</ele>
        <time>2013-02-23T11:45:26.000Z</time>
      </trkpt>
      <trkpt lat="46.00732" lon="6.3507">
        <ele>1851.5999755859</ele>
        <time>2013-02-23T11:45:31.000Z</time>
      </trkpt>
      <trkpt lat="46.00732" lon="6.35069">
        <ele>1852.4000244141</ele>
        <time>2013-02-23T11:45:37.000Z</time>
      </trkpt>
      <trkpt lat="46.00731" lon="6.35067">
        <ele>1853.4000244141</ele>
        <time>2013-02-23T11:45:42.000Z</time>
      </trkpt>
      <trkpt lat="46.0073" lon="6.35066">
        <ele>1854</ele>
        <time>2013-02-23T11:45:48.000Z</time>
      </trkpt>
      <trkpt lat="46.0073" lon="6.35066">
        <ele>1854</ele>
        <time>2013-02-23T11:45:55.000Z</time>
      </trkpt>
      <trkpt lat="46.00727" lon="6.35067">
        <ele>1853</ele>
        <time>2013-02-23T11:45:57.000Z</time>
      </trkpt>
      <trkpt lat="46.00721" lon="6.35064">
        <ele>1852</ele>
        <time>2013-02-23T11:46:02.000Z</time>
      </trkpt>
      <trkpt lat="46.00717" lon="6.35058">
        <ele>1852</ele>
        <time>2013-02-23T11:46:08.000Z</time>
      </trkpt>
      <trkpt lat="46.00716" lon="6.35053">
        <ele>1852.4000244141</ele>
        <time>2013-02-23T11:46:13.000Z</time>
      </trkpt>
      <trkpt lat="46.00716" lon="6.35051">
        <ele>1853</ele>
        <time>2013-02-23T11:46:16.000Z</time>
      </trkpt>
      <trkpt lat="46.00715" lon="6.35048">
        <ele>1854.4000244141</ele>
        <time>2013-02-23T11:46:20.000Z</time>
      </trkpt>
      <trkpt lat="46.00715" lon="6.35044">
        <ele>1855.4000244141</ele>
        <time>2013-02-23T11:46:25.000Z</time>
      </trkpt>
      <trkpt lat="46.00715" lon="6.3504">
        <ele>1856.8000488281</ele>
        <time>2013-02-23T11:46:31.000Z</time>
      </trkpt>
      <trkpt lat="46.00716" lon="6.35036">
        <ele>1857.4000244141</ele>
        <time>2013-02-23T11:46:36.000Z</time>
      </trkpt>
      <trkpt lat="46.00716" lon="6.35033">
        <ele>1858.8000488281</ele>
        <time>2013-02-23T11:46:42.000Z</time>
      </trkpt>
      <trkpt lat="46.00716" lon="6.35029">
        <ele>1859.8000488281</ele>
        <time>2013-02-23T11:46:49.000Z</time>
      </trkpt>
      <trkpt lat="46.00717" lon="6.35027">
        <ele>1860.1999511719</ele>
        <time>2013-02-23T11:46:53.000Z</time>
      </trkpt>
      <trkpt lat="46.00719" lon="6.35028">
        <ele>1860.1999511719</ele>
        <time>2013-02-23T11:46:57.000Z</time>
      </trkpt>
      <trkpt lat="46.00722" lon="6.3503">
        <ele>1860.5999755859</ele>
        <time>2013-02-23T11:47:02.000Z</time>
      </trkpt>
      <trkpt lat="46.00724" lon="6.35033">
        <ele>1861.5999755859</ele>
        <time>2013-02-23T11:47:07.000Z</time>
      </trkpt>
      <trkpt lat="46.00725" lon="6.35035">
        <ele>1862.1999511719</ele>
        <time>2013-02-23T11:47:11.000Z</time>
      </trkpt>
      <trkpt lat="46.00729" lon="6.35037">
        <ele>1864.5999755859</ele>
        <time>2013-02-23T11:47:19.000Z</time>
      </trkpt>
      <trkpt lat="46.00731" lon="6.35037">
        <ele>1865</ele>
        <time>2013-02-23T11:47:24.000Z</time>
      </trkpt>
      <trkpt lat="46.00733" lon="6.35037">
        <ele>1866</ele>
        <time>2013-02-23T11:47:30.000Z</time>
      </trkpt>
      <trkpt lat="46.00734" lon="6.35038">
        <ele>1867</ele>
        <time>2013-02-23T11:47:36.000Z</time>
      </trkpt>
      <trkpt lat="46.00737" lon="6.35038">
        <ele>1867</ele>
        <time>2013-02-23T11:47:42.000Z</time>
      </trkpt>
      <trkpt lat="46.00739" lon="6.35038">
        <ele>1867.8000488281</ele>
        <time>2013-02-23T11:47:46.000Z</time>
      </trkpt>
      <trkpt lat="46.0074" lon="6.35038">
        <ele>1868.4000244141</ele>
        <time>2013-02-23T11:47:51.000Z</time>
      </trkpt>
      <trkpt lat="46.00741" lon="6.35037">
        <ele>1868.8000488281</ele>
        <time>2013-02-23T11:48:03.000Z</time>
      </trkpt>
      <trkpt lat="46.0074" lon="6.35036">
        <ele>1868.8000488281</ele>
        <time>2013-02-23T11:48:14.000Z</time>
      </trkpt>
      <trkpt lat="46.0074" lon="6.35035">
        <ele>1869.4000244141</ele>
        <time>2013-02-23T11:48:20.000Z</time>
      </trkpt>
      <trkpt lat="46.00739" lon="6.35036">
        <ele>1869.8000488281</ele>
        <time>2013-02-23T11:48:33.000Z</time>
      </trkpt>
      <trkpt lat="46.00735" lon="6.35033">
        <ele>1869.8000488281</ele>
        <time>2013-02-23T11:48:38.000Z</time>
      </trkpt>
      <trkpt lat="46.00733" lon="6.35027">
        <ele>1870.8000488281</ele>
        <time>2013-02-23T11:48:44.000Z</time>
      </trkpt>
      <trkpt lat="46.00734" lon="6.35027">
        <ele>1871.8000488281</ele>
        <time>2013-02-23T11:48:49.000Z</time>
      </trkpt>
      <trkpt lat="46.00736" lon="6.35028">
        <ele>1872.5999755859</ele>
        <time>2013-02-23T11:48:54.000Z</time>
      </trkpt>
      <trkpt lat="46.00738" lon="6.35028">
        <ele>1873.1999511719</ele>
        <time>2013-02-23T11:49:00.000Z</time>
      </trkpt>
      <trkpt lat="46.00738" lon="6.35028">
        <ele>1873.1999511719</ele>
        <time>2013-02-23T11:49:05.000Z</time>
      </trkpt>
      <trkpt lat="46.00736" lon="6.35026">
        <ele>1874.1999511719</ele>
        <time>2013-02-23T11:49:10.000Z</time>
      </trkpt>
      <trkpt lat="46.00736" lon="6.35025">
        <ele>1874.1999511719</ele>
        <time>2013-02-23T11:49:15.000Z</time>
      </trkpt>
      <trkpt lat="46.00736" lon="6.35023">
        <ele>1874.5999755859</ele>
        <time>2013-02-23T11:49:34.000Z</time>
      </trkpt>
      <trkpt lat="46.00736" lon="6.3502">
        <ele>1875.5999755859</ele>
        <time>2013-02-23T11:49:38.000Z</time>
      </trkpt>
      <trkpt lat="46.00736" lon="6.35015">
        <ele>1876</ele>
        <time>2013-02-23T11:49:44.000Z</time>
      </trkpt>
      <trkpt lat="46.00736" lon="6.35011">
        <ele>1877.4000244141</ele>
        <time>2013-02-23T11:49:49.000Z</time>
      </trkpt>
      <trkpt lat="46.00736" lon="6.35007">
        <ele>1878.4000244141</ele>
        <time>2013-02-23T11:49:55.000Z</time>
      </trkpt>
      <trkpt lat="46.00737" lon="6.35005">
        <ele>1879.8000488281</ele>
        <time>2013-02-23T11:50:01.000Z</time>
      </trkpt>
      <trkpt lat="46.00739" lon="6.35006">
        <ele>1880.8000488281</ele>
        <time>2013-02-23T11:50:06.000Z</time>
      </trkpt>
      <trkpt lat="46.00741" lon="6.35006">
        <ele>1882.1999511719</ele>
        <time>2013-02-23T11:50:12.000Z</time>
      </trkpt>
      <trkpt lat="46.00743" lon="6.35006">
        <ele>1882.8000488281</ele>
        <time>2013-02-23T11:50:16.000Z</time>
      </trkpt>
      <trkpt lat="46.00745" lon="6.35006">
        <ele>1883.8000488281</ele>
        <time>2013-02-23T11:50:20.000Z</time>
      </trkpt>
      <trkpt lat="46.00747" lon="6.35005">
        <ele>1884.8000488281</ele>
        <time>2013-02-23T11:50:24.000Z</time>
      </trkpt>
      <trkpt lat="46.00749" lon="6.35004">
        <ele>1885.1999511719</ele>
        <time>2013-02-23T11:50:30.000Z</time>
      </trkpt>
      <trkpt lat="46.00751" lon="6.35004">
        <ele>1886.1999511719</ele>
        <time>2013-02-23T11:50:36.000Z</time>
      </trkpt>
      <trkpt lat="46.00753" lon="6.35004">
        <ele>1887.1999511719</ele>
        <time>2013-02-23T11:50:41.000Z</time>
      </trkpt>
      <trkpt lat="46.00752" lon="6.35004">
        <ele>1886.5999755859</ele>
        <time>2013-02-23T11:50:47.000Z</time>
      </trkpt>
      <trkpt lat="46.00752" lon="6.35003">
        <ele>1887.1999511719</ele>
        <time>2013-02-23T11:50:53.000Z</time>
      </trkpt>
      <trkpt lat="46.0075" lon="6.35">
        <ele>1888.5999755859</ele>
        <time>2013-02-23T11:50:58.000Z</time>
      </trkpt>
      <trkpt lat="46.00749" lon="6.34996">
        <ele>1890</ele>
        <time>2013-02-23T11:51:03.000Z</time>
      </trkpt>
      <trkpt lat="46.00748" lon="6.34992">
        <ele>1891</ele>
        <time>2013-02-23T11:51:08.000Z</time>
      </trkpt>
      <trkpt lat="46.00747" lon="6.34989">
        <ele>1892.4000244141</ele>
        <time>2013-02-23T11:51:12.000Z</time>
      </trkpt>
      <trkpt lat="46.00749" lon="6.34988">
        <ele>1892</ele>
        <time>2013-02-23T11:51:18.000Z</time>
      </trkpt>
      <trkpt lat="46.00751" lon="6.34989">
        <ele>1892.8000488281</ele>
        <time>2013-02-23T11:51:23.000Z</time>
      </trkpt>
      <trkpt lat="46.00753" lon="6.34989">
        <ele>1893.8000488281</ele>
        <time>2013-02-23T11:51:28.000Z</time>
      </trkpt>
      <trkpt lat="46.00756" lon="6.34989">
        <ele>1894.4000244141</ele>
        <time>2013-02-23T11:51:32.000Z</time>
      </trkpt>
      <trkpt lat="46.00758" lon="6.34988">
        <ele>1894.8000488281</ele>
        <time>2013-02-23T11:51:36.000Z</time>
      </trkpt>
      <trkpt lat="46.00759" lon="6.34988">
        <ele>1895.1999511719</ele>
        <time>2013-02-23T11:51:40.000Z</time>
      </trkpt>
      <trkpt lat="46.00762" lon="6.34988">
        <ele>1896.1999511719</ele>
        <time>2013-02-23T11:51:46.000Z</time>
      </trkpt>
      <trkpt lat="46.00764" lon="6.34987">
        <ele>1896.1999511719</ele>
        <time>2013-02-23T11:51:50.000Z</time>
      </trkpt>
      <trkpt lat="46.00767" lon="6.34986">
        <ele>1896.1999511719</ele>
        <time>2013-02-23T11:51:55.000Z</time>
      </trkpt>
      <trkpt lat="46.00769" lon="6.34984">
        <ele>1897.1999511719</ele>
        <time>2013-02-23T11:51:59.000Z</time>
      </trkpt>
      <trkpt lat="46.00773" lon="6.34982">
        <ele>1899.1999511719</ele>
        <time>2013-02-23T11:52:07.000Z</time>
      </trkpt>
      <trkpt lat="46.00773" lon="6.34981">
        <ele>1899.5999755859</ele>
        <time>2013-02-23T11:52:13.000Z</time>
      </trkpt>
      <trkpt lat="46.00772" lon="6.34981">
        <ele>1900</ele>
        <time>2013-02-23T11:52:18.000Z</time>
      </trkpt>
      <trkpt lat="46.00771" lon="6.34978">
        <ele>1900.5999755859</ele>
        <time>2013-02-23T11:52:22.000Z</time>
      </trkpt>
      <trkpt lat="46.00769" lon="6.34976">
        <ele>1902</ele>
        <time>2013-02-23T11:52:27.000Z</time>
      </trkpt>
      <trkpt lat="46.00766" lon="6.34973">
        <ele>1904.4000244141</ele>
        <time>2013-02-23T11:52:34.000Z</time>
      </trkpt>
      <trkpt lat="46.00766" lon="6.34971">
        <ele>1905.4000244141</ele>
        <time>2013-02-23T11:52:38.000Z</time>
      </trkpt>
      <trkpt lat="46.00764" lon="6.34968">
        <ele>1906.8000488281</ele>
        <time>2013-02-23T11:52:44.000Z</time>
      </trkpt>
      <trkpt lat="46.00762" lon="6.34964">
        <ele>1907.8000488281</ele>
        <time>2013-02-23T11:52:49.000Z</time>
      </trkpt>
      <trkpt lat="46.00761" lon="6.34961">
        <ele>1909.1999511719</ele>
        <time>2013-02-23T11:52:54.000Z</time>
      </trkpt>
      <trkpt lat="46.00762" lon="6.34959">
        <ele>1910.1999511719</ele>
        <time>2013-02-23T11:52:58.000Z</time>
      </trkpt>
      <trkpt lat="46.00763" lon="6.34959">
        <ele>1910.5999755859</ele>
        <time>2013-02-23T11:53:03.000Z</time>
      </trkpt>
      <trkpt lat="46.00763" lon="6.34958">
        <ele>1910.5999755859</ele>
        <time>2013-02-23T11:53:11.000Z</time>
      </trkpt>
      <trkpt lat="46.00763" lon="6.34958">
        <ele>1909.5999755859</ele>
        <time>2013-02-23T11:53:18.000Z</time>
      </trkpt>
      <trkpt lat="46.00761" lon="6.34958">
        <ele>1907.8000488281</ele>
        <time>2013-02-23T11:53:48.000Z</time>
      </trkpt>
      <trkpt lat="46.00762" lon="6.3496">
        <ele>1907.1999511719</ele>
        <time>2013-02-23T11:53:59.000Z</time>
      </trkpt>
      <trkpt lat="46.00763" lon="6.3496">
        <ele>1908.8000488281</ele>
        <time>2013-02-23T11:54:08.000Z</time>
      </trkpt>
      <trkpt lat="46.00764" lon="6.34961">
        <ele>1910.1999511719</ele>
        <time>2013-02-23T11:54:16.000Z</time>
      </trkpt>
      <trkpt lat="46.00765" lon="6.34961">
        <ele>1910.1999511719</ele>
        <time>2013-02-23T11:54:22.000Z</time>
      </trkpt>
      <trkpt lat="46.00765" lon="6.3496">
        <ele>1908.1999511719</ele>
        <time>2013-02-23T11:54:37.000Z</time>
      </trkpt>
      <trkpt lat="46.00764" lon="6.34958">
        <ele>1906.8000488281</ele>
        <time>2013-02-23T11:54:47.000Z</time>
      </trkpt>
      <trkpt lat="46.00762" lon="6.34958">
        <ele>1906.8000488281</ele>
        <time>2013-02-23T11:54:57.000Z</time>
      </trkpt>
      <trkpt lat="46.00763" lon="6.34959">
        <ele>1907.1999511719</ele>
        <time>2013-02-23T11:55:10.000Z</time>
      </trkpt>
      <trkpt lat="46.00763" lon="6.34958">
        <ele>1907.1999511719</ele>
        <time>2013-02-23T11:55:19.000Z</time>
      </trkpt>
      <trkpt lat="46.00763" lon="6.34958">
        <ele>1906.8000488281</ele>
        <time>2013-02-23T11:55:28.000Z</time>
      </trkpt>
      <trkpt lat="46.00763" lon="6.34959">
        <ele>1907.1999511719</ele>
        <time>2013-02-23T11:55:34.000Z</time>
      </trkpt>
      <trkpt lat="46.00762" lon="6.34959">
        <ele>1906.8000488281</ele>
        <time>2013-02-23T11:55:41.000Z</time>
      </trkpt>
      <trkpt lat="46.00762" lon="6.34957">
        <ele>1907.8000488281</ele>
        <time>2013-02-23T11:55:46.000Z</time>
      </trkpt>
      <trkpt lat="46.00763" lon="6.34955">
        <ele>1907.1999511719</ele>
        <time>2013-02-23T11:55:52.000Z</time>
      </trkpt>
      <trkpt lat="46.00763" lon="6.34955">
        <ele>1907.1999511719</ele>
        <time>2013-02-23T11:55:57.000Z</time>
      </trkpt>
      <trkpt lat="46.00764" lon="6.34955">
        <ele>1908.1999511719</ele>
        <time>2013-02-23T11:56:09.000Z</time>
      </trkpt>
      <trkpt lat="46.00765" lon="6.34956">
        <ele>1908.8000488281</ele>
        <time>2013-02-23T11:56:13.000Z</time>
      </trkpt>
      <trkpt lat="46.00764" lon="6.34955">
        <ele>1907.1999511719</ele>
        <time>2013-02-23T11:56:24.000Z</time>
      </trkpt>
      <trkpt lat="46.00764" lon="6.34956">
        <ele>1907.1999511719</ele>
        <time>2013-02-23T11:56:39.000Z</time>
      </trkpt>
      <trkpt lat="46.00764" lon="6.34957">
        <ele>1907.8000488281</ele>
        <time>2013-02-23T11:56:45.000Z</time>
      </trkpt>
      <trkpt lat="46.00763" lon="6.34957">
        <ele>1907.8000488281</ele>
        <time>2013-02-23T11:56:56.000Z</time>
      </trkpt>
      <trkpt lat="46.00763" lon="6.34958">
        <ele>1907.8000488281</ele>
        <time>2013-02-23T11:57:01.000Z</time>
      </trkpt>
      <trkpt lat="46.00763" lon="6.34959">
        <ele>1908.1999511719</ele>
        <time>2013-02-23T11:57:09.000Z</time>
      </trkpt>
      <trkpt lat="46.00764" lon="6.34958">
        <ele>1907.1999511719</ele>
        <time>2013-02-23T11:57:37.000Z</time>
      </trkpt>
      <trkpt lat="46.00764" lon="6.34958">
        <ele>1906.8000488281</ele>
        <time>2013-02-23T11:57:52.000Z</time>
      </trkpt>
      <trkpt lat="46.00764" lon="6.34959">
        <ele>1907.1999511719</ele>
        <time>2013-02-23T11:58:00.000Z</time>
      </trkpt>
      <trkpt lat="46.00763" lon="6.34959">
        <ele>1907.8000488281</ele>
        <time>2013-02-23T11:58:09.000Z</time>
      </trkpt>
      <trkpt lat="46.00762" lon="6.34959">
        <ele>1907.8000488281</ele>
        <time>2013-02-23T11:58:21.000Z</time>
      </trkpt>
      <trkpt lat="46.00762" lon="6.34959">
        <ele>1907.1999511719</ele>
        <time>2013-02-23T11:58:29.000Z</time>
      </trkpt>
      <trkpt lat="46.00763" lon="6.34959">
        <ele>1907.8000488281</ele>
        <time>2013-02-23T11:58:46.000Z</time>
      </trkpt>
      <trkpt lat="46.00763" lon="6.34959">
        <ele>1909.5999755859</ele>
        <time>2013-02-23T11:59:01.000Z</time>
      </trkpt>
      <trkpt lat="46.00763" lon="6.34959">
        <ele>1909.5999755859</ele>
        <time>2013-02-23T11:59:08.000Z</time>
      </trkpt>
      <trkpt lat="46.00763" lon="6.3496">
        <ele>1911.1999511719</ele>
        <time>2013-02-23T11:59:27.000Z</time>
      </trkpt>
      <trkpt lat="46.00764" lon="6.3496">
        <ele>1911.1999511719</ele>
        <time>2013-02-23T11:59:41.000Z</time>
      </trkpt>
      <trkpt lat="46.00765" lon="6.3496">
        <ele>1911.5999755859</ele>
        <time>2013-02-23T11:59:45.000Z</time>
      </trkpt>
      <trkpt lat="46.00764" lon="6.3496">
        <ele>1910.5999755859</ele>
        <time>2013-02-23T11:59:51.000Z</time>
      </trkpt>
      <trkpt lat="46.00764" lon="6.3496">
        <ele>1910.1999511719</ele>
        <time>2013-02-23T12:00:02.000Z</time>
      </trkpt>
      <trkpt lat="46.00764" lon="6.3496">
        <ele>1911.1999511719</ele>
        <time>2013-02-23T12:00:10.000Z</time>
      </trkpt>
      <trkpt lat="46.00764" lon="6.34959">
        <ele>1910.5999755859</ele>
        <time>2013-02-23T12:00:17.000Z</time>
      </trkpt>
      <trkpt lat="46.00763" lon="6.34959">
        <ele>1910.1999511719</ele>
        <time>2013-02-23T12:00:25.000Z</time>
      </trkpt>
      <trkpt lat="46.00763" lon="6.34959">
        <ele>1909.5999755859</ele>
        <time>2013-02-23T12:00:34.000Z</time>
      </trkpt>
      <trkpt lat="46.00763" lon="6.3496">
        <ele>1909.5999755859</ele>
        <time>2013-02-23T12:00:44.000Z</time>
      </trkpt>
      <trkpt lat="46.00763" lon="6.34959">
        <ele>1909.5999755859</ele>
        <time>2013-02-23T12:00:50.000Z</time>
      </trkpt>
      <trkpt lat="46.00762" lon="6.34959">
        <ele>1909.1999511719</ele>
        <time>2013-02-23T12:01:09.000Z</time>
      </trkpt>
      <trkpt lat="46.00763" lon="6.34958">
        <ele>1909.1999511719</ele>
        <time>2013-02-23T12:01:24.000Z</time>
      </trkpt>
      <trkpt lat="46.00763" lon="6.34958">
        <ele>1909.1999511719</ele>
        <time>2013-02-23T12:01:31.000Z</time>
      </trkpt>
      <trkpt lat="46.00763" lon="6.34958">
        <ele>1909.1999511719</ele>
        <time>2013-02-23T12:01:40.000Z</time>
      </trkpt>
      <trkpt lat="46.00763" lon="6.34957">
        <ele>1909.1999511719</ele>
        <time>2013-02-23T12:01:50.000Z</time>
      </trkpt>
      <trkpt lat="46.00763" lon="6.34957">
        <ele>1908.8000488281</ele>
        <time>2013-02-23T12:02:11.000Z</time>
      </trkpt>
      <trkpt lat="46.00763" lon="6.34958">
        <ele>1908.1999511719</ele>
        <time>2013-02-23T12:02:22.000Z</time>
      </trkpt>
      <trkpt lat="46.00764" lon="6.34958">
        <ele>1907.8000488281</ele>
        <time>2013-02-23T12:02:28.000Z</time>
      </trkpt>
      <trkpt lat="46.00763" lon="6.34959">
        <ele>1908.1999511719</ele>
        <time>2013-02-23T12:02:36.000Z</time>
      </trkpt>
      <trkpt lat="46.00763" lon="6.3496">
        <ele>1907.8000488281</ele>
        <time>2013-02-23T12:02:47.000Z</time>
      </trkpt>
      <trkpt lat="46.00763" lon="6.3496">
        <ele>1906.8000488281</ele>
        <time>2013-02-23T12:03:03.000Z</time>
      </trkpt>
      <trkpt lat="46.00762" lon="6.3496">
        <ele>1905.4000244141</ele>
        <time>2013-02-23T12:03:16.000Z</time>
      </trkpt>
      <trkpt lat="46.00762" lon="6.3496">
        <ele>1905.8000488281</ele>
        <time>2013-02-23T12:03:28.000Z</time>
      </trkpt>
      <trkpt lat="46.00762" lon="6.34961">
        <ele>1905.4000244141</ele>
        <time>2013-02-23T12:03:36.000Z</time>
      </trkpt>
      <trkpt lat="46.00762" lon="6.34961">
        <ele>1904.8000488281</ele>
        <time>2013-02-23T12:03:44.000Z</time>
      </trkpt>
      <trkpt lat="46.00762" lon="6.34961">
        <ele>1905.4000244141</ele>
        <time>2013-02-23T12:03:56.000Z</time>
      </trkpt>
      <trkpt lat="46.00763" lon="6.34961">
        <ele>1905.8000488281</ele>
        <time>2013-02-23T12:04:05.000Z</time>
      </trkpt>
      <trkpt lat="46.00763" lon="6.34962">
        <ele>1907.1999511719</ele>
        <time>2013-02-23T12:04:18.000Z</time>
      </trkpt>
      <trkpt lat="46.00763" lon="6.34962">
        <ele>1907.8000488281</ele>
        <time>2013-02-23T12:04:24.000Z</time>
      </trkpt>
      <trkpt lat="46.00763" lon="6.34962">
        <ele>1908.1999511719</ele>
        <time>2013-02-23T12:04:40.000Z</time>
      </trkpt>
      <trkpt lat="46.00763" lon="6.34962">
        <ele>1908.1999511719</ele>
        <time>2013-02-23T12:04:48.000Z</time>
      </trkpt>
      <trkpt lat="46.00763" lon="6.34962">
        <ele>1908.1999511719</ele>
        <time>2013-02-23T12:04:55.000Z</time>
      </trkpt>
      <trkpt lat="46.00763" lon="6.34962">
        <ele>1908.8000488281</ele>
        <time>2013-02-23T12:05:04.000Z</time>
      </trkpt>
      <trkpt lat="46.00763" lon="6.34962">
        <ele>1909.1999511719</ele>
        <time>2013-02-23T12:05:16.000Z</time>
      </trkpt>
      <trkpt lat="46.00763" lon="6.34962">
        <ele>1909.1999511719</ele>
        <time>2013-02-23T12:05:37.000Z</time>
      </trkpt>
      <trkpt lat="46.00763" lon="6.3496">
        <ele>1909.5999755859</ele>
        <time>2013-02-23T12:05:55.000Z</time>
      </trkpt>
      <trkpt lat="46.00763" lon="6.3496">
        <ele>1908.8000488281</ele>
        <time>2013-02-23T12:06:07.000Z</time>
      </trkpt>
      <trkpt lat="46.00764" lon="6.34963">
        <ele>1907.8000488281</ele>
        <time>2013-02-23T12:06:13.000Z</time>
      </trkpt>
      <trkpt lat="46.00759" lon="6.34969">
        <ele>1904.8000488281</ele>
        <time>2013-02-23T12:06:17.000Z</time>
      </trkpt>
      <trkpt lat="46.00757" lon="6.34972">
        <ele>1903.4000244141</ele>
        <time>2013-02-23T12:06:21.000Z</time>
      </trkpt>
      <trkpt lat="46.00756" lon="6.34975">
        <ele>1902.4000244141</ele>
        <time>2013-02-23T12:06:22.000Z</time>
      </trkpt>
      <trkpt lat="46.00755" lon="6.3498">
        <ele>1900</ele>
        <time>2013-02-23T12:06:26.000Z</time>
      </trkpt>
      <trkpt lat="46.00755" lon="6.34984">
        <ele>1898.1999511719</ele>
        <time>2013-02-23T12:06:30.000Z</time>
      </trkpt>
      <trkpt lat="46.00756" lon="6.34997">
        <ele>1894.8000488281</ele>
        <time>2013-02-23T12:06:35.000Z</time>
      </trkpt>
      <trkpt lat="46.0075" lon="6.34999">
        <ele>1893.4000244141</ele>
        <time>2013-02-23T12:06:37.000Z</time>
      </trkpt>
      <trkpt lat="46.00751" lon="6.34999">
        <ele>1892.4000244141</ele>
        <time>2013-02-23T12:06:42.000Z</time>
      </trkpt>
      <trkpt lat="46.00752" lon="6.35002">
        <ele>1891</ele>
        <time>2013-02-23T12:06:46.000Z</time>
      </trkpt>
      <trkpt lat="46.00753" lon="6.35005">
        <ele>1889.5999755859</ele>
        <time>2013-02-23T12:06:51.000Z</time>
      </trkpt>
      <trkpt lat="46.00752" lon="6.35015">
        <ele>1886.1999511719</ele>
        <time>2013-02-23T12:06:54.000Z</time>
      </trkpt>
      <trkpt lat="46.00749" lon="6.35015">
        <ele>1884.8000488281</ele>
        <time>2013-02-23T12:06:56.000Z</time>
      </trkpt>
      <trkpt lat="46.00745" lon="6.35018">
        <ele>1882.1999511719</ele>
        <time>2013-02-23T12:06:59.000Z</time>
      </trkpt>
      <trkpt lat="46.00745" lon="6.35019">
        <ele>1881.8000488281</ele>
        <time>2013-02-23T12:07:04.000Z</time>
      </trkpt>
      <trkpt lat="46.00745" lon="6.3502">
        <ele>1881.4000244141</ele>
        <time>2013-02-23T12:07:10.000Z</time>
      </trkpt>
      <trkpt lat="46.00745" lon="6.3502">
        <ele>1880.8000488281</ele>
        <time>2013-02-23T12:07:16.000Z</time>
      </trkpt>
      <trkpt lat="46.00746" lon="6.3502">
        <ele>1880.8000488281</ele>
        <time>2013-02-23T12:07:26.000Z</time>
      </trkpt>
      <trkpt lat="46.00746" lon="6.3502">
        <ele>1880.8000488281</ele>
        <time>2013-02-23T12:07:46.000Z</time>
      </trkpt>
      <trkpt lat="46.00744" lon="6.35023">
        <ele>1879</ele>
        <time>2013-02-23T12:08:10.000Z</time>
      </trkpt>
      <trkpt lat="46.00743" lon="6.35024">
        <ele>1877.4000244141</ele>
        <time>2013-02-23T12:08:18.000Z</time>
      </trkpt>
      <trkpt lat="46.00743" lon="6.35024">
        <ele>1876</ele>
        <time>2013-02-23T12:08:24.000Z</time>
      </trkpt>
      <trkpt lat="46.00744" lon="6.35026">
        <ele>1875</ele>
        <time>2013-02-23T12:08:28.000Z</time>
      </trkpt>
      <trkpt lat="46.00746" lon="6.35027">
        <ele>1873.5999755859</ele>
        <time>2013-02-23T12:08:33.000Z</time>
      </trkpt>
      <trkpt lat="46.00746" lon="6.35029">
        <ele>1873.5999755859</ele>
        <time>2013-02-23T12:08:35.000Z</time>
      </trkpt>
      <trkpt lat="46.00744" lon="6.35034">
        <ele>1870.1999511719</ele>
        <time>2013-02-23T12:08:38.000Z</time>
      </trkpt>
      <trkpt lat="46.00745" lon="6.35034">
        <ele>1869.8000488281</ele>
        <time>2013-02-23T12:08:42.000Z</time>
      </trkpt>
      <trkpt lat="46.00744" lon="6.35036">
        <ele>1868.4000244141</ele>
        <time>2013-02-23T12:08:53.000Z</time>
      </trkpt>
      <trkpt lat="46.00745" lon="6.35038">
        <ele>1867</ele>
        <time>2013-02-23T12:08:57.000Z</time>
      </trkpt>
      <trkpt lat="46.00747" lon="6.35041">
        <ele>1864.5999755859</ele>
        <time>2013-02-23T12:09:01.000Z</time>
      </trkpt>
      <trkpt lat="46.00748" lon="6.35041">
        <ele>1864</ele>
        <time>2013-02-23T12:09:06.000Z</time>
      </trkpt>
      <trkpt lat="46.00751" lon="6.35041">
        <ele>1862.1999511719</ele>
        <time>2013-02-23T12:09:09.000Z</time>
      </trkpt>
      <trkpt lat="46.00752" lon="6.35047">
        <ele>1859.8000488281</ele>
        <time>2013-02-23T12:09:12.000Z</time>
      </trkpt>
      <trkpt lat="46.00752" lon="6.35047">
        <ele>1859.1999511719</ele>
        <time>2013-02-23T12:09:13.000Z</time>
      </trkpt>
      <trkpt lat="46.00752" lon="6.35056">
        <ele>1855</ele>
        <time>2013-02-23T12:09:17.000Z</time>
      </trkpt>
      <trkpt lat="46.00755" lon="6.35061">
        <ele>1848.5999755859</ele>
        <time>2013-02-23T12:09:20.000Z</time>
      </trkpt>
      <trkpt lat="46.00757" lon="6.35064">
        <ele>1845.1999511719</ele>
        <time>2013-02-23T12:09:22.000Z</time>
      </trkpt>
      <trkpt lat="46.00759" lon="6.35062">
        <ele>1844.4000244141</ele>
        <time>2013-02-23T12:09:30.000Z</time>
      </trkpt>
      <trkpt lat="46.00761" lon="6.35061">
        <ele>1843.8000488281</ele>
        <time>2013-02-23T12:09:47.000Z</time>
      </trkpt>
      <trkpt lat="46.00761" lon="6.35061">
        <ele>1843.4000244141</ele>
        <time>2013-02-23T12:10:02.000Z</time>
      </trkpt>
      <trkpt lat="46.00761" lon="6.35067">
        <ele>1842.4000244141</ele>
        <time>2013-02-23T12:10:04.000Z</time>
      </trkpt>
      <trkpt lat="46.00768" lon="6.3508">
        <ele>1838</ele>
        <time>2013-02-23T12:10:07.000Z</time>
      </trkpt>
      <trkpt lat="46.00771" lon="6.35094">
        <ele>1833.8000488281</ele>
        <time>2013-02-23T12:10:09.000Z</time>
      </trkpt>
      <trkpt lat="46.00772" lon="6.35113">
        <ele>1824.5999755859</ele>
        <time>2013-02-23T12:10:12.000Z</time>
      </trkpt>
      <trkpt lat="46.00781" lon="6.35134">
        <ele>1816</ele>
        <time>2013-02-23T12:10:15.000Z</time>
      </trkpt>
      <trkpt lat="46.00789" lon="6.35152">
        <ele>1808.8000488281</ele>
        <time>2013-02-23T12:10:18.000Z</time>
      </trkpt>
      <trkpt lat="46.00791" lon="6.3516">
        <ele>1804.4000244141</ele>
        <time>2013-02-23T12:10:20.000Z</time>
      </trkpt>
      <trkpt lat="46.00789" lon="6.3517">
        <ele>1799.5999755859</ele>
        <time>2013-02-23T12:10:23.000Z</time>
      </trkpt>
      <trkpt lat="46.00785" lon="6.35175">
        <ele>1795.8000488281</ele>
        <time>2013-02-23T12:10:26.000Z</time>
      </trkpt>
      <trkpt lat="46.00784" lon="6.35175">
        <ele>1794.4000244141</ele>
        <time>2013-02-23T12:10:30.000Z</time>
      </trkpt>
      <trkpt lat="46.00784" lon="6.35179">
        <ele>1794.8000488281</ele>
        <time>2013-02-23T12:10:47.000Z</time>
      </trkpt>
      <trkpt lat="46.00785" lon="6.35178">
        <ele>1794.8000488281</ele>
        <time>2013-02-23T12:11:01.000Z</time>
      </trkpt>
      <trkpt lat="46.00785" lon="6.35178">
        <ele>1794.8000488281</ele>
        <time>2013-02-23T12:11:12.000Z</time>
      </trkpt>
      <trkpt lat="46.00785" lon="6.35178">
        <ele>1794.4000244141</ele>
        <time>2013-02-23T12:11:20.000Z</time>
      </trkpt>
      <trkpt lat="46.00785" lon="6.35181">
        <ele>1792.8000488281</ele>
        <time>2013-02-23T12:11:24.000Z</time>
      </trkpt>
      <trkpt lat="46.00787" lon="6.35194">
        <ele>1788.5999755859</ele>
        <time>2013-02-23T12:11:30.000Z</time>
      </trkpt>
      <trkpt lat="46.00784" lon="6.35196">
        <ele>1787.5999755859</ele>
        <time>2013-02-23T12:11:31.000Z</time>
      </trkpt>
      <trkpt lat="46.00773" lon="6.3522">
        <ele>1780.4000244141</ele>
        <time>2013-02-23T12:11:36.000Z</time>
      </trkpt>
      <trkpt lat="46.00768" lon="6.35237">
        <ele>1778.4000244141</ele>
        <time>2013-02-23T12:11:39.000Z</time>
      </trkpt>
      <trkpt lat="46.00769" lon="6.35246">
        <ele>1775.5999755859</ele>
        <time>2013-02-23T12:11:44.000Z</time>
      </trkpt>
      <trkpt lat="46.00775" lon="6.35253">
        <ele>1774.1999511719</ele>
        <time>2013-02-23T12:11:47.000Z</time>
      </trkpt>
      <trkpt lat="46.0077" lon="6.35261">
        <ele>1771.8000488281</ele>
        <time>2013-02-23T12:11:50.000Z</time>
      </trkpt>
      <trkpt lat="46.00772" lon="6.35275">
        <ele>1768</ele>
        <time>2013-02-23T12:11:53.000Z</time>
      </trkpt>
      <trkpt lat="46.00765" lon="6.3529">
        <ele>1763.5999755859</ele>
        <time>2013-02-23T12:11:56.000Z</time>
      </trkpt>
      <trkpt lat="46.00775" lon="6.35296">
        <ele>1760.1999511719</ele>
        <time>2013-02-23T12:11:58.000Z</time>
      </trkpt>
      <trkpt lat="46.00786" lon="6.3531">
        <ele>1754.4000244141</ele>
        <time>2013-02-23T12:12:01.000Z</time>
      </trkpt>
      <trkpt lat="46.00792" lon="6.35321">
        <ele>1749.5999755859</ele>
        <time>2013-02-23T12:12:03.000Z</time>
      </trkpt>
      <trkpt lat="46.00794" lon="6.35348">
        <ele>1742</ele>
        <time>2013-02-23T12:12:06.000Z</time>
      </trkpt>
      <trkpt lat="46.00796" lon="6.3536">
        <ele>1737.5999755859</ele>
        <time>2013-02-23T12:12:08.000Z</time>
      </trkpt>
      <trkpt lat="46.00797" lon="6.3537">
        <ele>1733.1999511719</ele>
        <time>2013-02-23T12:12:12.000Z</time>
      </trkpt>
      <trkpt lat="46.008" lon="6.35377">
        <ele>1730.4000244141</ele>
        <time>2013-02-23T12:12:15.000Z</time>
      </trkpt>
      <trkpt lat="46.00796" lon="6.35383">
        <ele>1728</ele>
        <time>2013-02-23T12:12:17.000Z</time>
      </trkpt>
      <trkpt lat="46.00785" lon="6.35386">
        <ele>1723.5999755859</ele>
        <time>2013-02-23T12:12:21.000Z</time>
      </trkpt>
      <trkpt lat="46.00785" lon="6.35387">
        <ele>1722.8000488281</ele>
        <time>2013-02-23T12:12:25.000Z</time>
      </trkpt>
      <trkpt lat="46.0078" lon="6.35389">
        <ele>1721.1999511719</ele>
        <time>2013-02-23T12:12:27.000Z</time>
      </trkpt>
      <trkpt lat="46.0077" lon="6.35408">
        <ele>1719.4000244141</ele>
        <time>2013-02-23T12:12:31.000Z</time>
      </trkpt>
      <trkpt lat="46.0077" lon="6.35411">
        <ele>1718.4000244141</ele>
        <time>2013-02-23T12:12:34.000Z</time>
      </trkpt>
      <trkpt lat="46.0077" lon="6.3541">
        <ele>1718.8000488281</ele>
        <time>2013-02-23T12:12:49.000Z</time>
      </trkpt>
      <trkpt lat="46.00771" lon="6.3541">
        <ele>1719.8000488281</ele>
        <time>2013-02-23T12:13:11.000Z</time>
      </trkpt>
      <trkpt lat="46.00773" lon="6.35417">
        <ele>1718</ele>
        <time>2013-02-23T12:13:16.000Z</time>
      </trkpt>
      <trkpt lat="46.00777" lon="6.35418">
        <ele>1716.4000244141</ele>
        <time>2013-02-23T12:13:30.000Z</time>
      </trkpt>
      <trkpt lat="46.00779" lon="6.3542">
        <ele>1716</ele>
        <time>2013-02-23T12:13:39.000Z</time>
      </trkpt>
      <trkpt lat="46.00784" lon="6.35423">
        <ele>1713.5999755859</ele>
        <time>2013-02-23T12:13:43.000Z</time>
      </trkpt>
      <trkpt lat="46.00785" lon="6.35426">
        <ele>1712.1999511719</ele>
        <time>2013-02-23T12:13:45.000Z</time>
      </trkpt>
      <trkpt lat="46.00787" lon="6.35426">
        <ele>1711.5999755859</ele>
        <time>2013-02-23T12:13:48.000Z</time>
      </trkpt>
      <trkpt lat="46.00787" lon="6.35426">
        <ele>1712.1999511719</ele>
        <time>2013-02-23T12:13:53.000Z</time>
      </trkpt>
      <trkpt lat="46.00784" lon="6.35427">
        <ele>1712.1999511719</ele>
        <time>2013-02-23T12:14:19.000Z</time>
      </trkpt>
      <trkpt lat="46.00783" lon="6.35425">
        <ele>1713.1999511719</ele>
        <time>2013-02-23T12:14:25.000Z</time>
      </trkpt>
      <trkpt lat="46.00783" lon="6.35427">
        <ele>1711.5999755859</ele>
        <time>2013-02-23T12:14:44.000Z</time>
      </trkpt>
      <trkpt lat="46.00783" lon="6.35427">
        <ele>1712.1999511719</ele>
        <time>2013-02-23T12:14:58.000Z</time>
      </trkpt>
      <trkpt lat="46.00783" lon="6.35427">
        <ele>1712.5999755859</ele>
        <time>2013-02-23T12:15:12.000Z</time>
      </trkpt>
      <trkpt lat="46.00782" lon="6.35428">
        <ele>1713.1999511719</ele>
        <time>2013-02-23T12:15:18.000Z</time>
      </trkpt>
      <trkpt lat="46.00781" lon="6.3543">
        <ele>1713.1999511719</ele>
        <time>2013-02-23T12:15:25.000Z</time>
      </trkpt>
      <trkpt lat="46.00782" lon="6.35431">
        <ele>1712.5999755859</ele>
        <time>2013-02-23T12:15:26.000Z</time>
      </trkpt>
      <trkpt lat="46.00778" lon="6.35449">
        <ele>1709.8000488281</ele>
        <time>2013-02-23T12:15:30.000Z</time>
      </trkpt>
      <trkpt lat="46.00773" lon="6.35464">
        <ele>1708.4000244141</ele>
        <time>2013-02-23T12:15:33.000Z</time>
      </trkpt>
      <trkpt lat="46.00774" lon="6.35478">
        <ele>1705.4000244141</ele>
        <time>2013-02-23T12:15:36.000Z</time>
      </trkpt>
      <trkpt lat="46.00784" lon="6.3548">
        <ele>1701.5999755859</ele>
        <time>2013-02-23T12:15:39.000Z</time>
      </trkpt>
      <trkpt lat="46.00788" lon="6.35472">
        <ele>1701</ele>
        <time>2013-02-23T12:15:41.000Z</time>
      </trkpt>
      <trkpt lat="46.0079" lon="6.35469">
        <ele>1700.1999511719</ele>
        <time>2013-02-23T12:15:46.000Z</time>
      </trkpt>
      <trkpt lat="46.00791" lon="6.35471">
        <ele>1700.5999755859</ele>
        <time>2013-02-23T12:15:59.000Z</time>
      </trkpt>
      <trkpt lat="46.00802" lon="6.35487">
        <ele>1696.1999511719</ele>
        <time>2013-02-23T12:16:03.000Z</time>
      </trkpt>
      <trkpt lat="46.00805" lon="6.3549">
        <ele>1695.4000244141</ele>
        <time>2013-02-23T12:16:04.000Z</time>
      </trkpt>
      <trkpt lat="46.00814" lon="6.35491">
        <ele>1693.8000488281</ele>
        <time>2013-02-23T12:16:08.000Z</time>
      </trkpt>
      <trkpt lat="46.00818" lon="6.35491">
        <ele>1691.4000244141</ele>
        <time>2013-02-23T12:16:13.000Z</time>
      </trkpt>
      <trkpt lat="46.00818" lon="6.35489">
        <ele>1692</ele>
        <time>2013-02-23T12:16:17.000Z</time>
      </trkpt>
      <trkpt lat="46.00818" lon="6.35488">
        <ele>1691</ele>
        <time>2013-02-23T12:16:19.000Z</time>
      </trkpt>
      <trkpt lat="46.0082" lon="6.35483">
        <ele>1687.5999755859</ele>
        <time>2013-02-23T12:16:22.000Z</time>
      </trkpt>
      <trkpt lat="46.00819" lon="6.35479">
        <ele>1685.1999511719</ele>
        <time>2013-02-23T12:16:25.000Z</time>
      </trkpt>
      <trkpt lat="46.0082" lon="6.3548">
        <ele>1684.8000488281</ele>
        <time>2013-02-23T12:16:34.000Z</time>
      </trkpt>
      <trkpt lat="46.00819" lon="6.35481">
        <ele>1684.8000488281</ele>
        <time>2013-02-23T12:16:40.000Z</time>
      </trkpt>
      <trkpt lat="46.0082" lon="6.35479">
        <ele>1683.4000244141</ele>
        <time>2013-02-23T12:16:53.000Z</time>
      </trkpt>
      <trkpt lat="46.00821" lon="6.35478">
        <ele>1681.4000244141</ele>
        <time>2013-02-23T12:16:59.000Z</time>
      </trkpt>
      <trkpt lat="46.00822" lon="6.35476">
        <ele>1681</ele>
        <time>2013-02-23T12:17:01.000Z</time>
      </trkpt>
      <trkpt lat="46.00825" lon="6.35473">
        <ele>1680</ele>
        <time>2013-02-23T12:17:04.000Z</time>
      </trkpt>
      <trkpt lat="46.00826" lon="6.3547">
        <ele>1679</ele>
        <time>2013-02-23T12:17:11.000Z</time>
      </trkpt>
      <trkpt lat="46.00826" lon="6.35467">
        <ele>1679</ele>
        <time>2013-02-23T12:17:14.000Z</time>
      </trkpt>
      <trkpt lat="46.00826" lon="6.35469">
        <ele>1672.8000488281</ele>
        <time>2013-02-23T12:17:19.000Z</time>
      </trkpt>
      <trkpt lat="46.00826" lon="6.35469">
        <ele>1668.4000244141</ele>
        <time>2013-02-23T12:17:28.000Z</time>
      </trkpt>
      <trkpt lat="46.00827" lon="6.35471">
        <ele>1666.4000244141</ele>
        <time>2013-02-23T12:17:38.000Z</time>
      </trkpt>
      <trkpt lat="46.00827" lon="6.3547">
        <ele>1666</ele>
        <time>2013-02-23T12:17:44.000Z</time>
      </trkpt>
      <trkpt lat="46.00827" lon="6.35469">
        <ele>1666</ele>
        <time>2013-02-23T12:17:45.000Z</time>
      </trkpt>
      <trkpt lat="46.00834" lon="6.35464">
        <ele>1672.1999511719</ele>
        <time>2013-02-23T12:17:50.000Z</time>
      </trkpt>
      <trkpt lat="46.00836" lon="6.3546">
        <ele>1668</ele>
        <time>2013-02-23T12:17:52.000Z</time>
      </trkpt>
      <trkpt lat="46.0084" lon="6.35452">
        <ele>1663.5999755859</ele>
        <time>2013-02-23T12:17:55.000Z</time>
      </trkpt>
      <trkpt lat="46.00841" lon="6.35448">
        <ele>1659.1999511719</ele>
        <time>2013-02-23T12:17:57.000Z</time>
      </trkpt>
      <trkpt lat="46.00841" lon="6.35446">
        <ele>1658.8000488281</ele>
        <time>2013-02-23T12:18:00.000Z</time>
      </trkpt>
      <trkpt lat="46.00842" lon="6.35449">
        <ele>1657.8000488281</ele>
        <time>2013-02-23T12:18:03.000Z</time>
      </trkpt>
      <trkpt lat="46.00848" lon="6.35451">
        <ele>1655.4000244141</ele>
        <time>2013-02-23T12:18:07.000Z</time>
      </trkpt>
      <trkpt lat="46.0085" lon="6.35448">
        <ele>1665.5999755859</ele>
        <time>2013-02-23T12:18:17.000Z</time>
      </trkpt>
      <trkpt lat="46.00852" lon="6.35448">
        <ele>1662.5999755859</ele>
        <time>2013-02-23T12:18:21.000Z</time>
      </trkpt>
      <trkpt lat="46.00856" lon="6.35442">
        <ele>1658.8000488281</ele>
        <time>2013-02-23T12:18:25.000Z</time>
      </trkpt>
      <trkpt lat="46.00861" lon="6.35442">
        <ele>1654.4000244141</ele>
        <time>2013-02-23T12:18:28.000Z</time>
      </trkpt>
      <trkpt lat="46.00863" lon="6.35436">
        <ele>1648.1999511719</ele>
        <time>2013-02-23T12:18:31.000Z</time>
      </trkpt>
      <trkpt lat="46.00863" lon="6.35429">
        <ele>1642.4000244141</ele>
        <time>2013-02-23T12:18:33.000Z</time>
      </trkpt>
      <trkpt lat="46.00869" lon="6.35429">
        <ele>1638.1999511719</ele>
        <time>2013-02-23T12:18:35.000Z</time>
      </trkpt>
      <trkpt lat="46.0087" lon="6.3542">
        <ele>1631.4000244141</ele>
        <time>2013-02-23T12:18:37.000Z</time>
      </trkpt>
      <trkpt lat="46.00878" lon="6.35424">
        <ele>1628.5999755859</ele>
        <time>2013-02-23T12:18:39.000Z</time>
      </trkpt>
      <trkpt lat="46.00879" lon="6.35426">
        <ele>1627.5999755859</ele>
        <time>2013-02-23T12:18:40.000Z</time>
      </trkpt>
      <trkpt lat="46.00881" lon="6.35426">
        <ele>1624.1999511719</ele>
        <time>2013-02-23T12:18:47.000Z</time>
      </trkpt>
      <trkpt lat="46.00882" lon="6.35426">
        <ele>1624.1999511719</ele>
        <time>2013-02-23T12:18:51.000Z</time>
      </trkpt>
      <trkpt lat="46.00887" lon="6.35417">
        <ele>1620.8000488281</ele>
        <time>2013-02-23T12:18:55.000Z</time>
      </trkpt>
      <trkpt lat="46.00892" lon="6.35414">
        <ele>1618</ele>
        <time>2013-02-23T12:18:57.000Z</time>
      </trkpt>
      <trkpt lat="46.00895" lon="6.35407">
        <ele>1614.5999755859</ele>
        <time>2013-02-23T12:18:59.000Z</time>
      </trkpt>
      <trkpt lat="46.00899" lon="6.35395">
        <ele>1610.8000488281</ele>
        <time>2013-02-23T12:19:02.000Z</time>
      </trkpt>
      <trkpt lat="46.00898" lon="6.3539">
        <ele>1610.1999511719</ele>
        <time>2013-02-23T12:19:03.000Z</time>
      </trkpt>
      <trkpt lat="46.00896" lon="6.35385">
        <ele>1608.8000488281</ele>
        <time>2013-02-23T12:19:07.000Z</time>
      </trkpt>
      <trkpt lat="46.00896" lon="6.35386">
        <ele>1604</ele>
        <time>2013-02-23T12:19:27.000Z</time>
      </trkpt>
      <trkpt lat="46.00908" lon="6.35377">
        <ele>1599.5999755859</ele>
        <time>2013-02-23T12:19:31.000Z</time>
      </trkpt>
      <trkpt lat="46.00916" lon="6.35372">
        <ele>1594.4000244141</ele>
        <time>2013-02-23T12:19:33.000Z</time>
      </trkpt>
      <trkpt lat="46.00925" lon="6.35362">
        <ele>1589</ele>
        <time>2013-02-23T12:19:35.000Z</time>
      </trkpt>
      <trkpt lat="46.00935" lon="6.35353">
        <ele>1582.8000488281</ele>
        <time>2013-02-23T12:19:37.000Z</time>
      </trkpt>
      <trkpt lat="46.00947" lon="6.35341">
        <ele>1577</ele>
        <time>2013-02-23T12:19:39.000Z</time>
      </trkpt>
      <trkpt lat="46.00954" lon="6.35327">
        <ele>1569.4000244141</ele>
        <time>2013-02-23T12:19:41.000Z</time>
      </trkpt>
      <trkpt lat="46.00965" lon="6.3531">
        <ele>1562.5999755859</ele>
        <time>2013-02-23T12:19:43.000Z</time>
      </trkpt>
      <trkpt lat="46.0097" lon="6.353">
        <ele>1559.1999511719</ele>
        <time>2013-02-23T12:19:44.000Z</time>
      </trkpt>
      <trkpt lat="46.00994" lon="6.35252">
        <ele>1544.4000244141</ele>
        <time>2013-02-23T12:19:49.000Z</time>
      </trkpt>
      <trkpt lat="46.01011" lon="6.35225">
        <ele>1539.5999755859</ele>
        <time>2013-02-23T12:19:52.000Z</time>
      </trkpt>
      <trkpt lat="46.01018" lon="6.35219">
        <ele>1538.1999511719</ele>
        <time>2013-02-23T12:19:53.000Z</time>
      </trkpt>
      <trkpt lat="46.01047" lon="6.35195">
        <ele>1530.4000244141</ele>
        <time>2013-02-23T12:19:58.000Z</time>
      </trkpt>
      <trkpt lat="46.0108" lon="6.35157">
        <ele>1525.1999511719</ele>
        <time>2013-02-23T12:20:04.000Z</time>
      </trkpt>
      <trkpt lat="46.01091" lon="6.35144">
        <ele>1525.1999511719</ele>
        <time>2013-02-23T12:20:07.000Z</time>
      </trkpt>
      <trkpt lat="46.01096" lon="6.3514">
        <ele>1526.1999511719</ele>
        <time>2013-02-23T12:20:11.000Z</time>
      </trkpt>
      <trkpt lat="46.01095" lon="6.3514">
        <ele>1527.5999755859</ele>
        <time>2013-02-23T12:21:13.000Z</time>
      </trkpt>
      <trkpt lat="46.01095" lon="6.35139">
        <ele>1530.4000244141</ele>
        <time>2013-02-23T12:21:59.000Z</time>
      </trkpt>
      <trkpt lat="46.01095" lon="6.35141">
        <ele>1530</ele>
        <time>2013-02-23T12:22:13.000Z</time>
      </trkpt>
      <trkpt lat="46.01094" lon="6.35141">
        <ele>1531</ele>
        <time>2013-02-23T12:22:25.000Z</time>
      </trkpt>
      <trkpt lat="46.01095" lon="6.35141">
        <ele>1531.4000244141</ele>
        <time>2013-02-23T12:23:07.000Z</time>
      </trkpt>
      <trkpt lat="46.01092" lon="6.35137">
        <ele>1533.4000244141</ele>
        <time>2013-02-23T12:23:36.000Z</time>
      </trkpt>
      <trkpt lat="46.01091" lon="6.35135">
        <ele>1533.4000244141</ele>
        <time>2013-02-23T12:23:43.000Z</time>
      </trkpt>
      <trkpt lat="46.01093" lon="6.35138">
        <ele>1535.1999511719</ele>
        <time>2013-02-23T12:23:55.000Z</time>
      </trkpt>
      <trkpt lat="46.01093" lon="6.35139">
        <ele>1534.8000488281</ele>
        <time>2013-02-23T12:24:01.000Z</time>
      </trkpt>
      <trkpt lat="46.01093" lon="6.35139">
        <ele>1534.4000244141</ele>
        <time>2013-02-23T12:24:11.000Z</time>
      </trkpt>
      <trkpt lat="46.01093" lon="6.35138">
        <ele>1532.4000244141</ele>
        <time>2013-02-23T12:24:33.000Z</time>
      </trkpt>
      <trkpt lat="46.01093" lon="6.35138">
        <ele>1529.4000244141</ele>
        <time>2013-02-23T12:24:42.000Z</time>
      </trkpt>
      <trkpt lat="46.01093" lon="6.35139">
        <ele>1526.5999755859</ele>
        <time>2013-02-23T12:24:55.000Z</time>
      </trkpt>
      <trkpt lat="46.01094" lon="6.3514">
        <ele>1527.5999755859</ele>
        <time>2013-02-23T12:25:05.000Z</time>
      </trkpt>
      <trkpt lat="46.01094" lon="6.3514">
        <ele>1528</ele>
        <time>2013-02-23T12:25:15.000Z</time>
      </trkpt>
      <trkpt lat="46.01094" lon="6.3514">
        <ele>1530</ele>
        <time>2013-02-23T12:25:26.000Z</time>
      </trkpt>
      <trkpt lat="46.01094" lon="6.35141">
        <ele>1529</ele>
        <time>2013-02-23T12:25:33.000Z</time>
      </trkpt>
      <trkpt lat="46.01094" lon="6.35141">
        <ele>1531</ele>
        <time>2013-02-23T12:25:54.000Z</time>
      </trkpt>
      <trkpt lat="46.01094" lon="6.35142">
        <ele>1531.4000244141</ele>
        <time>2013-02-23T12:26:09.000Z</time>
      </trkpt>
      <trkpt lat="46.01094" lon="6.35142">
        <ele>1531</ele>
        <time>2013-02-23T12:26:18.000Z</time>
      </trkpt>
      <trkpt lat="46.01094" lon="6.35141">
        <ele>1530.4000244141</ele>
        <time>2013-02-23T12:26:25.000Z</time>
      </trkpt>
      <trkpt lat="46.01094" lon="6.35142">
        <ele>1529.4000244141</ele>
        <time>2013-02-23T12:26:31.000Z</time>
      </trkpt>
      <trkpt lat="46.01094" lon="6.35141">
        <ele>1525.5999755859</ele>
        <time>2013-02-23T12:26:52.000Z</time>
      </trkpt>
      <trkpt lat="46.01094" lon="6.35141">
        <ele>1525.1999511719</ele>
        <time>2013-02-23T12:27:02.000Z</time>
      </trkpt>
      <trkpt lat="46.01094" lon="6.35142">
        <ele>1525.1999511719</ele>
        <time>2013-02-23T12:27:14.000Z</time>
      </trkpt>
      <trkpt lat="46.01094" lon="6.35142">
        <ele>1527</ele>
        <time>2013-02-23T12:27:23.000Z</time>
      </trkpt>
      <trkpt lat="46.01096" lon="6.35142">
        <ele>1527</ele>
        <time>2013-02-23T12:27:34.000Z</time>
      </trkpt>
      <trkpt lat="46.01095" lon="6.3514">
        <ele>1528.5999755859</ele>
        <time>2013-02-23T12:27:49.000Z</time>
      </trkpt>
      <trkpt lat="46.01096" lon="6.35139">
        <ele>1530.4000244141</ele>
        <time>2013-02-23T12:28:10.000Z</time>
      </trkpt>
      <trkpt lat="46.01096" lon="6.3514">
        <ele>1530.4000244141</ele>
        <time>2013-02-23T12:28:20.000Z</time>
      </trkpt>
      <trkpt lat="46.01096" lon="6.35141">
        <ele>1529</ele>
        <time>2013-02-23T12:28:30.000Z</time>
      </trkpt>
      <trkpt lat="46.01095" lon="6.35139">
        <ele>1527.5999755859</ele>
        <time>2013-02-23T12:28:36.000Z</time>
      </trkpt>
      <trkpt lat="46.01094" lon="6.35139">
        <ele>1524.1999511719</ele>
        <time>2013-02-23T12:28:46.000Z</time>
      </trkpt>
      <trkpt lat="46.01094" lon="6.35137">
        <ele>1524.1999511719</ele>
        <time>2013-02-23T12:28:54.000Z</time>
      </trkpt>
      <trkpt lat="46.01094" lon="6.35138">
        <ele>1524.1999511719</ele>
        <time>2013-02-23T12:29:06.000Z</time>
      </trkpt>
      <trkpt lat="46.01094" lon="6.35138">
        <ele>1524.1999511719</ele>
        <time>2013-02-23T12:29:13.000Z</time>
      </trkpt>
      <trkpt lat="46.01095" lon="6.35138">
        <ele>1524.5999755859</ele>
        <time>2013-02-23T12:29:19.000Z</time>
      </trkpt>
      <trkpt lat="46.01095" lon="6.35138">
        <ele>1525.5999755859</ele>
        <time>2013-02-23T12:29:35.000Z</time>
      </trkpt>
      <trkpt lat="46.01099" lon="6.35133">
        <ele>1526.1999511719</ele>
        <time>2013-02-23T12:29:41.000Z</time>
      </trkpt>
      <trkpt lat="46.01103" lon="6.35126">
        <ele>1526.1999511719</ele>
        <time>2013-02-23T12:29:47.000Z</time>
      </trkpt>
      <trkpt lat="46.01106" lon="6.35121">
        <ele>1525.1999511719</ele>
        <time>2013-02-23T12:29:52.000Z</time>
      </trkpt>
      <trkpt lat="46.01107" lon="6.35117">
        <ele>1523.8000488281</ele>
        <time>2013-02-23T12:29:54.000Z</time>
      </trkpt>
      <trkpt lat="46.01112" lon="6.3511">
        <ele>1521.8000488281</ele>
        <time>2013-02-23T12:30:00.000Z</time>
      </trkpt>
      <trkpt lat="46.01113" lon="6.35108">
        <ele>1522.8000488281</ele>
        <time>2013-02-23T12:30:03.000Z</time>
      </trkpt>
      <trkpt lat="46.01115" lon="6.35103">
        <ele>1522.1999511719</ele>
        <time>2013-02-23T12:30:09.000Z</time>
      </trkpt>
      <trkpt lat="46.01117" lon="6.351">
        <ele>1522.8000488281</ele>
        <time>2013-02-23T12:30:15.000Z</time>
      </trkpt>
      <trkpt lat="46.01117" lon="6.35099">
        <ele>1524.1999511719</ele>
        <time>2013-02-23T12:30:19.000Z</time>
      </trkpt>
      <trkpt lat="46.0112" lon="6.35097">
        <ele>1526.1999511719</ele>
        <time>2013-02-23T12:30:24.000Z</time>
      </trkpt>
      <trkpt lat="46.01122" lon="6.35093">
        <ele>1527</ele>
        <time>2013-02-23T12:30:29.000Z</time>
      </trkpt>
      <trkpt lat="46.01124" lon="6.3509">
        <ele>1529.4000244141</ele>
        <time>2013-02-23T12:30:34.000Z</time>
      </trkpt>
      <trkpt lat="46.01127" lon="6.35085">
        <ele>1531.8000488281</ele>
        <time>2013-02-23T12:30:40.000Z</time>
      </trkpt>
      <trkpt lat="46.01132" lon="6.3508">
        <ele>1532.8000488281</ele>
        <time>2013-02-23T12:30:47.000Z</time>
      </trkpt>
      <trkpt lat="46.01135" lon="6.35074">
        <ele>1534.4000244141</ele>
        <time>2013-02-23T12:30:53.000Z</time>
      </trkpt>
      <trkpt lat="46.01137" lon="6.35066">
        <ele>1535.8000488281</ele>
        <time>2013-02-23T12:31:01.000Z</time>
      </trkpt>
      <trkpt lat="46.01138" lon="6.3506">
        <ele>1536.1999511719</ele>
        <time>2013-02-23T12:31:06.000Z</time>
      </trkpt>
      <trkpt lat="46.01138" lon="6.35056">
        <ele>1536.8000488281</ele>
        <time>2013-02-23T12:31:12.000Z</time>
      </trkpt>
      <trkpt lat="46.01137" lon="6.35055">
        <ele>1539.5999755859</ele>
        <time>2013-02-23T12:31:18.000Z</time>
      </trkpt>
      <trkpt lat="46.01136" lon="6.35054">
        <ele>1540.5999755859</ele>
        <time>2013-02-23T12:31:24.000Z</time>
      </trkpt>
      <trkpt lat="46.01133" lon="6.35053">
        <ele>1542</ele>
        <time>2013-02-23T12:31:30.000Z</time>
      </trkpt>
      <trkpt lat="46.0113" lon="6.35052">
        <ele>1544</ele>
        <time>2013-02-23T12:31:36.000Z</time>
      </trkpt>
      <trkpt lat="46.01127" lon="6.3505">
        <ele>1544.8000488281</ele>
        <time>2013-02-23T12:31:41.000Z</time>
      </trkpt>
      <trkpt lat="46.01123" lon="6.3505">
        <ele>1546.4000244141</ele>
        <time>2013-02-23T12:31:47.000Z</time>
      </trkpt>
      <trkpt lat="46.0112" lon="6.35049">
        <ele>1548.1999511719</ele>
        <time>2013-02-23T12:31:52.000Z</time>
      </trkpt>
      <trkpt lat="46.01118" lon="6.35049">
        <ele>1549.5999755859</ele>
        <time>2013-02-23T12:31:56.000Z</time>
      </trkpt>
      <trkpt lat="46.01116" lon="6.35049">
        <ele>1551.1999511719</ele>
        <time>2013-02-23T12:32:00.000Z</time>
      </trkpt>
      <trkpt lat="46.01114" lon="6.35048">
        <ele>1552</ele>
        <time>2013-02-23T12:32:07.000Z</time>
      </trkpt>
      <trkpt lat="46.01111" lon="6.35046">
        <ele>1552.5999755859</ele>
        <time>2013-02-23T12:32:13.000Z</time>
      </trkpt>
      <trkpt lat="46.01108" lon="6.35043">
        <ele>1554.4000244141</ele>
        <time>2013-02-23T12:32:18.000Z</time>
      </trkpt>
      <trkpt lat="46.01108" lon="6.35038">
        <ele>1555.4000244141</ele>
        <time>2013-02-23T12:32:23.000Z</time>
      </trkpt>
      <trkpt lat="46.01109" lon="6.35032">
        <ele>1555</ele>
        <time>2013-02-23T12:32:29.000Z</time>
      </trkpt>
      <trkpt lat="46.0111" lon="6.35027">
        <ele>1555</ele>
        <time>2013-02-23T12:32:34.000Z</time>
      </trkpt>
      <trkpt lat="46.0111" lon="6.35018">
        <ele>1554.4000244141</ele>
        <time>2013-02-23T12:32:41.000Z</time>
      </trkpt>
      <trkpt lat="46.0111" lon="6.35013">
        <ele>1554.4000244141</ele>
        <time>2013-02-23T12:32:46.000Z</time>
      </trkpt>
      <trkpt lat="46.01111" lon="6.35004">
        <ele>1555</ele>
        <time>2013-02-23T12:32:54.000Z</time>
      </trkpt>
      <trkpt lat="46.01111" lon="6.34998">
        <ele>1555.4000244141</ele>
        <time>2013-02-23T12:33:00.000Z</time>
      </trkpt>
      <trkpt lat="46.01112" lon="6.34992">
        <ele>1555.4000244141</ele>
        <time>2013-02-23T12:33:05.000Z</time>
      </trkpt>
      <trkpt lat="46.01113" lon="6.34985">
        <ele>1556</ele>
        <time>2013-02-23T12:33:11.000Z</time>
      </trkpt>
      <trkpt lat="46.01114" lon="6.34981">
        <ele>1556</ele>
        <time>2013-02-23T12:33:15.000Z</time>
      </trkpt>
      <trkpt lat="46.01116" lon="6.34975">
        <ele>1555.4000244141</ele>
        <time>2013-02-23T12:33:20.000Z</time>
      </trkpt>
      <trkpt lat="46.01119" lon="6.34974">
        <ele>1558.8000488281</ele>
        <time>2013-02-23T12:33:24.000Z</time>
      </trkpt>
      <trkpt lat="46.01123" lon="6.34972">
        <ele>1561.1999511719</ele>
        <time>2013-02-23T12:33:30.000Z</time>
      </trkpt>
      <trkpt lat="46.01126" lon="6.34972">
        <ele>1561.1999511719</ele>
        <time>2013-02-23T12:33:34.000Z</time>
      </trkpt>
      <trkpt lat="46.01129" lon="6.34972">
        <ele>1562.5999755859</ele>
        <time>2013-02-23T12:33:40.000Z</time>
      </trkpt>
      <trkpt lat="46.01131" lon="6.34973">
        <ele>1563.5999755859</ele>
        <time>2013-02-23T12:33:45.000Z</time>
      </trkpt>
      <trkpt lat="46.01132" lon="6.34974">
        <ele>1565.5999755859</ele>
        <time>2013-02-23T12:33:52.000Z</time>
      </trkpt>
      <trkpt lat="46.01132" lon="6.3497">
        <ele>1565.5999755859</ele>
        <time>2013-02-23T12:33:59.000Z</time>
      </trkpt>
      <trkpt lat="46.01131" lon="6.34964">
        <ele>1566</ele>
        <time>2013-02-23T12:34:05.000Z</time>
      </trkpt>
      <trkpt lat="46.01133" lon="6.34958">
        <ele>1566</ele>
        <time>2013-02-23T12:34:11.000Z</time>
      </trkpt>
      <trkpt lat="46.01134" lon="6.34955">
        <ele>1565.5999755859</ele>
        <time>2013-02-23T12:34:18.000Z</time>
      </trkpt>
      <trkpt lat="46.01136" lon="6.3495">
        <ele>1566.5999755859</ele>
        <time>2013-02-23T12:34:24.000Z</time>
      </trkpt>
      <trkpt lat="46.01138" lon="6.34946">
        <ele>1567</ele>
        <time>2013-02-23T12:34:31.000Z</time>
      </trkpt>
      <trkpt lat="46.0114" lon="6.34942">
        <ele>1568</ele>
        <time>2013-02-23T12:34:35.000Z</time>
      </trkpt>
      <trkpt lat="46.01142" lon="6.34939">
        <ele>1569</ele>
        <time>2013-02-23T12:34:39.000Z</time>
      </trkpt>
      <trkpt lat="46.01144" lon="6.34937">
        <ele>1570.4000244141</ele>
        <time>2013-02-23T12:34:43.000Z</time>
      </trkpt>
      <trkpt lat="46.01146" lon="6.34935">
        <ele>1570.4000244141</ele>
        <time>2013-02-23T12:34:47.000Z</time>
      </trkpt>
      <trkpt lat="46.01148" lon="6.34933">
        <ele>1571.8000488281</ele>
        <time>2013-02-23T12:34:53.000Z</time>
      </trkpt>
      <trkpt lat="46.01149" lon="6.34933">
        <ele>1572.8000488281</ele>
        <time>2013-02-23T12:34:58.000Z</time>
      </trkpt>
      <trkpt lat="46.01152" lon="6.34929">
        <ele>1574.1999511719</ele>
        <time>2013-02-23T12:35:03.000Z</time>
      </trkpt>
      <trkpt lat="46.01154" lon="6.34924">
        <ele>1575.5999755859</ele>
        <time>2013-02-23T12:35:10.000Z</time>
      </trkpt>
      <trkpt lat="46.01157" lon="6.34917">
        <ele>1577</ele>
        <time>2013-02-23T12:35:16.000Z</time>
      </trkpt>
      <trkpt lat="46.0116" lon="6.34912">
        <ele>1579</ele>
        <time>2013-02-23T12:35:21.000Z</time>
      </trkpt>
      <trkpt lat="46.01163" lon="6.34908">
        <ele>1578.5999755859</ele>
        <time>2013-02-23T12:35:25.000Z</time>
      </trkpt>
      <trkpt lat="46.01165" lon="6.34908">
        <ele>1580.4000244141</ele>
        <time>2013-02-23T12:35:29.000Z</time>
      </trkpt>
      <trkpt lat="46.01169" lon="6.34906">
        <ele>1582.8000488281</ele>
        <time>2013-02-23T12:35:35.000Z</time>
      </trkpt>
      <trkpt lat="46.0117" lon="6.34903">
        <ele>1583.8000488281</ele>
        <time>2013-02-23T12:35:39.000Z</time>
      </trkpt>
      <trkpt lat="46.01168" lon="6.349">
        <ele>1584.1999511719</ele>
        <time>2013-02-23T12:35:45.000Z</time>
      </trkpt>
      <trkpt lat="46.01165" lon="6.34899">
        <ele>1584.1999511719</ele>
        <time>2013-02-23T12:35:50.000Z</time>
      </trkpt>
      <trkpt lat="46.01164" lon="6.34891">
        <ele>1584.8000488281</ele>
        <time>2013-02-23T12:35:56.000Z</time>
      </trkpt>
      <trkpt lat="46.01166" lon="6.34886">
        <ele>1585.8000488281</ele>
        <time>2013-02-23T12:36:02.000Z</time>
      </trkpt>
      <trkpt lat="46.01168" lon="6.34879">
        <ele>1585.8000488281</ele>
        <time>2013-02-23T12:36:07.000Z</time>
      </trkpt>
      <trkpt lat="46.01168" lon="6.34872">
        <ele>1586.1999511719</ele>
        <time>2013-02-23T12:36:11.000Z</time>
      </trkpt>
      <trkpt lat="46.01169" lon="6.34871">
        <ele>1586.1999511719</ele>
        <time>2013-02-23T12:36:12.000Z</time>
      </trkpt>
      <trkpt lat="46.0117" lon="6.34864">
        <ele>1587.5999755859</ele>
        <time>2013-02-23T12:36:16.000Z</time>
      </trkpt>
      <trkpt lat="46.01171" lon="6.34853">
        <ele>1588.1999511719</ele>
        <time>2013-02-23T12:36:23.000Z</time>
      </trkpt>
      <trkpt lat="46.01172" lon="6.3485">
        <ele>1587.5999755859</ele>
        <time>2013-02-23T12:36:29.000Z</time>
      </trkpt>
      <trkpt lat="46.01173" lon="6.34847">
        <ele>1587.1999511719</ele>
        <time>2013-02-23T12:36:36.000Z</time>
      </trkpt>
      <trkpt lat="46.01173" lon="6.34847">
        <ele>1586.5999755859</ele>
        <time>2013-02-23T12:36:44.000Z</time>
      </trkpt>
      <trkpt lat="46.01174" lon="6.34846">
        <ele>1585.8000488281</ele>
        <time>2013-02-23T12:36:51.000Z</time>
      </trkpt>
      <trkpt lat="46.01173" lon="6.34846">
        <ele>1585.1999511719</ele>
        <time>2013-02-23T12:37:01.000Z</time>
      </trkpt>
      <trkpt lat="46.01174" lon="6.34847">
        <ele>1585.1999511719</ele>
        <time>2013-02-23T12:37:09.000Z</time>
      </trkpt>
      <trkpt lat="46.01174" lon="6.34847">
        <ele>1583.4000244141</ele>
        <time>2013-02-23T12:37:19.000Z</time>
      </trkpt>
      <trkpt lat="46.01174" lon="6.34847">
        <ele>1582.8000488281</ele>
        <time>2013-02-23T12:37:27.000Z</time>
      </trkpt>
      <trkpt lat="46.01173" lon="6.34847">
        <ele>1583.8000488281</ele>
        <time>2013-02-23T12:37:35.000Z</time>
      </trkpt>
      <trkpt lat="46.01173" lon="6.34847">
        <ele>1583.8000488281</ele>
        <time>2013-02-23T12:37:42.000Z</time>
      </trkpt>
      <trkpt lat="46.01173" lon="6.34848">
        <ele>1584.1999511719</ele>
        <time>2013-02-23T12:37:50.000Z</time>
      </trkpt>
      <trkpt lat="46.01174" lon="6.34847">
        <ele>1582.8000488281</ele>
        <time>2013-02-23T12:37:59.000Z</time>
      </trkpt>
      <trkpt lat="46.01174" lon="6.34847">
        <ele>1582.8000488281</ele>
        <time>2013-02-23T12:38:06.000Z</time>
      </trkpt>
      <trkpt lat="46.01174" lon="6.34846">
        <ele>1583.4000244141</ele>
        <time>2013-02-23T12:38:15.000Z</time>
      </trkpt>
      <trkpt lat="46.01174" lon="6.34846">
        <ele>1582.8000488281</ele>
        <time>2013-02-23T12:38:19.000Z</time>
      </trkpt>
      <trkpt lat="46.01174" lon="6.34846">
        <ele>1583.4000244141</ele>
        <time>2013-02-23T12:38:29.000Z</time>
      </trkpt>
      <trkpt lat="46.01173" lon="6.34847">
        <ele>1582.8000488281</ele>
        <time>2013-02-23T12:38:39.000Z</time>
      </trkpt>
      <trkpt lat="46.01173" lon="6.34847">
        <ele>1582.8000488281</ele>
        <time>2013-02-23T12:38:47.000Z</time>
      </trkpt>
      <trkpt lat="46.01173" lon="6.34847">
        <ele>1581.8000488281</ele>
        <time>2013-02-23T12:39:00.000Z</time>
      </trkpt>
      <trkpt lat="46.01172" lon="6.34847">
        <ele>1582.4000244141</ele>
        <time>2013-02-23T12:39:06.000Z</time>
      </trkpt>
      <trkpt lat="46.01172" lon="6.34846">
        <ele>1582.4000244141</ele>
        <time>2013-02-23T12:39:12.000Z</time>
      </trkpt>
      <trkpt lat="46.01172" lon="6.34847">
        <ele>1585.1999511719</ele>
        <time>2013-02-23T12:39:33.000Z</time>
      </trkpt>
      <trkpt lat="46.01171" lon="6.34847">
        <ele>1585.8000488281</ele>
        <time>2013-02-23T12:39:44.000Z</time>
      </trkpt>
      <trkpt lat="46.01171" lon="6.34849">
        <ele>1587.1999511719</ele>
        <time>2013-02-23T12:40:18.000Z</time>
      </trkpt>
      <trkpt lat="46.01172" lon="6.34847">
        <ele>1587.1999511719</ele>
        <time>2013-02-23T12:40:27.000Z</time>
      </trkpt>
      <trkpt lat="46.01173" lon="6.34847">
        <ele>1587.1999511719</ele>
        <time>2013-02-23T12:40:44.000Z</time>
      </trkpt>
      <trkpt lat="46.01174" lon="6.34847">
        <ele>1586.5999755859</ele>
        <time>2013-02-23T12:40:53.000Z</time>
      </trkpt>
      <trkpt lat="46.01174" lon="6.34847">
        <ele>1586.5999755859</ele>
        <time>2013-02-23T12:41:09.000Z</time>
      </trkpt>
      <trkpt lat="46.01174" lon="6.34847">
        <ele>1586.1999511719</ele>
        <time>2013-02-23T12:41:15.000Z</time>
      </trkpt>
      <trkpt lat="46.01174" lon="6.34843">
        <ele>1586.1999511719</ele>
        <time>2013-02-23T12:41:22.000Z</time>
      </trkpt>
      <trkpt lat="46.01177" lon="6.34835">
        <ele>1585.1999511719</ele>
        <time>2013-02-23T12:41:28.000Z</time>
      </trkpt>
      <trkpt lat="46.01178" lon="6.34832">
        <ele>1585.1999511719</ele>
        <time>2013-02-23T12:41:30.000Z</time>
      </trkpt>
      <trkpt lat="46.01176" lon="6.34827">
        <ele>1585.1999511719</ele>
        <time>2013-02-23T12:41:35.000Z</time>
      </trkpt>
      <trkpt lat="46.01175" lon="6.34825">
        <ele>1584.8000488281</ele>
        <time>2013-02-23T12:41:41.000Z</time>
      </trkpt>
      <trkpt lat="46.01175" lon="6.34828">
        <ele>1584.8000488281</ele>
        <time>2013-02-23T12:42:06.000Z</time>
      </trkpt>
      <trkpt lat="46.01174" lon="6.34827">
        <ele>1585.8000488281</ele>
        <time>2013-02-23T12:42:25.000Z</time>
      </trkpt>
      <trkpt lat="46.01173" lon="6.34824">
        <ele>1587.1999511719</ele>
        <time>2013-02-23T12:42:36.000Z</time>
      </trkpt>
      <trkpt lat="46.01173" lon="6.34823">
        <ele>1587.1999511719</ele>
        <time>2013-02-23T12:42:37.000Z</time>
      </trkpt>
      <trkpt lat="46.0117" lon="6.34803">
        <ele>1586.1999511719</ele>
        <time>2013-02-23T12:42:44.000Z</time>
      </trkpt>
      <trkpt lat="46.01165" lon="6.34787">
        <ele>1584.8000488281</ele>
        <time>2013-02-23T12:42:50.000Z</time>
      </trkpt>
      <trkpt lat="46.01161" lon="6.34768">
        <ele>1582.4000244141</ele>
        <time>2013-02-23T12:42:54.000Z</time>
      </trkpt>
      <trkpt lat="46.0116" lon="6.34753">
        <ele>1581</ele>
        <time>2013-02-23T12:42:57.000Z</time>
      </trkpt>
      <trkpt lat="46.01147" lon="6.34742">
        <ele>1577</ele>
        <time>2013-02-23T12:43:01.000Z</time>
      </trkpt>
      <trkpt lat="46.01141" lon="6.34714">
        <ele>1571.8000488281</ele>
        <time>2013-02-23T12:43:05.000Z</time>
      </trkpt>
      <trkpt lat="46.01137" lon="6.34691">
        <ele>1567.4000244141</ele>
        <time>2013-02-23T12:43:08.000Z</time>
      </trkpt>
      <trkpt lat="46.01132" lon="6.34667">
        <ele>1561.1999511719</ele>
        <time>2013-02-23T12:43:13.000Z</time>
      </trkpt>
      <trkpt lat="46.01128" lon="6.34646">
        <ele>1556</ele>
        <time>2013-02-23T12:43:17.000Z</time>
      </trkpt>
      <trkpt lat="46.01125" lon="6.34638">
        <ele>1554.4000244141</ele>
        <time>2013-02-23T12:43:19.000Z</time>
      </trkpt>
      <trkpt lat="46.01123" lon="6.3464">
        <ele>1555</ele>
        <time>2013-02-23T12:43:27.000Z</time>
      </trkpt>
      <trkpt lat="46.01123" lon="6.3464">
        <ele>1556.4000244141</ele>
        <time>2013-02-23T12:43:35.000Z</time>
      </trkpt>
      <trkpt lat="46.01123" lon="6.3464">
        <ele>1556.8000488281</ele>
        <time>2013-02-23T12:43:40.000Z</time>
      </trkpt>
      <trkpt lat="46.01118" lon="6.34645">
        <ele>1556</ele>
        <time>2013-02-23T12:43:44.000Z</time>
      </trkpt>
      <trkpt lat="46.01117" lon="6.34645">
        <ele>1556.8000488281</ele>
        <time>2013-02-23T12:43:47.000Z</time>
      </trkpt>
      <trkpt lat="46.01117" lon="6.34645">
        <ele>1556</ele>
        <time>2013-02-23T12:43:52.000Z</time>
      </trkpt>
      <trkpt lat="46.01108" lon="6.34642">
        <ele>1553</ele>
        <time>2013-02-23T12:43:56.000Z</time>
      </trkpt>
      <trkpt lat="46.01103" lon="6.34637">
        <ele>1551.1999511719</ele>
        <time>2013-02-23T12:43:59.000Z</time>
      </trkpt>
      <trkpt lat="46.01099" lon="6.34623">
        <ele>1548.1999511719</ele>
        <time>2013-02-23T12:44:02.000Z</time>
      </trkpt>
      <trkpt lat="46.01096" lon="6.34605">
        <ele>1544</ele>
        <time>2013-02-23T12:44:06.000Z</time>
      </trkpt>
      <trkpt lat="46.01098" lon="6.3459">
        <ele>1541</ele>
        <time>2013-02-23T12:44:09.000Z</time>
      </trkpt>
      <trkpt lat="46.01099" lon="6.34573">
        <ele>1539.1999511719</ele>
        <time>2013-02-23T12:44:14.000Z</time>
      </trkpt>
      <trkpt lat="46.01099" lon="6.34547">
        <ele>1534.8000488281</ele>
        <time>2013-02-23T12:44:18.000Z</time>
      </trkpt>
      <trkpt lat="46.01097" lon="6.34544">
        <ele>1533.8000488281</ele>
        <time>2013-02-23T12:44:23.000Z</time>
      </trkpt>
      <trkpt lat="46.01092" lon="6.34538">
        <ele>1531.4000244141</ele>
        <time>2013-02-23T12:44:36.000Z</time>
      </trkpt>
      <trkpt lat="46.01091" lon="6.34493">
        <ele>1525.5999755859</ele>
        <time>2013-02-23T12:44:42.000Z</time>
      </trkpt>
      <trkpt lat="46.01092" lon="6.34472">
        <ele>1523.8000488281</ele>
        <time>2013-02-23T12:44:46.000Z</time>
      </trkpt>
      <trkpt lat="46.01092" lon="6.34468">
        <ele>1523.1999511719</ele>
        <time>2013-02-23T12:44:47.000Z</time>
      </trkpt>
      <trkpt lat="46.01094" lon="6.34462">
        <ele>1521.8000488281</ele>
        <time>2013-02-23T12:44:49.000Z</time>
      </trkpt>
      <trkpt lat="46.0109" lon="6.34458">
        <ele>1518.4000244141</ele>
        <time>2013-02-23T12:44:52.000Z</time>
      </trkpt>
      <trkpt lat="46.01082" lon="6.34453">
        <ele>1515.5999755859</ele>
        <time>2013-02-23T12:44:55.000Z</time>
      </trkpt>
      <trkpt lat="46.01076" lon="6.34445">
        <ele>1512.1999511719</ele>
        <time>2013-02-23T12:44:58.000Z</time>
      </trkpt>
      <trkpt lat="46.01071" lon="6.34439">
        <ele>1509.8000488281</ele>
        <time>2013-02-23T12:45:00.000Z</time>
      </trkpt>
      <trkpt lat="46.01071" lon="6.34438">
        <ele>1508.4000244141</ele>
        <time>2013-02-23T12:45:03.000Z</time>
      </trkpt>
      <trkpt lat="46.01072" lon="6.34438">
        <ele>1506</ele>
        <time>2013-02-23T12:45:08.000Z</time>
      </trkpt>
      <trkpt lat="46.01072" lon="6.34437">
        <ele>1505.4000244141</ele>
        <time>2013-02-23T12:45:09.000Z</time>
      </trkpt>
      <trkpt lat="46.0107" lon="6.34422">
        <ele>1502.5999755859</ele>
        <time>2013-02-23T12:45:13.000Z</time>
      </trkpt>
      <trkpt lat="46.01073" lon="6.34409">
        <ele>1500.5999755859</ele>
        <time>2013-02-23T12:45:16.000Z</time>
      </trkpt>
      <trkpt lat="46.01075" lon="6.34409">
        <ele>1501.1999511719</ele>
        <time>2013-02-23T12:45:20.000Z</time>
      </trkpt>
      <trkpt lat="46.01075" lon="6.34408">
        <ele>1501.1999511719</ele>
        <time>2013-02-23T12:45:24.000Z</time>
      </trkpt>
      <trkpt lat="46.01076" lon="6.34391">
        <ele>1499.5999755859</ele>
        <time>2013-02-23T12:45:27.000Z</time>
      </trkpt>
      <trkpt lat="46.01088" lon="6.34382">
        <ele>1497.8000488281</ele>
        <time>2013-02-23T12:45:30.000Z</time>
      </trkpt>
      <trkpt lat="46.01098" lon="6.34376">
        <ele>1495.8000488281</ele>
        <time>2013-02-23T12:45:32.000Z</time>
      </trkpt>
      <trkpt lat="46.01112" lon="6.34358">
        <ele>1492</ele>
        <time>2013-02-23T12:45:36.000Z</time>
      </trkpt>
      <trkpt lat="46.01122" lon="6.34336">
        <ele>1488.1999511719</ele>
        <time>2013-02-23T12:45:39.000Z</time>
      </trkpt>
      <trkpt lat="46.01126" lon="6.34329">
        <ele>1486.8000488281</ele>
        <time>2013-02-23T12:45:40.000Z</time>
      </trkpt>
      <trkpt lat="46.01136" lon="6.34306">
        <ele>1483.4000244141</ele>
        <time>2013-02-23T12:45:43.000Z</time>
      </trkpt>
      <trkpt lat="46.01141" lon="6.34277">
        <ele>1476.5999755859</ele>
        <time>2013-02-23T12:45:47.000Z</time>
      </trkpt>
      <trkpt lat="46.01149" lon="6.34265">
        <ele>1473.1999511719</ele>
        <time>2013-02-23T12:45:49.000Z</time>
      </trkpt>
      <trkpt lat="46.01154" lon="6.34249">
        <ele>1468</ele>
        <time>2013-02-23T12:45:53.000Z</time>
      </trkpt>
      <trkpt lat="46.01154" lon="6.34239">
        <ele>1464.1999511719</ele>
        <time>2013-02-23T12:45:56.000Z</time>
      </trkpt>
      <trkpt lat="46.01154" lon="6.34239">
        <ele>1462.5999755859</ele>
        <time>2013-02-23T12:46:02.000Z</time>
      </trkpt>
      <trkpt lat="46.01154" lon="6.34239">
        <ele>1461.1999511719</ele>
        <time>2013-02-23T12:46:14.000Z</time>
      </trkpt>
      <trkpt lat="46.01172" lon="6.34224">
        <ele>1457</ele>
        <time>2013-02-23T12:46:19.000Z</time>
      </trkpt>
      <trkpt lat="46.01175" lon="6.34223">
        <ele>1455.4000244141</ele>
        <time>2013-02-23T12:46:20.000Z</time>
      </trkpt>
      <trkpt lat="46.01177" lon="6.34209">
        <ele>1450.5999755859</ele>
        <time>2013-02-23T12:46:24.000Z</time>
      </trkpt>
      <trkpt lat="46.01183" lon="6.34202">
        <ele>1446.8000488281</ele>
        <time>2013-02-23T12:46:27.000Z</time>
      </trkpt>
      <trkpt lat="46.01182" lon="6.34195">
        <ele>1443</ele>
        <time>2013-02-23T12:46:30.000Z</time>
      </trkpt>
      <trkpt lat="46.01185" lon="6.34191">
        <ele>1441.5999755859</ele>
        <time>2013-02-23T12:46:32.000Z</time>
      </trkpt>
      <trkpt lat="46.01185" lon="6.3419">
        <ele>1440.5999755859</ele>
        <time>2013-02-23T12:46:33.000Z</time>
      </trkpt>
      <trkpt lat="46.01183" lon="6.34174">
        <ele>1436.1999511719</ele>
        <time>2013-02-23T12:46:37.000Z</time>
      </trkpt>
      <trkpt lat="46.01182" lon="6.34165">
        <ele>1434.4000244141</ele>
        <time>2013-02-23T12:46:39.000Z</time>
      </trkpt>
      <trkpt lat="46.01176" lon="6.34158">
        <ele>1431.4000244141</ele>
        <time>2013-02-23T12:46:41.000Z</time>
      </trkpt>
      <trkpt lat="46.01178" lon="6.34159">
        <ele>1428.5999755859</ele>
        <time>2013-02-23T12:46:43.000Z</time>
      </trkpt>
      <trkpt lat="46.0118" lon="6.34153">
        <ele>1426.1999511719</ele>
        <time>2013-02-23T12:46:51.000Z</time>
      </trkpt>
      <trkpt lat="46.01176" lon="6.34136">
        <ele>1424.1999511719</ele>
        <time>2013-02-23T12:46:55.000Z</time>
      </trkpt>
      <trkpt lat="46.01174" lon="6.34132">
        <ele>1423.8000488281</ele>
        <time>2013-02-23T12:46:56.000Z</time>
      </trkpt>
      <trkpt lat="46.0118" lon="6.34123">
        <ele>1423.1999511719</ele>
        <time>2013-02-23T12:46:59.000Z</time>
      </trkpt>
      <trkpt lat="46.01185" lon="6.34126">
        <ele>1422.8000488281</ele>
        <time>2013-02-23T12:47:01.000Z</time>
      </trkpt>
      <trkpt lat="46.01187" lon="6.34128">
        <ele>1422.4000244141</ele>
        <time>2013-02-23T12:47:02.000Z</time>
      </trkpt>
      <trkpt lat="46.01189" lon="6.34132">
        <ele>1422.8000488281</ele>
        <time>2013-02-23T12:47:08.000Z</time>
      </trkpt>
      <trkpt lat="46.0119" lon="6.34132">
        <ele>1422.8000488281</ele>
        <time>2013-02-23T12:47:09.000Z</time>
      </trkpt>
      <trkpt lat="46.01194" lon="6.34121">
        <ele>1421.8000488281</ele>
        <time>2013-02-23T12:47:13.000Z</time>
      </trkpt>
      <trkpt lat="46.01192" lon="6.34113">
        <ele>1421.8000488281</ele>
        <time>2013-02-23T12:47:16.000Z</time>
      </trkpt>
      <trkpt lat="46.01193" lon="6.34109">
        <ele>1420.8000488281</ele>
        <time>2013-02-23T12:47:18.000Z</time>
      </trkpt>
      <trkpt lat="46.01192" lon="6.34101">
        <ele>1421.4000244141</ele>
        <time>2013-02-23T12:47:22.000Z</time>
      </trkpt>
      <trkpt lat="46.01192" lon="6.34099">
        <ele>1421.8000488281</ele>
        <time>2013-02-23T12:47:23.000Z</time>
      </trkpt>
      <trkpt lat="46.01191" lon="6.34085">
        <ele>1422.8000488281</ele>
        <time>2013-02-23T12:47:29.000Z</time>
      </trkpt>
      <trkpt lat="46.0119" lon="6.34073">
        <ele>1421.8000488281</ele>
        <time>2013-02-23T12:47:32.000Z</time>
      </trkpt>
      <trkpt lat="46.01191" lon="6.3404">
        <ele>1418</ele>
        <time>2013-02-23T12:47:37.000Z</time>
      </trkpt>
      <trkpt lat="46.01194" lon="6.34025">
        <ele>1417.5999755859</ele>
        <time>2013-02-23T12:47:39.000Z</time>
      </trkpt>
      <trkpt lat="46.01198" lon="6.34001">
        <ele>1417.5999755859</ele>
        <time>2013-02-23T12:47:43.000Z</time>
      </trkpt>
      <trkpt lat="46.01201" lon="6.33992">
        <ele>1417.5999755859</ele>
        <time>2013-02-23T12:47:46.000Z</time>
      </trkpt>
      <trkpt lat="46.01204" lon="6.33981">
        <ele>1417</ele>
        <time>2013-02-23T12:47:50.000Z</time>
      </trkpt>
      <trkpt lat="46.01206" lon="6.33974">
        <ele>1417.5999755859</ele>
        <time>2013-02-23T12:47:54.000Z</time>
      </trkpt>
      <trkpt lat="46.01207" lon="6.33968">
        <ele>1417</ele>
        <time>2013-02-23T12:47:59.000Z</time>
      </trkpt>
      <trkpt lat="46.01207" lon="6.33966">
        <ele>1417</ele>
        <time>2013-02-23T12:48:04.000Z</time>
      </trkpt>
      <trkpt lat="46.01207" lon="6.33961">
        <ele>1416.5999755859</ele>
        <time>2013-02-23T12:48:08.000Z</time>
      </trkpt>
      <trkpt lat="46.01207" lon="6.33959">
        <ele>1416.5999755859</ele>
        <time>2013-02-23T12:48:09.000Z</time>
      </trkpt>
      <trkpt lat="46.01207" lon="6.33952">
        <ele>1416</ele>
        <time>2013-02-23T12:48:12.000Z</time>
      </trkpt>
      <trkpt lat="46.01208" lon="6.33943">
        <ele>1417</ele>
        <time>2013-02-23T12:48:17.000Z</time>
      </trkpt>
      <trkpt lat="46.01207" lon="6.33938">
        <ele>1417</ele>
        <time>2013-02-23T12:48:19.000Z</time>
      </trkpt>
      <trkpt lat="46.01206" lon="6.3392">
        <ele>1418</ele>
        <time>2013-02-23T12:48:26.000Z</time>
      </trkpt>
      <trkpt lat="46.01206" lon="6.33914">
        <ele>1418</ele>
        <time>2013-02-23T12:48:31.000Z</time>
      </trkpt>
      <trkpt lat="46.01207" lon="6.3391">
        <ele>1417.5999755859</ele>
        <time>2013-02-23T12:48:37.000Z</time>
      </trkpt>
      <trkpt lat="46.01206" lon="6.339">
        <ele>1416.5999755859</ele>
        <time>2013-02-23T12:48:41.000Z</time>
      </trkpt>
      <trkpt lat="46.01206" lon="6.33897">
        <ele>1415.5999755859</ele>
        <time>2013-02-23T12:48:42.000Z</time>
      </trkpt>
      <trkpt lat="46.01217" lon="6.33884">
        <ele>1413.1999511719</ele>
        <time>2013-02-23T12:48:46.000Z</time>
      </trkpt>
      <trkpt lat="46.01223" lon="6.3388">
        <ele>1411.8000488281</ele>
        <time>2013-02-23T12:48:47.000Z</time>
      </trkpt>
      <trkpt lat="46.01233" lon="6.33862">
        <ele>1408.8000488281</ele>
        <time>2013-02-23T12:48:50.000Z</time>
      </trkpt>
      <trkpt lat="46.01239" lon="6.33847">
        <ele>1405.4000244141</ele>
        <time>2013-02-23T12:48:52.000Z</time>
      </trkpt>
      <trkpt lat="46.01244" lon="6.33841">
        <ele>1404</ele>
        <time>2013-02-23T12:48:53.000Z</time>
      </trkpt>
      <trkpt lat="46.01258" lon="6.33828">
        <ele>1399.1999511719</ele>
        <time>2013-02-23T12:48:56.000Z</time>
      </trkpt>
      <trkpt lat="46.01278" lon="6.33818">
        <ele>1394</ele>
        <time>2013-02-23T12:49:00.000Z</time>
      </trkpt>
      <trkpt lat="46.01295" lon="6.33807">
        <ele>1390.5999755859</ele>
        <time>2013-02-23T12:49:04.000Z</time>
      </trkpt>
      <trkpt lat="46.013" lon="6.33803">
        <ele>1389.1999511719</ele>
        <time>2013-02-23T12:49:05.000Z</time>
      </trkpt>
      <trkpt lat="46.01312" lon="6.33793">
        <ele>1386.1999511719</ele>
        <time>2013-02-23T12:49:07.000Z</time>
      </trkpt>
      <trkpt lat="46.01328" lon="6.33783">
        <ele>1382</ele>
        <time>2013-02-23T12:49:10.000Z</time>
      </trkpt>
      <trkpt lat="46.01343" lon="6.33777">
        <ele>1378</ele>
        <time>2013-02-23T12:49:13.000Z</time>
      </trkpt>
      <trkpt lat="46.01348" lon="6.33768">
        <ele>1376.5999755859</ele>
        <time>2013-02-23T12:49:15.000Z</time>
      </trkpt>
      <trkpt lat="46.01352" lon="6.33761">
        <ele>1375.1999511719</ele>
        <time>2013-02-23T12:49:17.000Z</time>
      </trkpt>
      <trkpt lat="46.01357" lon="6.33754">
        <ele>1372.8000488281</ele>
        <time>2013-02-23T12:49:19.000Z</time>
      </trkpt>
      <trkpt lat="46.01369" lon="6.33742">
        <ele>1370.8000488281</ele>
        <time>2013-02-23T12:49:23.000Z</time>
      </trkpt>
      <trkpt lat="46.01375" lon="6.33733">
        <ele>1369.4000244141</ele>
        <time>2013-02-23T12:49:25.000Z</time>
      </trkpt>
      <trkpt lat="46.01385" lon="6.33716">
        <ele>1368.4000244141</ele>
        <time>2013-02-23T12:49:29.000Z</time>
      </trkpt>
      <trkpt lat="46.01387" lon="6.33685">
        <ele>1366</ele>
        <time>2013-02-23T12:49:34.000Z</time>
      </trkpt>
      <trkpt lat="46.01382" lon="6.33659">
        <ele>1363.1999511719</ele>
        <time>2013-02-23T12:49:37.000Z</time>
      </trkpt>
      <trkpt lat="46.01379" lon="6.33634">
        <ele>1359.4000244141</ele>
        <time>2013-02-23T12:49:40.000Z</time>
      </trkpt>
      <trkpt lat="46.01379" lon="6.33585">
        <ele>1352.5999755859</ele>
        <time>2013-02-23T12:49:45.000Z</time>
      </trkpt>
      <trkpt lat="46.01394" lon="6.33573">
        <ele>1348.1999511719</ele>
        <time>2013-02-23T12:49:48.000Z</time>
      </trkpt>
      <trkpt lat="46.01397" lon="6.33566">
        <ele>1346.8000488281</ele>
        <time>2013-02-23T12:49:50.000Z</time>
      </trkpt>
      <trkpt lat="46.01397" lon="6.33564">
        <ele>1345.8000488281</ele>
        <time>2013-02-23T12:49:51.000Z</time>
      </trkpt>
      <trkpt lat="46.01397" lon="6.33556">
        <ele>1343.4000244141</ele>
        <time>2013-02-23T12:49:53.000Z</time>
      </trkpt>
      <trkpt lat="46.01391" lon="6.33547">
        <ele>1341.5999755859</ele>
        <time>2013-02-23T12:49:57.000Z</time>
      </trkpt>
      <trkpt lat="46.01386" lon="6.3354">
        <ele>1341</ele>
        <time>2013-02-23T12:50:03.000Z</time>
      </trkpt>
      <trkpt lat="46.01384" lon="6.33538">
        <ele>1341</ele>
        <time>2013-02-23T12:50:05.000Z</time>
      </trkpt>
      <trkpt lat="46.01378" lon="6.33527">
        <ele>1341.5999755859</ele>
        <time>2013-02-23T12:50:10.000Z</time>
      </trkpt>
      <trkpt lat="46.01375" lon="6.33524">
        <ele>1342</ele>
        <time>2013-02-23T12:50:12.000Z</time>
      </trkpt>
      <trkpt lat="46.01367" lon="6.33509">
        <ele>1343.4000244141</ele>
        <time>2013-02-23T12:50:17.000Z</time>
      </trkpt>
      <trkpt lat="46.01362" lon="6.33493">
        <ele>1342.5999755859</ele>
        <time>2013-02-23T12:50:20.000Z</time>
      </trkpt>
      <trkpt lat="46.01361" lon="6.33472">
        <ele>1342</ele>
        <time>2013-02-23T12:50:23.000Z</time>
      </trkpt>
      <trkpt lat="46.01363" lon="6.33459">
        <ele>1341</ele>
        <time>2013-02-23T12:50:25.000Z</time>
      </trkpt>
      <trkpt lat="46.01365" lon="6.33428">
        <ele>1340.5999755859</ele>
        <time>2013-02-23T12:50:30.000Z</time>
      </trkpt>
      <trkpt lat="46.01363" lon="6.33413">
        <ele>1339.5999755859</ele>
        <time>2013-02-23T12:50:32.000Z</time>
      </trkpt>
      <trkpt lat="46.01368" lon="6.33374">
        <ele>1337.8000488281</ele>
        <time>2013-02-23T12:50:37.000Z</time>
      </trkpt>
      <trkpt lat="46.01368" lon="6.33326">
        <ele>1332.4000244141</ele>
        <time>2013-02-23T12:50:43.000Z</time>
      </trkpt>
      <trkpt lat="46.01369" lon="6.33318">
        <ele>1332</ele>
        <time>2013-02-23T12:50:44.000Z</time>
      </trkpt>
      <trkpt lat="46.01381" lon="6.3328">
        <ele>1328.5999755859</ele>
        <time>2013-02-23T12:50:49.000Z</time>
      </trkpt>
      <trkpt lat="46.01385" lon="6.33268">
        <ele>1327.1999511719</ele>
        <time>2013-02-23T12:50:51.000Z</time>
      </trkpt>
      <trkpt lat="46.01399" lon="6.33252">
        <ele>1323.1999511719</ele>
        <time>2013-02-23T12:50:55.000Z</time>
      </trkpt>
      <trkpt lat="46.014" lon="6.33252">
        <ele>1322.8000488281</ele>
        <time>2013-02-23T12:50:59.000Z</time>
      </trkpt>
      <trkpt lat="46.01407" lon="6.33249">
        <ele>1320.8000488281</ele>
        <time>2013-02-23T12:51:08.000Z</time>
      </trkpt>
      <trkpt lat="46.01417" lon="6.33241">
        <ele>1316.5999755859</ele>
        <time>2013-02-23T12:51:11.000Z</time>
      </trkpt>
      <trkpt lat="46.01431" lon="6.33226">
        <ele>1310.8000488281</ele>
        <time>2013-02-23T12:51:14.000Z</time>
      </trkpt>
      <trkpt lat="46.01456" lon="6.33213">
        <ele>1304</ele>
        <time>2013-02-23T12:51:18.000Z</time>
      </trkpt>
      <trkpt lat="46.01479" lon="6.33189">
        <ele>1299.8000488281</ele>
        <time>2013-02-23T12:51:22.000Z</time>
      </trkpt>
      <trkpt lat="46.01488" lon="6.33175">
        <ele>1296.8000488281</ele>
        <time>2013-02-23T12:51:24.000Z</time>
      </trkpt>
      <trkpt lat="46.01503" lon="6.33149">
        <ele>1291.5999755859</ele>
        <time>2013-02-23T12:51:28.000Z</time>
      </trkpt>
      <trkpt lat="46.01518" lon="6.33134">
        <ele>1287.8000488281</ele>
        <time>2013-02-23T12:51:31.000Z</time>
      </trkpt>
      <trkpt lat="46.01532" lon="6.33125">
        <ele>1284.8000488281</ele>
        <time>2013-02-23T12:51:33.000Z</time>
      </trkpt>
      <trkpt lat="46.01584" lon="6.33102">
        <ele>1279</ele>
        <time>2013-02-23T12:51:40.000Z</time>
      </trkpt>
      <trkpt lat="46.01605" lon="6.33085">
        <ele>1276.1999511719</ele>
        <time>2013-02-23T12:51:44.000Z</time>
      </trkpt>
      <trkpt lat="46.0161" lon="6.33081">
        <ele>1275.1999511719</ele>
        <time>2013-02-23T12:51:45.000Z</time>
      </trkpt>
      <trkpt lat="46.01625" lon="6.33064">
        <ele>1273.8000488281</ele>
        <time>2013-02-23T12:51:50.000Z</time>
      </trkpt>
      <trkpt lat="46.01632" lon="6.33057">
        <ele>1273.4000244141</ele>
        <time>2013-02-23T12:51:52.000Z</time>
      </trkpt>
      <trkpt lat="46.01642" lon="6.33045">
        <ele>1271.4000244141</ele>
        <time>2013-02-23T12:51:55.000Z</time>
      </trkpt>
      <trkpt lat="46.01651" lon="6.33027">
        <ele>1269.4000244141</ele>
        <time>2013-02-23T12:51:58.000Z</time>
      </trkpt>
      <trkpt lat="46.01675" lon="6.32991">
        <ele>1266</ele>
        <time>2013-02-23T12:52:04.000Z</time>
      </trkpt>
      <trkpt lat="46.01697" lon="6.32976">
        <ele>1265.1999511719</ele>
        <time>2013-02-23T12:52:08.000Z</time>
      </trkpt>
      <trkpt lat="46.01723" lon="6.32966">
        <ele>1264.1999511719</ele>
        <time>2013-02-23T12:52:13.000Z</time>
      </trkpt>
      <trkpt lat="46.01738" lon="6.32964">
        <ele>1264.1999511719</ele>
        <time>2013-02-23T12:52:16.000Z</time>
      </trkpt>
      <trkpt lat="46.01755" lon="6.32952">
        <ele>1263.5999755859</ele>
        <time>2013-02-23T12:52:21.000Z</time>
      </trkpt>
      <trkpt lat="46.01757" lon="6.32948">
        <ele>1263.5999755859</ele>
        <time>2013-02-23T12:52:22.000Z</time>
      </trkpt>
      <trkpt lat="46.01771" lon="6.32931">
        <ele>1263.5999755859</ele>
        <time>2013-02-23T12:52:28.000Z</time>
      </trkpt>
      <trkpt lat="46.01775" lon="6.32926">
        <ele>1263.1999511719</ele>
        <time>2013-02-23T12:52:30.000Z</time>
      </trkpt>
      <trkpt lat="46.01792" lon="6.3291">
        <ele>1262.8000488281</ele>
        <time>2013-02-23T12:52:35.000Z</time>
      </trkpt>
      <trkpt lat="46.01806" lon="6.32894">
        <ele>1262.1999511719</ele>
        <time>2013-02-23T12:52:39.000Z</time>
      </trkpt>
      <trkpt lat="46.01824" lon="6.32877">
        <ele>1260.8000488281</ele>
        <time>2013-02-23T12:52:43.000Z</time>
      </trkpt>
      <trkpt lat="46.01841" lon="6.32844">
        <ele>1259.4000244141</ele>
        <time>2013-02-23T12:52:48.000Z</time>
      </trkpt>
      <trkpt lat="46.01848" lon="6.32823">
        <ele>1258</ele>
        <time>2013-02-23T12:52:51.000Z</time>
      </trkpt>
      <trkpt lat="46.0185" lon="6.32818">
        <ele>1257</ele>
        <time>2013-02-23T12:52:52.000Z</time>
      </trkpt>
      <trkpt lat="46.01861" lon="6.32789">
        <ele>1252.5999755859</ele>
        <time>2013-02-23T12:52:57.000Z</time>
      </trkpt>
      <trkpt lat="46.01872" lon="6.32768">
        <ele>1247.4000244141</ele>
        <time>2013-02-23T12:53:00.000Z</time>
      </trkpt>
      <trkpt lat="46.01879" lon="6.3274">
        <ele>1241.5999755859</ele>
        <time>2013-02-23T12:53:04.000Z</time>
      </trkpt>
      <trkpt lat="46.01895" lon="6.32712">
        <ele>1235.4000244141</ele>
        <time>2013-02-23T12:53:08.000Z</time>
      </trkpt>
      <trkpt lat="46.01917" lon="6.32675">
        <ele>1224.8000488281</ele>
        <time>2013-02-23T12:53:14.000Z</time>
      </trkpt>
      <trkpt lat="46.01932" lon="6.32648">
        <ele>1217</ele>
        <time>2013-02-23T12:53:18.000Z</time>
      </trkpt>
      <trkpt lat="46.01958" lon="6.32625">
        <ele>1207</ele>
        <time>2013-02-23T12:53:23.000Z</time>
      </trkpt>
      <trkpt lat="46.01962" lon="6.32617">
        <ele>1204</ele>
        <time>2013-02-23T12:53:24.000Z</time>
      </trkpt>
      <trkpt lat="46.01964" lon="6.32573">
        <ele>1194.4000244141</ele>
        <time>2013-02-23T12:53:29.000Z</time>
      </trkpt>
      <trkpt lat="46.0197" lon="6.32541">
        <ele>1188.1999511719</ele>
        <time>2013-02-23T12:53:32.000Z</time>
      </trkpt>
      <trkpt lat="46.01983" lon="6.32524">
        <ele>1182.4000244141</ele>
        <time>2013-02-23T12:53:34.000Z</time>
      </trkpt>
      <trkpt lat="46.0199" lon="6.32489">
        <ele>1176.1999511719</ele>
        <time>2013-02-23T12:53:37.000Z</time>
      </trkpt>
      <trkpt lat="46.02003" lon="6.32464">
        <ele>1172.8000488281</ele>
        <time>2013-02-23T12:53:40.000Z</time>
      </trkpt>
      <trkpt lat="46.0201" lon="6.32459">
        <ele>1172.4000244141</ele>
        <time>2013-02-23T12:53:41.000Z</time>
      </trkpt>
      <trkpt lat="46.02052" lon="6.32433">
        <ele>1166.1999511719</ele>
        <time>2013-02-23T12:53:47.000Z</time>
      </trkpt>
      <trkpt lat="46.02057" lon="6.32428">
        <ele>1164.5999755859</ele>
        <time>2013-02-23T12:53:48.000Z</time>
      </trkpt>
      <trkpt lat="46.02078" lon="6.32409">
        <ele>1162.8000488281</ele>
        <time>2013-02-23T12:53:52.000Z</time>
      </trkpt>
      <trkpt lat="46.02088" lon="6.32398">
        <ele>1166.1999511719</ele>
        <time>2013-02-23T12:53:55.000Z</time>
      </trkpt>
      <trkpt lat="46.02099" lon="6.32391">
        <ele>1167</ele>
        <time>2013-02-23T12:54:00.000Z</time>
      </trkpt>
      <trkpt lat="46.02105" lon="6.32385">
        <ele>1168.5999755859</ele>
        <time>2013-02-23T12:54:04.000Z</time>
      </trkpt>
      <trkpt lat="46.0211" lon="6.3238">
        <ele>1169.4000244141</ele>
        <time>2013-02-23T12:54:08.000Z</time>
      </trkpt>
      <trkpt lat="46.02115" lon="6.32373">
        <ele>1172.4000244141</ele>
        <time>2013-02-23T12:54:12.000Z</time>
      </trkpt>
      <trkpt lat="46.0212" lon="6.3237">
        <ele>1172.4000244141</ele>
        <time>2013-02-23T12:54:14.000Z</time>
      </trkpt>
      <trkpt lat="46.02122" lon="6.32369">
        <ele>1172.4000244141</ele>
        <time>2013-02-23T12:54:15.000Z</time>
      </trkpt>
      <trkpt lat="46.0213" lon="6.3236">
        <ele>1172.8000488281</ele>
        <time>2013-02-23T12:54:20.000Z</time>
      </trkpt>
      <trkpt lat="46.02131" lon="6.32359">
        <ele>1172.4000244141</ele>
        <time>2013-02-23T12:54:21.000Z</time>
      </trkpt>
      <trkpt lat="46.02141" lon="6.32357">
        <ele>1171.4000244141</ele>
        <time>2013-02-23T12:54:26.000Z</time>
      </trkpt>
      <trkpt lat="46.02153" lon="6.3235">
        <ele>1172.4000244141</ele>
        <time>2013-02-23T12:54:33.000Z</time>
      </trkpt>
      <trkpt lat="46.02154" lon="6.32346">
        <ele>1172.4000244141</ele>
        <time>2013-02-23T12:54:38.000Z</time>
      </trkpt>
      <trkpt lat="46.02154" lon="6.32346">
        <ele>1171.4000244141</ele>
        <time>2013-02-23T12:55:00.000Z</time>
      </trkpt>
      <trkpt lat="46.02153" lon="6.32346">
        <ele>1176.1999511719</ele>
        <time>2013-02-23T12:55:07.000Z</time>
      </trkpt>
      <trkpt lat="46.02153" lon="6.32347">
        <ele>1177.1999511719</ele>
        <time>2013-02-23T12:55:19.000Z</time>
      </trkpt>
      <trkpt lat="46.02153" lon="6.32347">
        <ele>1176.5999755859</ele>
        <time>2013-02-23T12:55:21.000Z</time>
      </trkpt>
    </trkseg>
  </trk>
</gpx>